GFSCGP_925_rhum_003.txt.gz
RH
7 7 8 8 9 9 10 11 11 10 10 14 17 16 18 19 20 19 18 20 24 26 26 29 34 36 39 43 51 57 63 66 69 71 75 69 67 58 55 52 66 77 75 74
7 8 6 7 8 9 9 10 12 10 11 12 15 17 14 20 21 19 19 19 21 23 24 29 33 36 38 44 49 57 64 68 74 72 76 60 55 52 47 50 55 66 66 66
6 5 5 6 8 10 10 10 11 11 16 15 14 18 15 15 19 20 18 18 18 20 22 28 31 35 38 42 50 58 66 69 72 67 66 65 63 60 56 50 61 68 73 70
7 4 5 6 8 8 11 9 10 10 17 22 13 21 17 14 16 21 20 19 18 19 20 23 30 35 36 40 48 54 66 69 72 73 63 61 59 52 44 44 44 54 72 71
7 6 6 6 6 7 9 8 10 10 13 27 14 16 17 13 15 17 20 20 18 18 20 22 27 32 35 37 44 52 63 70 68 75 68 60 61 45 44 40 49 55 72 67
6 4 4 5 5 6 7 8 10 10 12 17 15 17 18 18 14 13 14 18 19 18 18 22 24 29 33 35 40 47 62 71 73 73 77 67 61 54 42 43 52 54 54 63
8 6 5 4 6 6 7 10 14 16 16 16 12 17 29 13 10 11 11 11 16 19 18 21 26 28 32 36 39 45 56 72 74 72 72 74 70 65 58 56 55 50 46 48
11 11 7 5 5 6 8 9 13 22 18 15 12 16 13 10 9 8 8 8 10 17 18 18 23 28 33 35 41 44 52 67 73 70 70 71 72 64 58 58 51 52 48 48
9 11 6 5 5 5 7 9 8 11 11 13 11 11 9 10 10 9 8 8 8 14 17 19 20 25 30 33 39 44 50 61 67 63 72 74 74 70 54 53 58 56 53 49
8 11 7 5 5 4 5 6 10 10 21 19 12 12 12 12 11 9 9 8 8 10 16 17 18 22 27 31 36 43 49 58 61 60 67 70 72 75 68 60 60 55 56 58
7 9 9 7 7 7 6 6 8 9 11 15 16 13 8 10 11 10 9 8 8 10 15 17 17 19 24 27 31 38 44 52 59 59 57 60 65 68 72 66 63 64 61 72
8 9 13 10 6 5 5 6 6 12 18 12 12 11 7 7 8 8 8 7 7 10 13 16 16 17 20 25 26 31 36 42 51 55 58 61 63 64 67 70 67 74 73 75
8 12 15 14 9 7 7 6 5 6 10 18 15 12 7 7 7 8 8 8 8 9 11 15 15 17 19 22 25 25 32 34 39 50 55 58 61 65 65 72 72 84 83 82
14 11 14 14 14 7 8 7 5 6 9 11 11 12 10 9 9 8 8 8 9 9 16 15 17 18 19 22 26 26 27 27 33 41 45 54 62 63 65 73 78 86 88 82
12 17 13 11 10 9 7 6 5 6 7 10 10 10 10 10 9 8 7 8 8 8 14 19 20 24 27 26 29 29 27 29 30 39 43 52 63 64 67 74 90 92 87 78
12 20 16 14 10 9 10 8 6 6 6 6 7 9 7 7 8 8 8 8 8 8 8 18 23 24 31 30 32 33 33 32 34 42 44 51 65 69 73 85 93 95 83 72
19 20 26 26 16 15 16 11 9 8 7 6 8 7 6 8 9 9 8 8 9 10 10 14 22 25 28 30 35 35 39 36 40 45 49 53 70 81 93 91 94 94 86 72
18 22 20 23 22 29 15 14 10 10 9 7 7 6 6 9 10 9 7 7 10 10 10 11 17 24 29 30 32 34 40 45 47 54 55 60 80 91 98 96 94 91 84 73
18 22 25 27 27 32 23 24 23 28 20 9 9 7 6 6 6 10 8 7 8 8 9 12 19 23 32 32 37 41 45 51 54 59 63 67 86 93 97 95 90 85 83 76
17 23 28 28 31 30 17 27 24 21 25 11 10 10 6 6 11 10 8 11 14 14 11 15 21 25 35 36 38 45 47 52 57 61 66 73 88 91 92 91 90 86 83 78
19 22 27 28 29 21 30 26 24 32 28 35 29 25 17 8 10 22 21 18 18 16 20 25 25 35 38 36 37 46 46 50 53 58 65 75 86 89 86 87 89 88 86 81
21 25 24 24 28 29 29 26 31 41 34 31 30 27 26 9 20 28 27 26 23 22 26 28 34 37 36 37 43 47 50 52 56 62 69 79 82 88 88 91 91 91 88 84
21 19 22 20 24 41 35 37 35 32 32 31 30 24 23 27 30 31 33 34 33 33 32 31 34 39 38 42 45 51 55 58 64 71 80 86 89 90 88 85 88 88 84 72
28 18 22 27 43 43 38 35 31 30 31 28 28 27 28 32 31 30 29 27 27 29 33 33 37 44 49 45 47 58 65 67 73 92 93 94 93 90 91 84 88 85 80 74
81 42 30 46 47 45 44 42 39 37 32 32 39 39 46 39 39 40 47 44 36 36 34 37 44 51 56 60 67 68 72 74 88 93 93 94 90 88 87 82 82 76 80 76
91 93 59 41 44 47 47 39 34 37 37 34 36 40 40 44 51 51 51 46 45 45 45 48 48 55 62 65 69 72 75 74 83 87 86 85 83 83 90 82 80 75 74 70

GFSCGP_925_rhum_006.txt.gz
RH
10 10 11 10 9 9 8 10 10 10 12 12 17 54 60 33 19 16 19 19 22 24 25 26 30 32 35 43 50 55 57 56 65 72 76 70 70 65 58 54 54 65 72 71
8 10 7 7 8 9 10 10 11 9 12 13 13 35 37 28 19 17 16 18 18 19 22 27 30 31 34 40 49 58 61 63 62 68 69 69 67 61 60 59 60 60 66 69
9 6 5 6 8 10 10 10 11 10 11 11 12 15 19 19 16 16 15 15 16 19 20 28 30 32 34 40 49 56 65 68 72 67 70 68 68 66 59 56 58 69 66 69
8 6 5 5 8 8 11 8 9 9 14 19 14 22 24 19 20 19 16 16 16 18 20 23 30 33 34 38 47 56 66 70 77 66 74 71 66 62 53 54 53 60 63 70
7 7 6 5 6 7 9 8 8 9 11 18 19 22 19 20 21 21 18 17 16 16 17 20 28 31 33 37 48 55 67 72 76 76 71 70 63 57 47 42 47 58 66 69
7 5 5 4 4 5 6 8 8 8 10 17 15 20 19 18 21 17 17 17 17 16 17 20 24 29 34 36 45 53 66 75 74 79 69 68 63 58 54 50 54 64 71 66
8 7 5 4 5 4 6 8 14 15 15 16 12 20 22 17 16 14 24 21 17 17 18 20 24 30 35 36 41 52 62 75 78 77 81 66 66 55 58 53 56 57 57 67
11 10 6 4 5 6 6 7 13 22 18 15 12 15 15 15 14 16 19 26 15 17 16 19 24 28 34 37 40 47 61 72 77 76 83 79 70 66 65 59 50 55 49 48
8 10 6 5 5 4 6 8 7 11 10 13 11 10 8 9 14 17 13 10 10 16 17 18 22 26 32 36 39 45 58 72 77 77 80 84 78 72 68 58 56 57 50 50
8 11 6 6 5 5 5 5 8 9 19 21 13 15 14 13 14 16 16 14 9 10 17 18 19 26 29 34 38 44 50 67 76 76 79 80 82 75 65 55 55 54 57 48
7 9 8 7 8 7 6 6 6 7 10 15 19 15 10 16 15 15 13 10 9 9 16 16 19 21 28 33 37 42 48 61 71 74 74 75 77 78 68 70 64 59 54 54
7 8 12 9 6 5 6 7 7 10 17 11 13 13 7 12 11 10 10 10 9 11 12 15 18 20 25 30 34 40 46 53 64 69 70 73 76 78 78 72 70 63 66 62
7 10 15 12 8 7 7 6 6 6 8 16 15 13 8 10 12 13 11 10 13 11 17 16 16 21 24 28 31 36 42 48 58 64 65 69 71 76 76 78 72 71 68 67
10 10 15 13 13 9 10 7 7 7 8 10 10 13 11 12 13 11 12 12 11 14 24 18 18 22 23 26 31 34 39 41 49 59 61 63 66 70 71 74 77 72 73 75
9 17 13 10 9 9 9 8 7 8 9 11 9 10 12 12 13 13 11 12 13 14 21 21 22 28 30 30 32 32 33 36 38 50 56 61 63 66 69 70 75 77 78 85
8 18 16 15 10 10 11 9 7 7 8 8 8 8 6 8 9 16 12 13 14 15 14 23 25 29 34 33 34 32 31 34 34 41 50 53 60 66 68 70 74 80 84 91
14 13 22 22 13 12 14 11 9 8 6 7 9 9 8 9 11 12 17 14 14 14 14 17 26 28 29 30 32 33 32 32 33 41 47 49 57 67 70 71 74 82 88 93
18 21 19 22 21 27 12 8 8 9 8 6 7 8 8 10 10 10 10 12 15 14 13 15 11 26 28 25 28 31 33 34 36 46 48 51 59 71 73 74 78 88 96 93
15 22 24 28 27 21 16 12 13 13 14 10 9 10 7 7 8 10 8 8 11 11 16 15 10 13 28 27 27 34 36 36 45 44 55 54 64 76 80 83 93 94 95 94
16 28 26 27 30 34 23 20 18 19 26 23 24 23 19 14 11 9 10 9 8 8 9 17 15 16 32 32 30 37 41 42 43 51 56 61 78 86 95 94 96 92 90 88
26 30 30 28 28 21 29 24 19 32 29 30 27 27 26 25 24 27 24 29 26 12 14 15 22 32 37 36 35 42 43 50 47 55 61 72 89 94 97 96 91 88 89 87
29 26 28 31 37 42 23 33 36 35 29 27 26 25 26 26 24 20 20 25 26 25 19 23 39 44 42 39 45 53 56 56 59 66 70 82 94 90 87 87 88 90 90 85
26 20 22 24 25 26 29 37 31 27 30 33 35 28 23 21 21 25 27 28 28 24 29 28 41 48 45 50 54 59 62 60 66 70 78 87 92 86 86 93 92 88 87 81
22 46 25 26 25 31 30 27 27 28 43 46 51 54 56 34 27 28 29 32 36 37 42 41 46 56 60 57 57 63 64 68 72 82 88 90 88 89 92 93 88 81 82 78
84 72 66 32 46 42 40 36 34 38 40 43 49 52 60 66 69 56 56 55 50 54 58 55 58 62 62 68 69 70 74 81 90 89 92 92 95 89 87 85 82 78 79 72
83 93 96 85 47 51 51 39 35 35 35 35 41 46 58 64 69 76 75 71 63 64 60 63 62 66 70 71 72 74 87 87 89 88 90 92 94 92 86 85 84 83 82 75

GFSCGP_925_rhum_009.txt.gz
RH
11 16 16 13 10 10 11 12 12 11 13 17 32 36 31 22 26 29 30 30 32 33 32 37 37 36 39 43 46 50 50 68 68 68 68 72 71 73 63 54 58 63 62 67
12 16 13 10 10 9 10 12 13 11 13 17 34 33 25 20 20 22 25 30 30 31 31 36 35 38 40 45 50 49 49 55 71 68 69 68 74 69 60 54 52 62 66 68
13 13 11 10 11 12 11 13 13 13 12 15 32 43 38 26 22 25 23 23 27 29 31 34 35 37 40 50 54 54 50 50 67 69 71 70 68 65 66 65 61 62 65 61
12 10 10 10 9 9 15 10 11 11 12 20 20 36 46 33 36 37 31 22 23 27 28 31 35 36 39 51 52 57 56 53 58 68 72 73 71 71 67 66 62 60 66 66
10 11 11 10 7 7 11 10 11 11 13 24 21 26 32 34 41 44 32 20 20 22 25 32 35 35 37 44 54 60 61 60 64 64 68 69 69 66 65 64 61 59 72 71
11 8 7 9 7 5 6 10 11 12 13 19 23 23 30 31 40 43 25 21 19 20 22 30 31 35 36 46 54 64 70 69 72 68 69 72 70 67 63 54 58 63 69 63
9 9 8 6 8 7 6 10 16 19 20 23 16 24 31 19 20 21 22 20 20 19 21 24 33 37 37 45 53 68 73 80 80 76 69 75 72 64 58 52 63 70 66 70
14 13 9 8 7 8 7 8 13 26 24 20 16 18 18 16 18 18 22 19 20 21 20 23 32 34 38 41 55 63 76 78 82 82 78 70 73 66 57 61 69 63 62 66
12 13 9 7 7 6 8 9 7 12 17 23 16 14 12 17 17 17 19 21 20 18 21 22 27 32 38 41 55 59 77 80 83 85 84 79 71 67 67 60 58 62 60 65
12 19 10 8 7 6 6 7 10 8 15 21 16 19 20 18 20 22 23 22 20 20 21 21 25 32 38 40 49 57 70 79 83 82 86 82 76 69 70 65 53 64 55 50
8 11 11 11 10 8 8 8 8 10 10 16 22 18 14 18 24 24 20 18 18 20 19 22 24 28 37 40 46 54 67 77 82 85 85 84 83 78 75 69 59 59 60 54
9 10 14 12 9 7 7 10 8 15 15 18 14 14 12 9 17 19 18 19 15 21 19 20 23 28 37 40 42 51 68 75 78 82 84 86 85 87 84 73 68 60 59 56
10 11 16 16 11 9 9 8 9 7 14 17 26 15 8 7 11 10 13 17 18 20 24 22 23 30 37 39 41 48 58 74 77 80 82 86 84 88 88 80 75 69 57 59
22 12 13 16 16 12 16 9 8 8 10 10 10 10 12 12 18 18 16 17 14 18 29 26 25 31 33 38 41 43 52 64 73 79 80 80 82 83 86 86 76 76 74 64
15 15 12 12 12 11 9 11 9 10 9 12 10 9 10 10 21 22 18 23 20 20 32 31 27 29 34 36 40 43 46 51 64 72 77 77 78 79 83 84 86 76 76 75
28 27 24 22 14 11 11 10 10 8 8 9 9 10 11 11 10 20 20 17 14 22 32 32 34 29 32 36 41 42 45 48 52 66 70 71 73 78 80 84 86 89 81 80
34 36 34 23 19 18 18 11 11 12 8 9 11 9 10 11 13 16 21 20 13 14 26 29 33 46 30 34 36 41 44 45 50 56 66 67 68 75 77 82 82 85 87 84
31 33 37 25 28 36 20 14 12 13 13 10 11 13 15 15 17 19 13 11 15 15 20 29 28 38 44 33 35 38 41 45 48 52 62 64 68 70 77 79 82 84 85 86
23 28 37 33 31 24 21 16 14 16 16 16 32 30 21 20 14 13 16 18 12 13 13 22 26 29 34 36 36 36 40 45 46 50 54 61 64 72 76 80 84 89 93 96
20 31 40 32 33 33 21 20 22 20 37 36 38 39 35 31 35 27 32 27 22 20 18 16 18 20 37 37 36 38 40 42 45 44 51 58 60 67 82 81 88 90 87 83
39 37 40 42 29 29 36 33 24 38 52 36 35 34 35 38 42 37 33 29 29 31 25 16 19 29 35 36 38 40 39 41 44 43 55 62 66 83 87 87 88 98 96 92
69 79 42 45 42 40 41 36 36 58 46 54 55 55 36 35 36 30 35 26 31 26 25 52 48 52 36 43 44 47 42 42 46 58 70 86 94 99 88 86 92 89 88 88
68 69 72 41 50 50 45 49 51 58 71 70 72 70 68 76 71 65 44 39 38 43 60 59 75 84 69 51 55 71 75 54 67 92 100 100 100 95 94 96 91 90 90 87
50 70 52 59 32 42 54 40 69 73 72 60 68 72 72 80 81 83 80 82 71 67 70 69 74 82 85 80 76 78 74 74 89 100 100 97 96 98 92 87 88 91 91 89
87 82 85 78 63 68 76 78 58 61 58 58 60 65 72 74 80 81 83 89 91 88 81 74 77 86 89 82 84 82 84 88 98 100 98 96 96 99 98 96 91 86 85 82
86 94 97 97 94 95 71 58 54 56 55 54 56 67 74 79 87 82 89 90 93 95 93 83 82 85 88 92 95 94 90 89 97 98 99 98 100 100 95 90 90 83 78 75

GFSCGP_925_rhum_012.txt.gz
RH
13 18 21 18 16 13 14 15 16 13 12 24 27 27 26 36 43 46 47 46 44 41 40 43 43 45 52 62 71 73 74 62 61 66 72 64 62 59 57 69 62 62 66 65
15 18 16 15 13 12 12 13 14 13 12 20 31 27 26 31 35 39 42 43 44 42 40 42 41 48 52 64 69 73 72 66 64 64 65 64 60 61 54 68 66 59 61 61
16 15 12 14 14 14 12 13 12 15 13 19 33 36 32 27 27 30 34 34 37 40 41 41 41 45 50 61 67 69 70 66 68 67 60 66 64 64 70 70 67 63 62 63
17 12 13 13 15 14 19 12 11 12 16 21 26 41 44 36 32 30 32 33 34 35 35 39 41 41 49 55 60 63 69 63 69 67 67 74 72 78 77 69 64 65 64 63
16 13 12 15 14 12 14 11 14 13 16 19 22 37 37 37 38 41 32 29 31 31 33 35 39 39 40 49 58 59 60 64 67 69 70 72 71 67 65 65 66 64 63 68
14 10 12 12 11 11 10 10 14 16 17 27 29 31 34 48 32 31 26 28 27 30 31 32 35 36 40 45 55 61 62 63 65 70 71 72 74 70 66 66 67 68 69 69
15 15 11 9 12 11 10 12 16 20 21 26 18 30 27 28 28 26 24 28 27 26 29 31 34 37 38 43 53 64 69 68 69 75 70 70 70 69 64 65 66 70 74 71
19 19 11 9 11 12 13 10 13 21 25 23 18 27 24 24 23 24 21 23 27 22 25 29 32 36 36 42 54 63 73 71 73 74 73 69 69 67 66 67 67 63 66 72
18 15 10 8 8 10 12 12 8 15 20 25 20 17 15 16 23 25 26 27 25 21 22 25 31 34 36 41 53 62 74 71 76 76 72 74 69 71 75 70 70 60 62 67
11 17 12 8 8 8 10 9 11 16 16 17 17 20 18 16 17 26 24 27 23 21 20 22 25 32 37 39 52 62 70 72 77 79 76 76 73 76 76 70 68 68 68 66
8 15 12 11 11 13 12 11 12 11 12 14 22 14 13 16 18 24 25 23 21 22 22 21 22 30 36 39 53 62 70 71 77 83 80 80 80 78 79 72 68 66 64 63
10 10 14 13 11 10 10 10 11 11 15 15 10 11 10 13 14 23 25 22 21 21 22 23 22 28 34 41 52 59 70 71 74 80 82 82 84 84 79 73 68 68 66 66
30 15 17 16 12 12 13 10 9 14 14 12 19 14 10 10 10 18 24 23 24 20 23 26 26 30 35 41 46 58 66 71 75 77 82 86 86 90 85 78 73 68 66 63
36 28 17 16 13 12 14 12 10 9 10 12 12 13 10 10 12 18 24 23 22 22 22 22 28 29 36 41 45 54 61 70 74 78 81 84 88 89 88 80 74 74 71 69
49 50 25 26 15 11 12 13 11 11 9 10 9 12 11 10 12 11 12 22 20 17 29 24 27 30 40 43 44 50 59 66 72 76 80 82 85 88 91 88 81 78 79 76
51 51 42 37 20 11 12 12 11 12 10 10 10 10 10 8 11 15 17 20 23 23 30 29 26 31 39 42 45 46 54 66 70 75 78 80 83 88 90 92 91 86 85 83
57 51 47 51 27 15 18 12 12 11 11 10 12 10 13 12 14 15 14 17 21 26 33 33 28 31 33 39 42 45 52 61 69 72 77 80 82 86 88 91 94 95 90 89
51 49 47 50 40 30 17 11 11 12 13 13 9 10 11 10 9 17 18 17 21 16 24 30 31 29 31 35 41 44 46 55 66 69 74 80 82 84 87 90 92 97 97 94
32 43 46 53 49 28 18 18 17 15 16 25 17 20 14 14 15 18 19 16 16 20 21 24 32 36 32 34 39 44 47 50 56 63 70 75 79 81 87 90 92 98 98 99
41 29 36 40 43 40 19 20 22 24 60 42 40 38 31 26 18 30 32 31 20 19 18 21 18 33 42 33 36 42 46 50 53 56 61 70 75 78 83 87 90 94 96 98
78 80 46 45 50 38 48 46 26 34 41 38 39 39 38 43 40 35 33 31 30 28 23 17 20 25 36 40 37 40 43 48 49 51 55 63 72 75 78 88 92 97 99 94
91 91 80 55 71 70 35 44 29 49 75 72 74 72 79 83 82 65 54 37 34 28 28 39 32 33 21 32 39 40 43 43 46 49 52 60 70 74 83 95 100 97 95 98
92 88 76 58 84 57 48 65 79 80 83 85 87 81 84 84 88 89 95 94 88 88 78 82 74 61 66 47 41 41 40 41 45 49 56 66 77 87 100 100 100 100 100 100
83 84 71 65 60 80 95 83 76 75 80 76 77 80 81 88 86 89 93 97 96 93 88 81 85 95 89 67 51 43 46 47 54 72 93 99 99 100 100 100 100 100 100 100
84 86 87 78 76 86 79 86 80 67 66 70 74 80 84 83 92 94 96 95 95 93 87 85 85 82 83 93 76 72 70 80 89 97 99 99 100 100 100 100 100 100 97 87
87 98 99 98 96 98 88 85 81 70 69 66 71 80 87 88 94 93 97 95 89 86 85 83 79 76 72 81 94 99 96 96 98 98 99 100 100 100 100 100 100 95 85 79

GFSCGP_925_rhum_015.txt.gz
RH
19 25 28 21 18 16 15 15 17 15 13 22 29 36 55 53 55 61 61 60 62 61 56 55 55 54 58 63 68 68 75 76 75 82 80 77 78 72 67 67 65 62 65 67
18 23 21 18 18 17 16 16 16 14 13 18 28 34 50 51 52 54 58 60 60 58 58 55 54 54 53 61 68 72 71 74 72 76 73 78 72 68 63 62 67 66 64 65
19 17 15 17 18 17 17 18 15 15 15 16 32 39 40 51 47 47 47 48 51 51 58 57 52 52 52 60 70 74 71 73 70 73 72 74 70 67 66 64 63 70 67 69
18 13 15 16 17 18 23 14 13 13 16 20 29 46 44 42 54 50 49 48 46 44 45 50 50 48 50 59 67 72 75 74 70 71 76 76 73 75 72 64 60 70 69 68
20 17 15 17 15 16 17 13 15 16 17 18 20 34 34 38 45 44 43 44 44 43 42 43 47 45 48 55 66 72 76 76 72 69 73 75 75 66 62 62 62 66 68 67
16 13 14 15 13 13 13 13 13 18 22 27 18 25 22 50 35 34 33 36 37 39 40 41 40 43 48 52 64 69 76 78 76 71 74 74 76 71 68 63 67 69 68 67
18 16 12 12 15 15 15 17 24 21 27 23 18 30 19 26 32 27 30 30 32 32 35 38 40 41 43 52 61 68 75 80 82 82 79 77 74 71 65 63 67 68 68 68
25 25 17 13 15 16 18 17 29 24 30 21 21 29 23 19 24 26 22 26 26 30 31 33 35 38 41 44 57 64 72 75 85 87 83 81 75 74 70 65 63 63 65 64
26 24 13 13 11 12 15 17 13 16 23 23 24 20 16 16 20 28 27 23 26 28 29 30 32 34 38 42 50 63 68 68 78 85 84 83 80 80 78 68 64 64 60 65
16 18 13 11 12 12 12 12 14 21 21 22 20 21 20 18 17 28 31 29 26 29 27 28 30 31 34 38 45 58 63 64 66 75 79 81 77 78 76 68 66 65 62 66
17 16 14 12 14 14 15 14 14 16 17 17 18 15 13 17 19 21 28 29 28 29 27 25 27 29 31 36 43 54 63 64 64 68 74 76 80 81 82 72 66 61 63 67
42 23 17 14 13 9 10 12 16 17 18 18 14 14 11 13 14 19 18 26 26 26 26 24 23 26 31 37 41 54 60 66 64 68 73 75 74 80 86 76 68 63 66 69
54 46 23 17 14 13 14 13 12 13 15 15 16 15 11 12 14 16 20 25 26 30 28 25 22 27 33 37 41 52 60 65 64 70 73 78 80 81 84 77 75 71 69 70
48 52 38 30 20 18 17 14 12 13 16 14 13 12 12 12 13 12 17 22 30 33 29 29 32 29 35 38 41 52 59 62 64 71 75 78 81 84 82 78 78 79 74 75
56 61 43 40 34 29 23 16 12 14 12 14 12 13 11 14 15 13 13 13 28 29 28 26 28 30 36 38 42 52 56 64 64 70 75 78 80 83 87 84 80 78 80 79
58 61 54 44 29 28 25 16 14 12 11 12 11 14 11 10 13 11 11 13 17 23 25 26 21 24 31 37 43 48 57 62 66 70 73 75 79 84 90 89 88 85 84 84
59 62 62 59 39 37 30 18 15 12 12 11 13 11 11 10 11 12 11 16 18 16 22 25 29 27 32 37 41 46 56 59 70 70 73 76 79 85 90 92 93 91 90 90
62 62 60 62 51 43 21 20 12 13 14 13 11 12 14 10 9 11 13 14 17 20 25 34 30 27 30 36 40 42 51 60 68 71 73 77 82 83 89 95 95 96 95 94
56 55 63 56 63 44 25 24 25 14 16 19 14 14 13 14 13 14 18 19 18 19 23 30 34 29 30 36 40 44 50 58 68 71 73 76 82 84 89 94 97 97 98 100
51 50 48 56 59 52 31 48 51 47 18 44 33 20 16 19 17 13 26 30 22 19 22 29 38 34 32 35 40 45 49 57 67 70 71 74 80 82 88 92 94 94 95 98
63 69 71 55 56 51 59 82 56 41 23 43 44 42 36 22 18 24 33 34 45 34 36 31 22 45 39 36 39 47 49 52 56 62 68 71 78 82 84 91 94 97 98 99
73 76 89 59 67 75 78 79 88 88 91 72 66 72 80 81 83 90 95 98 97 97 94 96 93 84 74 35 40 45 51 48 50 54 60 69 74 83 85 94 98 99 99 98
79 71 88 62 68 66 70 75 88 90 96 94 85 87 83 90 98 99 99 97 93 90 81 75 78 84 75 90 71 51 42 46 49 53 57 62 73 83 88 98 98 98 99 97
68 92 74 73 60 77 83 79 83 84 87 85 88 90 90 96 97 95 94 93 86 83 77 70 62 65 68 68 75 83 80 64 46 52 56 61 74 84 90 96 95 96 99 98
85 88 69 83 75 74 84 84 87 85 74 78 86 90 94 90 96 93 94 94 93 90 83 75 78 78 67 60 65 57 50 81 63 53 58 68 80 89 99 99 99 98 100 99
86 84 86 75 88 85 97 94 77 78 81 73 85 89 91 89 92 89 94 96 94 94 92 89 83 75 70 75 84 76 65 47 85 78 91 95 97 100 100 100 100 100 100 98

GFSCGP_925_rhum_021.txt.gz
RH
23 22 25 20 17 14 13 14 15 13 12 18 22 26 31 44 45 47 51 52 52 52 48 55 60 63 68 74 80 85 87 86 89 88 82 79 78 76 80 79 63 67 65 65
25 24 17 16 19 17 14 14 15 14 12 13 14 18 18 38 47 45 50 50 50 49 50 54 58 61 64 70 76 84 85 84 86 82 80 76 75 74 80 80 74 68 64 62
20 17 17 20 20 18 15 13 13 15 13 12 15 16 20 38 40 43 45 46 46 46 50 53 55 58 61 66 76 80 83 82 84 80 84 87 88 89 87 82 81 73 62 60
15 14 19 20 20 16 14 12 12 15 16 18 17 20 25 24 43 46 46 47 47 45 48 48 53 56 58 64 72 76 80 83 87 88 81 84 75 72 73 74 77 80 65 62
17 19 21 22 19 17 13 12 13 14 16 16 15 20 17 34 39 45 44 43 45 42 45 48 50 53 56 60 66 72 78 80 81 88 82 84 77 71 70 73 81 82 73 65
12 14 16 17 16 17 14 16 16 18 16 22 17 18 17 19 25 31 38 41 43 43 41 45 48 52 54 57 61 66 77 81 84 86 88 85 80 75 74 79 77 76 76 78
16 16 14 13 15 15 15 15 20 20 21 21 14 18 18 15 21 16 29 37 40 42 42 43 48 50 55 57 60 64 73 81 83 84 86 86 83 81 77 76 75 71 74 75
19 22 15 13 15 16 17 14 14 21 16 15 19 20 16 13 12 18 19 26 32 38 39 41 43 49 54 56 60 61 66 76 81 82 83 84 83 79 79 76 69 72 71 72
17 17 14 13 12 12 17 19 11 14 19 16 13 13 14 14 13 16 18 20 26 30 35 38 41 43 50 54 58 61 63 72 77 80 82 84 85 83 77 74 76 73 73 71
20 22 15 14 12 12 14 12 18 14 18 18 14 18 13 18 15 16 18 18 20 21 27 32 37 39 44 49 53 59 63 67 73 76 79 82 83 84 79 80 78 74 73 66
28 19 18 16 16 16 16 16 14 13 14 12 12 10 15 17 20 17 16 16 17 20 22 25 31 36 41 44 47 54 61 66 73 77 78 78 82 83 83 81 81 77 74 70
39 21 20 19 14 11 13 14 15 16 24 15 12 10 11 11 14 17 14 15 17 22 25 25 25 30 35 41 44 48 54 60 67 72 77 79 80 82 84 82 81 79 77 74
36 33 28 22 15 14 16 14 13 12 13 21 15 11 8 12 14 12 13 13 19 24 28 28 25 27 33 36 41 43 50 52 57 68 74 77 80 83 82 83 81 82 82 80
38 36 31 24 22 25 26 17 15 14 17 17 16 12 11 12 15 14 15 17 17 21 25 30 32 34 33 34 38 43 44 49 53 60 69 74 79 79 81 83 82 83 83 84
37 38 37 33 31 28 28 24 21 20 17 19 14 14 13 13 14 13 12 16 18 19 19 24 30 42 44 39 40 44 43 49 51 60 66 71 76 78 80 84 84 84 86 85
38 37 44 36 27 25 28 25 24 22 20 19 16 16 11 13 14 16 13 14 16 19 18 20 25 34 40 42 44 44 45 46 54 60 64 67 74 79 82 85 87 88 87 88
46 42 43 36 31 30 31 24 22 20 18 17 20 15 12 13 14 16 16 17 18 17 17 20 22 29 38 39 42 44 47 50 57 61 64 65 74 80 83 85 88 88 88 88
50 51 39 33 35 41 20 19 24 23 18 15 15 14 13 14 16 17 16 15 18 18 17 21 16 23 36 34 32 41 46 54 61 63 66 68 73 79 82 84 86 88 88 89
48 46 34 31 32 27 24 21 40 46 24 31 43 21 14 12 12 19 15 16 18 17 19 20 17 18 32 37 37 45 48 56 62 64 68 70 73 76 80 85 85 86 87 88
41 50 45 36 30 32 25 24 41 52 39 56 65 60 49 16 16 14 16 15 14 15 17 20 21 27 34 36 35 45 47 54 62 63 66 70 75 76 79 83 85 86 86 86
61 57 57 47 44 28 22 37 60 61 36 64 65 70 72 65 22 24 33 31 45 45 29 25 35 41 48 50 40 48 46 55 55 59 65 72 77 80 80 84 86 88 88 84
52 65 68 50 47 47 23 29 38 62 65 67 68 74 83 74 66 38 49 59 64 63 57 50 57 63 65 58 54 54 58 58 63 65 69 76 79 80 79 85 88 90 90 90
57 44 59 41 33 30 34 48 56 68 72 70 73 73 81 82 64 58 66 67 65 62 65 68 68 71 72 68 63 66 74 66 65 69 72 76 79 83 80 86 87 91 92 89
51 54 65 49 34 37 36 39 43 63 70 68 72 84 82 81 76 70 67 61 57 54 53 51 52 59 68 70 72 74 76 85 74 68 72 75 78 83 84 80 82 86 86 89
62 60 59 59 53 50 39 36 46 63 63 73 76 79 76 74 70 65 68 69 65 64 64 65 68 69 75 77 77 76 77 74 65 72 76 73 71 78 78 82 77 82 81 82
59 66 71 55 49 66 64 58 60 61 69 76 82 82 88 82 89 88 91 91 88 88 87 86 85 87 89 80 83 87 92 87 79 72 64 59 59 61 68 70 88 82 80 82

GFSCGP_925_rhum_024.txt.gz
RH
15 15 16 12 12 12 11 13 14 12 12 14 15 14 14 19 26 26 33 36 37 37 36 40 45 46 50 54 62 69 70 73 77 74 70 63 57 57 57 56 63 72 77 80
16 18 11 10 9 11 12 12 13 12 11 12 13 14 13 16 25 26 30 34 35 34 35 38 43 45 46 52 59 68 72 75 82 72 65 57 54 53 55 56 63 73 76 81
14 12 10 10 12 13 12 13 12 13 12 11 13 15 14 11 15 22 24 28 30 34 35 37 40 42 44 49 59 65 73 74 80 67 68 66 60 59 58 58 64 70 77 78
12 10 12 12 13 12 13 10 10 11 13 18 12 19 15 13 15 18 22 25 28 31 32 34 37 40 42 46 55 63 71 76 79 77 63 64 59 57 55 59 56 60 75 74
14 12 13 14 14 11 11 6 8 10 11 13 14 16 15 13 15 14 18 20 26 27 30 33 35 37 38 44 51 59 69 76 74 80 65 67 64 57 56 55 55 66 69 77
11 8 10 12 11 11 10 9 8 10 10 16 15 16 16 14 15 14 16 20 25 27 28 31 33 34 37 41 49 55 67 78 79 79 82 72 67 62 55 58 56 60 63 66
12 11 10 10 13 11 12 12 15 14 13 15 12 14 15 11 10 12 12 14 22 26 28 29 34 35 36 40 46 53 62 75 77 76 77 79 75 73 66 64 64 57 56 55
15 16 11 10 12 13 14 11 11 16 11 10 11 15 13 10 10 10 10 10 16 24 26 27 31 35 38 40 46 50 58 71 76 75 78 81 80 72 70 67 59 62 54 53
14 14 9 10 10 10 14 14 8 8 10 10 8 10 9 9 10 10 10 10 11 20 25 27 27 32 37 41 46 51 57 70 71 70 77 80 80 77 62 63 68 62 60 54
14 16 10 10 9 9 10 10 11 9 15 15 9 10 11 11 12 11 11 10 10 15 22 23 26 27 32 38 43 50 56 64 68 67 72 73 74 79 75 70 70 66 60 65
16 14 13 11 12 12 11 12 10 9 9 11 11 8 7 9 11 11 10 10 10 13 16 19 22 25 28 32 39 45 52 57 61 64 68 69 69 70 76 74 74 75 68 67
18 16 18 14 10 9 9 11 11 12 16 11 10 7 6 7 7 10 9 10 9 10 12 14 15 19 25 29 34 38 44 50 56 58 67 70 70 70 69 78 75 76 75 72
23 20 20 17 13 11 12 11 10 10 9 16 13 8 7 10 11 11 11 10 11 12 16 16 15 16 21 26 32 34 38 42 46 56 60 64 66 70 70 75 76 76 78 77
34 22 20 18 17 14 15 12 11 11 13 12 12 10 9 8 10 10 9 9 10 13 15 15 16 16 19 23 30 36 34 35 39 44 53 59 67 69 71 73 77 76 79 80
26 29 27 21 22 19 14 13 12 13 13 14 10 11 10 9 9 10 9 10 9 11 13 14 19 21 25 24 30 38 37 34 36 43 46 56 65 70 71 72 77 78 79 81
24 32 30 28 22 21 20 18 15 13 12 13 12 12 9 8 10 11 10 11 11 10 10 9 11 20 23 26 30 32 38 36 40 42 48 52 64 71 73 75 79 80 80 81
32 28 33 30 22 22 26 20 18 17 15 15 17 14 12 12 12 12 11 10 10 11 11 11 11 13 17 17 25 31 36 39 41 48 52 56 64 72 75 76 80 82 82 81
36 33 28 27 29 39 19 13 15 17 15 14 14 14 13 12 12 12 10 10 10 9 10 11 9 8 9 14 13 24 32 44 45 53 56 60 66 71 74 78 80 83 82 81
27 33 28 31 30 22 18 17 18 20 18 13 14 15 13 12 11 12 10 9 11 12 11 11 9 10 12 14 16 21 33 41 47 54 59 62 65 68 71 78 81 82 82 83
24 34 32 26 32 31 19 14 22 21 30 18 28 26 28 30 24 14 10 8 9 9 11 12 11 12 14 19 20 25 31 37 49 53 56 61 65 67 72 76 80 81 82 81
26 35 39 30 29 22 15 24 34 37 48 40 37 38 43 46 34 36 38 30 24 20 19 17 18 18 19 25 26 26 31 36 44 50 52 58 65 69 70 74 79 80 80 71
30 32 30 29 31 32 14 18 31 46 47 42 42 45 51 51 54 53 49 45 34 27 25 31 26 25 32 40 38 35 43 40 46 48 52 58 66 67 64 76 79 79 78 82
34 26 27 26 24 21 17 22 25 28 34 43 40 38 46 53 58 56 50 44 37 36 38 38 32 41 49 52 47 47 49 49 51 54 56 60 65 69 67 74 79 77 81 72
34 28 36 31 25 28 27 24 24 27 33 31 35 35 44 51 59 62 51 46 47 46 47 46 48 50 60 63 60 65 66 63 62 64 65 66 68 71 71 68 69 69 64 71
33 37 42 44 36 28 25 28 29 29 33 38 36 42 53 60 70 57 51 54 51 51 53 53 52 56 62 64 65 64 66 63 63 64 62 64 63 68 66 71 60 60 60 57
42 45 46 42 30 33 33 28 41 44 45 43 41 48 56 82 76 73 79 81 75 74 74 77 79 75 66 67 72 77 79 74 64 55 47 43 42 43 51 54 61 67 66 67

GFSCGP_925_rhum_027.txt.gz
RH
21 24 26 17 19 16 12 12 12 11 10 12 14 16 13 14 17 18 24 27 28 28 26 29 34 35 38 42 49 56 59 61 64 65 63 56 53 52 48 46 47 54 64 72
18 23 15 13 10 13 13 13 12 10 9 11 13 15 11 12 14 17 20 25 27 27 27 28 32 34 37 40 47 57 62 67 70 65 61 54 51 46 48 48 51 60 68 71
14 11 10 8 8 9 11 11 11 11 10 10 12 15 14 11 12 16 17 21 23 26 28 30 31 33 35 40 48 58 66 69 72 64 63 59 52 49 49 49 51 60 67 67
14 8 9 9 9 8 9 7 9 10 11 15 12 19 15 12 12 16 17 20 22 23 26 29 30 33 34 38 46 56 68 71 74 74 59 58 53 48 45 48 48 53 65 65
16 10 10 11 9 7 8 6 8 9 11 12 13 16 14 12 13 12 13 16 19 20 23 27 30 31 32 35 42 52 67 73 70 76 65 60 57 46 46 45 48 52 61 66
10 7 7 9 8 7 7 8 7 8 8 14 13 14 15 12 12 11 11 12 15 17 21 24 27 29 30 32 38 47 64 75 76 77 74 66 58 49 46 48 48 51 53 64
11 10 8 7 9 8 9 9 12 11 10 13 10 12 13 10 9 10 10 11 12 14 19 24 27 28 30 32 36 44 61 75 79 77 77 74 66 62 58 55 50 46 47 47
13 14 10 8 9 10 11 9 10 15 11 8 8 13 11 9 8 8 9 9 12 14 17 21 25 28 30 32 38 43 55 72 78 77 77 79 73 64 61 57 48 50 44 44
12 13 8 8 7 8 11 11 7 7 6 7 6 7 7 7 8 9 9 9 10 13 16 21 22 26 30 31 38 44 51 66 75 75 77 79 81 71 59 57 59 56 53 44
12 14 9 8 8 8 9 8 10 8 13 12 8 9 9 10 10 9 10 10 9 10 15 18 21 24 28 31 35 42 49 62 70 70 75 78 79 80 69 64 64 60 55 55
12 12 12 9 10 11 10 11 9 7 7 10 12 8 6 8 9 10 9 9 9 9 13 17 20 21 26 29 32 38 46 54 65 68 69 70 74 74 78 70 68 67 65 62
12 14 18 11 8 8 8 10 10 12 15 8 8 8 6 5 6 8 9 9 8 8 11 16 17 19 21 26 30 34 39 45 57 61 66 69 68 70 72 76 69 69 69 68
16 18 21 16 10 9 10 9 8 9 8 12 10 9 7 7 7 8 8 8 9 9 10 12 15 17 18 21 26 29 35 39 43 54 59 65 68 68 66 72 74 71 73 72
32 22 21 18 14 11 13 9 8 9 11 10 10 8 9 9 10 10 10 9 9 10 12 12 12 12 15 19 24 28 29 33 37 42 48 54 63 65 66 65 72 73 73 75
23 31 21 16 12 10 11 10 9 10 10 11 8 10 8 9 10 10 10 10 10 12 12 13 13 15 16 20 26 30 28 30 32 38 42 49 58 63 66 67 68 74 73 76
21 30 25 22 14 16 16 11 10 9 10 10 9 8 7 8 8 9 9 9 10 10 10 10 12 14 18 19 24 27 34 31 31 35 40 44 53 62 67 69 72 74 76 76
31 26 28 30 21 20 24 16 12 10 9 9 12 10 8 9 10 10 10 10 10 9 9 9 9 9 14 17 19 23 30 35 34 37 41 44 50 60 67 71 73 76 78 77
31 35 30 29 26 35 18 13 12 13 11 10 10 11 10 11 11 10 10 11 11 10 10 9 8 8 9 9 9 18 22 35 39 41 43 47 50 59 67 72 75 76 79 79
21 29 31 31 26 20 17 14 15 16 16 12 12 12 11 11 11 12 10 10 11 10 10 9 8 8 9 9 9 11 20 28 41 45 48 49 53 58 67 73 76 77 79 80
18 22 30 29 31 31 18 14 12 14 21 13 12 12 13 13 17 17 25 25 20 12 12 12 9 9 10 11 12 12 15 23 39 45 48 54 56 60 66 72 74 77 78 80
23 26 30 30 32 22 17 19 16 28 51 33 17 19 21 26 29 37 35 35 32 31 27 21 21 20 16 16 16 20 19 22 30 39 46 55 60 64 68 70 74 78 80 73
27 27 30 28 31 33 13 14 29 40 36 39 38 36 38 38 38 37 37 40 38 34 28 21 22 25 24 21 23 30 32 29 33 38 47 54 61 63 63 72 75 78 79 80
30 27 22 23 24 20 18 19 16 20 27 29 34 31 31 30 35 36 41 46 42 34 33 31 30 27 31 40 42 38 41 38 40 47 53 56 61 65 63 68 75 75 78 71
30 24 24 26 23 21 20 18 19 20 22 23 24 24 30 32 38 41 44 44 39 37 41 37 38 38 47 56 50 50 59 53 49 52 55 57 60 64 66 63 64 65 60 61
28 26 27 26 24 23 22 22 20 20 20 24 27 34 34 32 38 50 50 53 47 45 45 47 47 52 59 64 64 64 66 66 61 61 60 61 60 64 65 67 55 55 57 54
27 30 35 34 26 27 28 23 22 22 26 31 34 34 32 34 41 56 59 58 63 70 77 77 68 60 61 67 75 72 71 66 57 60 57 51 47 51 59 54 62 60 59 61

GFSCGP_925_rhum_030.txt.gz
RH
20 22 21 18 17 17 17 16 14 12 12 14 13 15 17 24 54 41 27 29 28 29 28 31 32 32 36 42 50 50 53 55 66 67 70 66 60 56 53 48 46 54 63 71
23 25 18 15 15 17 17 16 13 10 9 10 13 13 14 25 46 43 29 42 28 26 27 31 32 32 34 42 52 54 56 57 65 67 69 63 58 54 53 48 48 57 59 69
24 20 16 16 17 15 17 17 14 12 9 9 13 14 14 17 16 18 20 28 24 26 27 30 33 32 34 43 51 60 60 65 68 67 67 61 57 52 50 49 50 52 61 66
22 15 16 17 16 14 16 13 12 12 12 13 10 17 18 14 14 15 16 21 22 25 26 29 32 33 35 40 50 61 65 68 72 66 65 64 60 56 52 50 51 55 58 69
22 17 14 14 14 10 10 7 10 10 11 11 11 14 13 14 15 14 16 19 30 23 25 29 30 33 33 38 49 61 69 70 76 69 69 63 62 56 50 50 50 50 58 62
17 14 11 9 8 7 6 6 7 7 9 15 12 13 15 14 16 12 14 14 19 21 23 29 29 32 33 37 46 56 71 73 74 78 66 70 63 56 52 48 50 58 66 64
16 16 12 8 9 7 7 8 12 13 13 14 11 13 14 11 13 12 11 12 14 19 21 28 33 32 34 36 44 52 71 78 77 79 75 72 68 56 56 50 49 55 56 67
17 18 13 8 8 10 8 8 12 20 14 11 9 13 12 9 8 10 10 10 12 15 18 24 31 32 34 35 41 49 67 76 79 76 81 72 79 68 55 62 53 50 52 53
15 15 10 8 7 8 10 11 7 9 8 9 7 8 7 8 8 9 8 10 11 13 14 22 27 31 34 34 39 46 60 74 79 79 80 82 75 74 64 59 57 56 48 48
13 15 9 9 8 7 8 8 11 9 17 15 9 11 10 11 11 10 10 9 10 12 14 20 25 29 32 33 37 42 53 70 77 79 78 82 81 77 69 57 60 57 56 47
10 12 11 9 11 10 9 10 10 8 9 12 13 8 7 12 11 11 10 10 10 12 15 18 23 26 31 32 35 40 46 61 72 76 79 78 81 80 74 70 62 64 54 61
11 11 15 13 8 8 8 10 11 13 18 10 11 9 6 8 9 9 9 10 10 11 16 16 20 24 28 31 33 38 44 51 66 73 76 78 78 80 81 73 68 67 69 55
26 19 20 18 11 9 10 9 10 10 9 16 12 9 7 8 9 10 10 11 12 14 14 16 19 22 26 29 32 34 40 45 55 67 73 74 76 78 77 80 72 69 70 72
29 28 23 20 17 11 13 10 9 10 13 12 10 11 10 9 8 10 12 12 12 16 16 18 18 23 24 27 32 33 36 39 44 56 64 69 72 74 75 74 78 73 72 74
23 32 23 16 13 11 10 10 10 11 11 14 10 9 12 12 12 11 11 14 13 15 16 19 18 27 30 29 32 33 33 36 38 44 56 62 67 70 71 73 73 78 75 73
27 33 27 25 16 15 15 10 10 9 9 9 9 8 10 12 13 13 15 14 15 16 14 15 17 18 22 30 33 33 33 34 36 40 44 52 59 65 70 70 72 74 79 78
33 34 34 34 24 20 20 13 10 9 8 8 11 10 10 13 13 14 13 12 12 11 10 12 14 18 21 20 29 34 33 32 35 40 44 46 53 60 66 70 71 74 76 79
30 35 36 36 29 38 19 12 12 10 8 8 9 10 11 13 13 13 12 11 11 10 12 15 10 15 13 13 16 23 33 35 36 38 41 48 50 59 63 69 72 74 76 78
20 28 35 37 33 25 20 16 14 14 12 8 9 9 11 11 11 14 11 10 11 14 15 15 11 10 11 13 14 21 25 38 42 42 44 44 52 56 64 69 74 75 77 79
18 23 32 35 36 35 21 14 11 11 18 27 15 12 12 11 15 32 36 32 31 29 30 31 26 22 14 15 11 14 26 34 43 43 45 47 48 55 59 67 72 76 78 79
25 28 30 32 36 27 32 18 12 22 55 40 32 22 19 28 40 38 33 35 36 35 32 28 28 29 28 27 22 29 21 26 37 42 44 48 52 54 59 62 71 76 79 79
26 32 32 29 34 44 22 23 37 46 36 34 36 34 36 34 32 33 35 39 41 40 34 28 28 26 25 27 25 30 34 27 29 30 44 50 54 60 60 65 72 77 79 81
33 28 28 26 26 32 23 23 21 21 27 27 30 27 27 31 32 36 41 44 48 41 37 37 38 36 34 34 43 49 46 42 37 42 48 51 58 65 60 68 74 78 80 81
42 29 30 30 26 26 20 18 18 20 21 25 22 24 32 36 33 35 43 48 56 49 47 42 44 43 59 62 61 56 57 49 49 52 55 57 63 68 68 68 74 75 75 77
29 30 36 34 25 23 21 21 20 20 21 22 22 24 31 34 35 36 42 54 56 61 70 68 60 52 60 66 67 67 67 68 59 56 59 62 62 65 70 70 64 71 69 64
27 29 31 34 31 38 37 27 20 22 22 22 24 26 32 31 37 37 49 61 64 63 65 70 67 59 72 80 80 73 72 68 63 65 63 60 58 60 64 66 69 63 62 66

GFSCGP_925_rhum_033.txt.gz
RH
24 27 25 21 20 20 26 28 25 19 16 20 21 20 32 52 68 63 73 71 41 38 35 35 36 38 41 45 49 50 56 57 55 58 62 61 56 59 57 51 56 49 51 56
28 32 22 18 17 19 21 26 26 18 14 18 19 18 36 52 56 64 66 58 48 37 36 37 35 37 43 50 50 47 56 60 59 61 60 67 66 58 58 49 55 50 56 63
30 26 21 21 19 19 20 23 23 22 15 12 16 20 46 40 40 45 49 50 47 35 36 38 36 36 44 54 52 51 48 59 58 61 60 62 67 62 59 53 51 60 56 64
26 22 23 24 22 19 23 18 19 19 20 22 12 27 26 35 40 46 47 57 47 40 33 37 36 37 43 55 54 52 52 56 63 62 72 68 65 69 62 54 49 62 59 60
26 26 26 26 22 18 21 16 16 18 20 20 17 23 20 27 39 47 51 48 55 55 36 37 37 36 39 53 60 59 57 60 69 68 69 65 70 64 59 55 50 51 54 56
20 19 22 22 17 17 16 18 15 17 19 22 16 20 22 21 23 32 35 44 48 31 30 40 35 35 37 51 61 66 63 69 67 66 68 68 71 63 60 55 51 53 55 55
19 19 20 16 20 16 16 18 22 20 21 21 14 19 18 16 18 17 27 39 36 38 31 42 37 37 38 51 58 70 73 78 76 68 67 68 67 64 58 55 53 52 60 58
26 25 19 17 16 15 15 14 20 25 21 17 12 16 15 13 13 14 16 29 33 44 41 35 35 36 37 43 56 70 75 77 82 79 70 64 74 68 60 57 52 50 57 60
24 23 15 15 13 12 13 14 10 14 16 19 14 11 10 8 10 10 15 15 28 33 30 32 34 35 36 42 52 63 78 77 81 83 81 71 69 79 67 55 60 60 57 56
15 22 16 14 15 11 12 10 14 12 22 22 16 13 12 10 9 10 14 14 18 29 30 32 33 34 37 38 48 56 77 78 80 81 83 79 69 70 79 66 54 63 54 54
36 18 15 14 18 19 12 14 11 13 18 25 28 18 9 9 10 13 11 16 13 19 28 33 34 34 37 37 46 54 66 79 83 83 80 83 81 76 82 78 62 52 61 58
39 41 19 17 13 11 11 11 12 15 19 17 17 16 14 13 9 10 10 14 16 16 26 32 34 34 37 37 42 50 58 75 80 82 82 83 86 84 78 83 74 52 58 56
58 48 29 19 15 12 12 10 11 14 20 21 21 22 12 17 9 13 12 13 17 22 25 29 32 34 37 36 38 44 51 65 75 80 83 84 84 88 88 79 77 74 55 55
50 46 46 31 19 17 14 12 10 14 16 15 19 15 14 17 20 19 17 20 18 27 24 27 30 33 35 36 36 41 45 52 68 75 80 84 85 84 86 87 81 74 75 68
50 51 41 32 22 19 16 12 12 12 15 16 14 18 16 16 23 25 25 21 22 26 27 25 29 32 35 36 36 38 42 46 50 69 74 79 81 83 83 85 88 86 74 75
40 51 44 43 24 20 19 12 11 11 12 14 13 14 18 21 26 23 24 24 22 28 31 29 28 31 33 35 38 39 40 43 46 55 67 72 77 79 82 82 84 87 89 79
45 40 52 50 31 26 29 22 12 12 11 12 17 15 18 23 21 21 23 20 19 19 18 24 28 36 42 37 38 40 40 42 44 48 56 65 71 77 78 81 82 83 84 87
46 38 49 58 41 47 30 21 18 12 13 10 10 18 21 25 32 32 24 21 19 21 25 25 22 20 18 31 39 39 40 43 44 46 52 54 67 74 77 79 81 81 81 83
33 36 51 58 46 34 26 26 27 17 47 45 42 19 21 35 45 51 45 46 50 48 47 47 37 36 26 16 22 40 44 46 51 47 52 55 62 68 73 77 79 80 80 81
28 29 44 48 58 49 43 32 29 23 70 43 44 40 22 40 67 64 52 50 52 52 46 44 32 29 33 29 24 36 44 42 45 50 55 56 55 61 68 72 75 76 79 79
35 37 41 41 48 64 35 31 40 51 70 41 37 42 48 56 60 55 51 56 58 56 50 34 32 34 30 31 26 31 37 49 40 37 38 43 47 54 63 68 72 77 78 80
45 50 45 40 50 81 36 30 55 53 36 38 40 40 48 47 49 58 60 63 64 68 53 48 53 51 36 28 26 38 45 37 37 42 47 45 44 48 57 65 75 79 83 84
71 67 76 52 66 41 48 41 29 30 35 36 40 34 46 46 46 50 65 66 63 70 77 73 68 64 76 71 61 59 61 48 45 38 41 46 47 50 56 62 71 84 85 86
39 42 51 51 39 37 34 28 28 30 30 29 31 34 44 49 45 45 48 68 70 69 70 73 79 78 78 69 70 70 68 65 60 46 60 58 58 60 62 63 70 80 87 90
44 42 43 42 46 48 42 51 47 35 32 28 30 32 41 46 51 48 51 80 73 71 72 76 77 82 84 78 76 73 72 68 68 62 68 64 63 68 69 67 77 74 72 73
43 53 62 68 54 67 60 53 50 47 41 42 42 34 35 43 47 45 46 72 81 83 73 77 81 79 82 74 69 67 72 70 70 73 64 66 67 71 70 71 82 73 81 80

GFSCGP_925_rhum_036.txt.gz
RH
25 25 29 24 23 23 28 33 36 28 22 21 26 40 59 53 55 62 67 64 59 56 50 52 53 51 50 52 52 56 56 56 59 55 53 54 50 50 54 59 59 57 50 54
35 32 22 23 20 22 24 28 33 28 24 23 26 41 49 52 54 56 59 59 56 52 50 48 52 52 50 53 57 60 58 53 55 52 49 52 49 48 52 60 57 56 54 49
33 30 24 24 24 23 24 27 27 32 25 20 20 45 41 45 50 51 52 49 50 45 44 48 48 50 49 57 61 62 60 54 55 51 52 54 50 49 53 61 56 57 57 54
26 25 24 28 25 21 28 20 21 23 27 34 18 44 61 55 56 51 46 49 52 46 40 42 43 48 46 57 58 63 62 58 58 55 58 59 62 71 61 60 58 54 59 61
22 23 29 28 27 23 24 19 20 21 27 27 25 26 64 56 62 56 49 48 44 48 40 41 38 42 45 54 59 64 64 63 62 61 58 57 67 70 68 64 59 56 60 63
16 20 23 26 22 23 20 22 23 23 27 37 26 24 26 64 55 47 40 43 39 45 39 36 37 37 45 51 58 63 70 68 65 64 64 59 64 65 66 66 63 56 62 63
21 18 18 23 28 24 24 31 39 38 34 34 22 24 20 39 38 40 40 39 41 42 38 37 40 38 42 53 57 62 68 80 72 69 69 63 62 62 59 65 61 56 62 65
28 28 19 18 28 30 28 27 41 48 37 28 19 23 19 15 26 26 35 35 41 42 40 37 38 37 39 54 58 59 66 71 76 70 72 70 67 62 61 64 62 57 54 57
33 24 16 16 19 24 26 30 21 21 20 22 18 13 10 11 11 22 37 40 42 42 42 36 37 37 39 52 59 61 64 65 77 75 76 80 74 70 66 64 60 58 54 55
61 48 16 16 17 19 21 17 22 23 24 26 22 18 13 11 10 13 32 38 41 43 36 33 36 38 37 47 56 63 66 64 74 76 74 76 78 71 68 69 64 59 59 57
60 65 28 16 20 22 23 18 16 18 23 23 26 16 12 12 14 10 27 29 37 39 35 34 35 36 37 41 52 65 70 68 75 80 79 76 76 75 82 73 67 61 60 63
61 79 83 28 15 15 18 18 15 16 21 25 25 16 12 10 10 10 12 34 35 34 34 34 34 35 37 39 48 61 72 73 74 80 82 83 81 78 77 82 77 68 60 56
90 84 96 35 20 16 16 20 14 18 18 20 18 15 12 12 15 15 10 15 28 31 31 32 34 36 37 38 45 56 68 75 76 78 81 84 85 85 79 77 83 79 71 63
85 87 90 73 39 34 19 17 16 13 18 16 16 15 14 14 15 16 10 17 22 25 32 32 35 35 37 38 41 51 57 74 76 80 82 82 86 87 83 78 77 84 80 73
84 83 58 50 40 40 38 19 17 16 14 16 14 15 15 17 26 22 19 22 26 30 32 32 36 37 39 39 39 49 53 64 74 80 82 84 82 84 86 87 82 77 80 77
64 70 56 51 40 37 27 21 21 13 13 16 17 16 13 15 28 28 31 30 29 32 32 34 35 36 40 40 40 46 50 58 70 76 80 80 86 84 86 88 91 86 82 79
63 63 69 71 47 30 33 34 24 13 13 13 20 16 21 32 51 55 24 23 34 34 33 35 35 35 38 39 39 44 46 51 64 72 74 79 82 87 88 86 90 93 92 88
58 65 64 69 54 49 40 32 36 46 47 46 54 43 47 60 59 61 59 44 40 38 36 35 40 41 40 38 39 40 44 47 52 60 70 74 80 83 86 89 88 91 90 94
44 52 66 64 61 40 49 48 39 46 58 45 51 46 52 50 52 62 61 65 61 54 53 51 44 34 37 36 39 40 43 46 49 52 55 68 74 80 84 86 88 87 89 88
59 41 53 55 68 75 64 45 36 41 68 42 51 62 52 37 81 81 71 76 78 63 54 50 36 40 34 33 41 43 44 46 48 49 53 56 67 72 78 82 82 84 84 85
82 52 47 53 74 71 53 46 32 71 66 42 50 53 62 80 77 72 67 72 80 78 73 64 67 65 41 33 37 49 49 48 48 50 49 53 56 62 70 75 79 80 84 83
98 96 85 74 90 98 62 57 61 48 38 36 46 55 52 48 50 66 71 72 74 79 82 84 88 87 83 52 46 67 67 54 48 51 54 56 58 61 66 70 75 78 79 83
95 92 97 92 93 72 81 87 53 49 44 44 40 50 49 48 45 45 81 73 70 74 77 81 88 88 83 76 74 81 78 68 53 54 53 50 55 61 64 69 74 80 82 81
61 46 78 62 70 60 79 77 62 50 52 41 41 35 49 50 46 44 47 82 75 76 81 83 84 95 94 78 72 73 71 70 70 64 54 53 55 60 64 68 74 82 90 91
60 60 72 60 63 56 59 54 61 53 47 46 43 47 51 45 44 46 50 59 85 84 86 85 90 91 88 76 69 66 68 70 71 70 72 66 67 69 74 81 84 86 81 82
66 86 93 86 73 86 71 54 55 58 51 51 54 50 52 50 49 62 66 69 90 91 89 91 91 90 87 77 70 66 68 75 76 74 76 79 78 80 80 84 95 98 90 88

GFSCGP_925_rhum_039.txt.gz
RH
26 26 26 20 25 25 30 36 38 34 29 34 43 42 73 69 70 74 74 70 65 63 58 60 59 58 58 59 56 58 60 59 64 64 62 66 64 57 60 63 62 60 69 76
33 30 20 19 23 26 26 29 35 30 26 27 31 40 64 69 70 70 72 69 65 60 58 56 57 58 56 59 57 57 56 58 59 63 60 66 58 54 54 59 60 58 66 70
34 31 21 24 23 27 26 27 29 32 28 26 33 48 45 66 63 65 65 62 62 59 60 58 55 55 56 58 59 58 56 58 56 61 66 65 56 52 54 56 60 60 60 58
32 24 26 25 29 24 31 22 23 26 29 40 26 68 76 69 70 64 67 66 61 58 54 55 55 54 53 54 60 59 57 59 59 64 65 65 56 57 51 51 56 59 57 58
27 28 28 29 26 25 28 23 25 25 29 31 29 36 65 62 76 66 60 59 57 57 52 53 51 53 53 52 60 61 59 61 62 63 64 62 59 55 52 51 53 62 56 58
23 17 22 23 24 24 23 24 25 26 34 39 30 34 35 58 62 61 56 54 52 50 48 47 48 49 52 52 60 63 65 64 63 63 62 58 59 59 56 57 55 61 62 58
34 22 22 21 27 26 28 34 49 48 48 41 29 35 28 42 46 48 51 49 46 45 48 44 48 49 51 52 59 63 68 69 67 64 64 60 57 56 50 55 57 61 64 63
79 39 25 17 28 30 32 35 56 61 52 39 30 38 28 26 37 39 41 41 39 41 45 44 43 44 48 50 59 61 71 71 72 70 68 65 61 57 56 53 58 63 63 62
92 70 42 18 17 26 36 38 32 35 26 32 30 20 14 17 29 41 40 39 36 37 40 43 40 41 45 50 58 61 69 71 74 73 72 73 68 66 63 58 58 56 63 62
73 94 51 29 16 20 31 28 38 35 42 38 28 20 24 19 21 30 41 40 36 35 37 38 38 39 40 48 56 61 65 69 74 76 75 76 71 67 63 62 61 59 64 62
82 75 67 50 24 21 25 32 31 34 32 34 28 21 17 15 15 16 33 31 34 36 38 39 39 37 39 42 55 58 62 65 73 77 76 76 76 71 69 68 63 62 62 63
75 93 93 72 42 40 18 28 25 33 39 29 29 22 12 13 15 12 17 29 34 38 37 37 38 36 39 40 52 59 60 63 66 75 74 76 76 74 79 73 67 63 64 64
86 97 96 51 28 22 18 23 22 22 28 28 32 27 13 13 12 14 15 25 30 38 39 37 37 37 39 39 48 58 62 64 63 72 75 76 77 81 82 79 76 72 69 65
87 98 95 83 65 55 53 41 23 19 23 23 20 19 14 11 15 16 19 20 24 34 39 39 36 36 38 39 43 54 65 67 65 70 76 80 82 82 77 74 77 81 74 69
95 100 85 74 64 56 50 45 40 25 18 18 16 17 12 12 15 29 32 23 18 27 38 39 36 35 38 40 41 52 62 70 69 73 79 82 84 83 81 80 77 76 76 70
91 92 68 66 46 47 46 39 39 37 16 16 16 17 13 24 50 64 50 26 25 31 34 35 35 35 37 39 41 48 59 71 73 76 78 80 83 86 86 85 83 79 79 78
94 93 78 82 50 45 52 49 47 35 58 39 21 28 29 58 74 80 86 47 21 28 32 33 34 35 36 38 40 47 55 65 75 77 79 81 84 86 87 87 89 87 84 83
67 99 77 84 60 59 54 52 46 54 53 56 66 63 60 76 78 81 83 92 63 33 29 33 32 35 34 37 40 43 53 57 72 77 80 82 86 88 88 91 94 95 93 89
44 97 75 81 63 55 58 61 70 62 64 49 63 70 63 68 61 79 77 87 78 64 59 44 33 35 36 40 42 45 52 56 65 73 77 81 83 87 91 92 91 92 94 96
76 84 98 68 86 84 73 71 52 44 75 38 55 60 82 73 92 90 77 83 95 91 82 61 44 44 43 42 43 48 51 53 59 65 72 76 79 83 87 89 91 87 90 91
100 95 87 74 95 80 71 73 42 73 65 46 44 50 57 80 79 76 74 76 82 91 96 86 66 59 50 45 43 45 48 51 49 54 58 67 71 76 80 84 86 89 90 90
100 100 100 98 99 98 67 71 77 70 54 53 49 48 47 45 51 75 80 77 82 88 90 94 92 94 87 59 53 65 67 61 50 48 51 56 62 72 75 79 81 85 88 91
98 98 100 99 95 76 85 90 66 54 54 54 52 45 46 44 55 67 73 85 86 88 90 93 96 94 90 81 76 82 84 73 56 54 53 52 54 59 63 72 76 85 85 86
74 74 96 77 71 74 71 76 71 63 61 51 51 50 47 49 53 70 82 90 91 93 96 95 95 94 92 76 72 72 70 71 71 73 70 66 67 67 67 68 74 79 83 85
84 76 92 76 69 68 59 64 73 79 65 63 53 53 52 58 71 80 87 92 91 88 92 92 97 98 94 80 77 75 69 61 67 71 74 82 77 77 85 88 89 87 85 84
96 98 99 95 76 82 76 68 68 82 86 71 67 59 56 58 68 74 79 87 86 88 84 94 96 93 90 80 77 76 74 70 69 73 70 75 85 89 96 98 99 100 99 94

GFSCGP_925_rhum_042.txt.gz
RH
28 33 29 24 33 33 34 40 43 37 30 45 48 50 85 78 76 80 78 72 65 64 60 65 68 68 72 73 70 67 60 54 58 67 68 67 65 62 61 56 57 58 61 70
33 35 24 18 20 29 30 29 34 32 28 37 41 48 77 80 78 75 77 75 69 65 62 63 66 65 67 68 67 68 62 57 58 59 62 64 62 64 58 58 60 62 61 68
39 28 21 21 25 25 28 35 30 33 27 28 36 45 76 76 72 70 69 67 67 66 64 63 65 63 62 68 65 65 62 58 56 56 64 69 68 70 64 61 59 61 61 63
37 26 26 23 24 27 35 25 27 26 31 40 33 53 70 82 80 75 73 71 67 64 60 59 62 63 62 63 64 60 59 58 54 55 60 64 67 71 62 57 57 59 61 61
38 33 32 32 22 23 23 23 27 27 34 32 30 40 55 78 91 81 74 69 65 62 59 59 58 59 60 60 64 63 59 60 57 55 56 58 66 65 61 56 55 58 58 58
30 20 24 28 24 20 23 26 31 32 37 43 34 33 41 87 75 73 66 66 63 61 58 56 55 56 57 59 62 65 63 60 60 59 60 60 63 65 61 58 55 53 56 56
58 38 20 18 28 25 30 31 55 53 53 45 34 34 36 34 60 59 62 58 59 59 57 56 56 56 57 57 58 66 67 66 62 62 61 63 61 60 60 55 54 52 54 60
94 49 29 23 26 33 32 35 55 62 57 39 36 45 35 22 40 50 51 50 51 54 54 55 53 53 55 57 57 64 67 67 66 64 64 61 63 60 58 52 53 50 48 54
94 81 50 38 29 24 36 41 33 44 38 48 30 30 20 22 24 44 46 47 50 50 51 52 50 50 52 55 58 63 65 66 68 64 64 68 65 64 59 52 54 51 48 53
76 93 59 47 39 27 31 30 43 49 55 48 40 28 34 25 29 32 41 44 46 46 47 46 48 46 50 51 56 62 63 66 66 65 67 67 68 62 58 54 56 57 52 54
82 94 68 56 51 32 31 38 38 35 45 47 39 33 25 25 22 28 29 44 41 43 42 41 42 43 47 49 53 61 64 67 68 71 71 72 71 69 62 59 57 57 57 56
74 99 95 72 52 50 58 35 41 42 46 42 41 33 15 18 20 20 19 40 42 40 38 37 36 42 43 48 52 59 63 68 69 70 72 71 73 71 69 68 61 60 59 57
84 97 92 78 45 41 45 33 31 33 36 40 44 43 17 15 15 18 17 22 37 41 40 36 35 39 41 45 51 58 63 67 69 74 75 76 77 78 77 72 67 63 61 59
76 97 97 89 62 64 66 52 31 36 34 40 36 33 27 22 16 16 16 18 28 46 44 40 39 42 40 43 52 58 61 64 67 73 76 76 77 79 79 72 71 67 62 61
89 99 89 78 80 75 69 59 49 48 36 34 28 28 25 24 22 22 21 21 21 32 45 47 42 44 45 45 48 59 61 62 65 69 76 76 78 79 76 78 75 70 68 62
91 98 96 94 66 61 61 47 44 42 38 26 19 20 37 19 41 71 82 80 53 33 25 41 43 43 45 44 46 57 63 64 65 67 74 76 79 79 78 76 74 75 75 72
100 100 97 92 56 52 62 51 59 63 67 60 29 42 68 59 93 97 92 91 95 60 28 23 42 42 41 42 44 54 63 67 69 70 73 78 82 85 83 81 80 79 81 80
96 100 99 91 69 71 71 60 51 55 52 60 68 68 77 71 89 89 82 84 90 92 46 30 38 39 37 39 42 47 61 72 74 75 77 81 86 89 90 91 89 88 86 85
75 100 94 94 75 66 61 70 79 80 63 54 56 62 68 79 73 82 75 75 83 94 75 45 36 36 37 39 42 52 64 75 77 79 81 83 85 88 91 93 93 92 94 91
83 95 100 97 95 94 88 72 66 63 79 55 58 53 62 81 94 88 79 80 86 87 92 56 42 38 41 42 45 57 63 73 78 77 80 84 86 86 88 87 88 89 93 95
100 100 97 98 95 95 81 79 58 74 79 59 58 52 54 74 75 77 81 85 86 90 95 78 55 53 49 45 48 57 60 64 69 72 78 78 81 84 85 88 88 90 93 95
100 100 100 100 99 99 81 69 81 72 56 55 58 59 51 62 78 84 81 83 88 93 93 93 95 94 64 50 51 59 60 57 57 63 70 75 80 84 85 84 89 91 94 98
99 100 100 100 100 87 86 86 73 64 64 65 61 58 60 70 77 82 87 81 81 87 92 96 91 92 94 70 59 71 82 64 53 54 60 64 72 77 80 85 89 94 95 96
96 90 99 98 86 86 80 72 64 67 72 63 61 58 58 70 74 76 76 82 79 78 90 96 97 95 96 88 81 82 84 74 61 58 58 58 63 69 78 80 83 88 92 95
97 93 99 95 73 78 70 70 70 69 68 71 66 61 61 60 63 66 68 75 74 74 85 96 99 99 97 88 84 79 72 73 77 80 77 69 70 72 73 76 81 85 86 86
94 98 98 98 84 91 90 78 71 77 74 74 76 70 64 61 65 67 64 72 72 73 80 94 99 100 95 92 92 86 79 70 68 75 80 91 86 90 90 87 95 97 92 86

GFSCGP_925_rhum_045.txt.gz
RH
25 22 26 20 22 18 28 32 24 33 28 34 35 35 53 63 62 61 59 55 52 51 50 56 61 65 71 77 80 83 81 81 82 80 75 70 63 67 67 59 60 58 60 65
24 23 17 16 18 24 21 30 30 28 28 33 34 35 34 60 62 61 58 54 52 49 50 55 60 62 66 74 78 84 81 80 68 75 74 68 69 71 72 67 58 58 59 64
28 22 18 20 18 20 22 21 28 28 24 25 29 33 32 54 56 58 57 52 49 48 49 54 58 61 63 68 77 80 80 78 70 73 78 66 69 68 71 73 70 61 60 61
33 26 22 20 19 17 18 15 21 27 29 32 28 43 34 34 60 61 58 58 54 50 48 49 55 59 60 64 72 76 78 79 73 67 74 69 63 63 66 70 67 55 58 60
31 30 31 30 24 18 18 15 16 16 27 31 29 36 32 39 48 55 56 54 53 52 50 50 51 56 57 62 67 72 77 73 72 76 69 71 67 64 70 70 64 57 58 60
28 26 23 26 22 18 17 18 19 17 16 26 32 33 31 33 44 45 47 51 52 52 51 50 51 54 57 58 65 68 74 73 69 74 75 69 70 68 71 70 68 67 71 66
30 21 20 18 24 22 22 25 31 31 30 21 17 32 30 24 32 33 41 49 50 50 51 50 52 52 57 58 61 68 72 74 73 74 73 73 66 66 68 69 67 63 64 70
42 11 32 37 22 24 26 25 28 35 28 16 16 32 28 21 20 28 31 36 46 49 47 48 49 52 57 60 63 66 72 72 72 72 71 67 63 69 67 68 63 66 62 62
50 46 37 30 35 32 24 31 20 23 31 27 15 17 20 20 20 19 28 35 44 47 47 47 47 50 54 57 61 65 69 74 73 71 73 73 70 69 68 65 66 68 66 66
57 27 36 40 34 26 31 19 33 29 36 33 22 20 18 22 22 21 22 30 37 41 44 44 45 47 51 54 57 62 66 72 73 72 73 75 74 70 69 73 70 65 63 53
50 45 22 29 34 30 26 30 27 26 29 28 26 21 16 17 23 21 22 22 28 36 41 42 44 46 49 50 54 58 62 68 71 73 72 72 75 73 73 76 74 69 54 52
55 78 66 30 21 26 34 51 28 33 41 32 29 21 16 16 16 17 16 19 20 31 36 39 40 44 45 49 51 55 58 60 67 68 71 72 72 74 75 75 76 75 58 52
64 73 47 18 17 26 36 33 39 26 26 37 36 28 16 18 18 18 18 16 27 31 34 37 37 42 44 47 50 52 58 56 58 65 69 70 71 75 75 75 75 77 60 53
58 72 52 35 26 43 58 44 42 36 31 36 32 26 20 20 19 16 17 18 19 30 37 37 37 40 44 47 51 53 55 55 57 61 65 70 73 74 74 76 78 80 60 56
66 71 56 53 47 46 50 51 48 51 34 33 31 30 24 22 22 20 19 17 20 20 28 39 39 43 48 48 52 55 55 58 57 65 66 70 74 75 77 80 81 80 76 63
72 66 60 60 36 45 58 49 46 44 40 31 27 26 29 30 26 23 25 42 43 41 31 31 39 42 45 46 54 56 58 60 62 68 68 70 76 78 80 82 84 85 81 76
79 81 73 54 37 52 59 45 42 40 33 29 28 24 47 45 56 66 66 65 65 64 61 54 33 41 43 44 51 56 60 62 65 69 71 74 79 81 83 84 86 88 85 83
79 93 79 64 58 90 38 40 31 48 56 48 42 52 56 61 66 74 74 78 75 69 66 64 53 33 41 40 43 53 58 65 67 71 73 76 80 82 84 86 88 89 86 88
56 96 84 90 91 83 70 57 46 50 66 58 57 57 61 66 70 68 75 78 83 80 74 70 62 30 37 42 44 54 61 67 68 71 73 77 81 83 84 87 88 87 87 87
65 78 96 93 95 98 88 66 58 55 73 59 58 60 66 62 68 75 81 83 87 83 72 65 49 27 39 44 46 56 62 67 68 69 72 76 81 83 86 87 89 89 88 85
98 100 97 86 92 93 83 68 52 75 77 59 62 66 80 89 86 87 81 81 85 88 78 59 39 42 45 46 49 59 61 67 66 67 72 80 83 85 86 88 90 89 90 83
93 97 98 92 96 97 83 67 71 67 63 65 69 66 77 70 67 68 69 76 81 88 83 70 57 50 51 51 55 60 65 67 71 74 77 83 85 81 82 89 90 90 90 91
100 100 100 100 100 98 81 74 63 64 70 71 68 63 62 59 60 61 63 62 70 85 86 80 72 76 66 59 58 61 68 74 76 79 81 83 85 85 82 90 90 88 91 80
96 95 100 100 96 94 78 70 64 65 69 69 68 61 62 66 61 58 61 63 58 69 91 86 81 84 87 86 84 88 83 74 75 78 80 83 85 85 83 85 83 79 79 80
98 95 100 98 92 87 78 75 79 75 69 68 69 69 65 67 65 59 61 62 66 66 66 90 92 87 90 90 90 89 90 86 73 72 73 77 77 84 83 78 77 77 76 74
97 99 100 100 94 97 91 83 80 79 78 71 74 75 75 68 66 58 58 60 60 63 60 64 83 94 88 88 88 91 92 88 86 81 74 67 65 75 76 91 95 91 90 87

GFSCGP_925_rhum_048.txt.gz
RH
15 19 19 13 13 10 14 13 14 17 19 30 30 27 30 39 37 43 44 46 45 43 40 42 45 45 47 51 57 60 62 64 68 63 57 57 57 58 61 60 69 77 73 78
18 18 12 12 12 14 12 19 21 17 19 26 28 28 23 36 38 40 42 42 42 40 39 41 44 45 47 52 56 62 64 68 73 58 54 52 53 52 55 60 71 73 74 78
18 13 11 12 15 16 15 13 14 20 22 20 27 30 26 26 35 36 37 37 38 37 38 41 43 45 46 51 58 62 67 69 73 54 57 64 61 61 64 64 63 68 74 75
17 12 16 15 16 13 14 10 11 13 20 27 22 33 28 24 34 37 38 37 36 36 36 38 42 45 45 49 57 61 69 71 72 66 54 60 55 51 48 54 53 62 74 73
22 21 20 21 18 13 14 10 10 11 13 20 25 31 25 22 28 35 34 35 34 36 35 36 40 44 44 47 54 61 69 73 66 70 56 58 54 43 46 50 56 62 75 73
19 19 20 18 17 17 15 15 14 13 11 13 19 26 26 22 24 23 28 30 33 34 34 34 38 42 45 46 50 57 67 76 73 69 70 62 51 44 46 53 53 54 56 66
17 19 18 17 20 18 18 19 22 22 17 13 10 17 24 18 17 21 22 26 29 32 35 36 36 40 45 47 49 52 63 75 74 71 72 66 62 58 56 61 56 49 48 50
13 13 15 24 20 20 21 18 22 28 16 12 9 13 14 15 16 16 20 20 25 29 31 35 38 39 43 47 50 52 58 71 73 69 73 76 70 59 58 63 53 52 47 46
17 14 22 21 24 23 21 22 15 18 16 14 9 9 7 10 15 16 17 19 21 27 30 34 36 40 42 46 50 55 58 68 68 66 72 76 73 68 56 56 61 55 55 49
25 16 13 18 18 19 25 15 22 20 31 29 17 15 10 12 17 16 16 17 20 25 30 31 34 38 40 44 47 52 57 64 64 62 65 67 66 69 65 62 63 62 55 63
23 21 16 14 9 11 20 25 23 19 20 25 25 16 10 10 11 16 16 15 16 22 28 30 32 35 39 41 44 50 54 59 64 62 61 61 62 63 68 65 66 70 68 65
27 27 33 17 8 10 14 27 21 24 29 22 22 18 9 11 10 10 13 14 14 17 23 26 28 32 35 39 41 45 49 53 58 58 64 64 62 62 61 69 66 70 73 71
33 32 33 13 10 12 15 14 22 25 25 30 27 23 13 13 14 12 11 11 15 16 19 24 25 29 32 36 39 40 44 46 49 55 59 58 60 61 61 66 68 70 74 74
33 26 32 21 14 16 28 26 21 25 31 28 26 23 18 16 14 14 14 14 12 13 18 20 24 26 31 34 40 41 40 40 42 49 52 56 60 60 61 64 69 68 72 75
40 59 34 28 25 23 21 17 24 36 36 39 26 22 19 18 16 14 14 14 15 16 18 23 24 28 34 38 41 45 42 41 40 46 48 54 61 61 63 66 69 70 71 74
39 55 37 34 26 26 24 17 15 21 29 33 32 31 21 16 17 16 14 15 18 22 20 17 22 26 31 36 43 47 48 44 45 48 51 53 65 67 68 69 74 75 74 75
58 56 51 43 24 20 24 19 20 17 22 29 36 26 19 21 23 21 20 20 28 31 32 33 27 24 27 33 40 45 50 48 49 53 57 58 67 72 73 73 77 77 78 74
54 69 65 45 28 50 24 16 17 19 17 23 27 25 21 26 29 44 50 52 52 49 47 44 37 34 26 27 31 41 46 52 55 59 63 63 70 74 76 77 78 80 76 76
43 68 73 72 51 36 32 28 32 21 21 24 27 24 19 22 30 53 59 63 66 64 62 58 52 45 39 30 28 37 43 52 57 61 66 68 71 74 75 77 78 77 76 76
51 59 87 62 72 69 44 70 64 57 46 44 42 33 24 28 38 34 68 66 67 67 67 67 61 52 47 45 29 32 44 50 59 62 66 69 72 74 75 77 78 79 77 74
73 88 94 74 72 57 41 64 72 99 62 49 54 65 64 39 62 74 67 69 70 78 80 67 58 53 46 43 30 36 45 49 57 59 61 67 72 76 75 79 80 81 78 68
78 87 87 83 87 88 74 91 98 80 66 73 68 64 63 60 57 58 62 67 73 85 81 54 42 37 33 31 36 45 52 52 59 59 61 68 73 70 70 79 80 79 78 79
99 92 100 96 88 86 89 96 91 74 89 80 67 58 51 48 55 58 59 62 62 68 87 72 49 41 41 42 40 50 56 60 61 60 65 69 72 72 67 78 81 79 81 69
98 96 100 100 94 98 87 86 91 88 87 77 66 64 60 60 54 58 59 66 67 70 70 92 84 78 63 52 51 53 59 65 65 66 68 70 74 74 68 74 74 69 66 67
98 97 100 100 96 91 87 87 93 85 82 78 67 70 71 60 56 56 67 70 74 78 76 78 93 89 88 86 85 85 71 71 69 68 68 69 70 76 72 68 69 63 59 58
96 99 100 100 96 96 92 93 88 84 84 82 76 75 72 74 70 64 71 71 70 76 77 78 81 89 85 84 85 84 85 80 68 68 64 60 58 65 65 70 76 80 85 78

GFSCGP_925_rhum_051.txt.gz
RH
18 21 18 16 15 11 8 7 10 10 14 24 29 39 85 26 27 35 37 38 37 36 33 35 36 36 37 40 44 50 52 55 59 59 58 52 49 50 50 52 59 68 62 66
14 16 12 11 10 10 10 10 11 9 13 24 28 33 28 27 27 32 34 36 35 34 33 35 37 36 36 40 44 52 55 61 61 56 55 50 47 46 47 47 60 65 66 69
18 12 10 11 12 12 11 11 11 15 14 17 27 33 28 31 25 28 29 30 32 33 34 35 37 36 36 39 45 52 59 63 65 52 52 51 50 47 48 51 57 62 65 67
13 10 11 12 11 11 13 10 9 10 18 24 20 37 34 30 30 29 29 29 31 30 31 33 35 36 36 38 45 52 60 64 68 61 48 51 50 45 43 45 46 56 63 65
16 12 11 14 11 11 13 9 8 8 10 15 19 27 28 24 45 27 28 28 27 29 29 32 34 36 36 37 44 49 62 66 63 67 50 52 52 44 42 40 52 51 66 64
16 12 12 11 10 11 11 11 11 9 9 13 15 21 22 26 25 27 23 25 26 27 28 28 32 35 36 38 41 48 62 70 70 70 59 56 51 46 38 41 48 50 53 60
11 12 15 14 15 12 14 15 20 20 15 13 8 16 20 15 22 20 20 23 24 25 27 29 31 34 38 38 41 47 60 73 75 72 66 64 58 52 49 49 45 43 41 43
9 11 9 11 15 15 15 15 17 26 18 12 8 11 13 13 13 35 34 22 21 24 24 27 30 33 38 40 43 46 58 72 75 70 68 67 62 50 45 47 45 45 39 38
9 10 12 14 12 14 16 18 12 13 12 13 9 7 5 8 11 13 16 18 24 22 23 26 28 31 35 40 43 46 54 69 73 66 69 71 68 55 44 41 51 53 45 39
13 19 9 10 14 14 19 15 19 16 24 24 15 12 8 7 9 10 15 16 19 21 22 23 26 30 33 37 41 46 50 63 69 64 69 68 71 71 55 53 58 54 49 48
12 17 10 9 15 11 10 15 19 17 15 19 21 14 8 8 7 8 10 13 15 16 20 21 24 28 32 35 38 43 48 54 63 65 65 61 64 65 67 62 61 61 58 56
13 15 16 11 7 4 5 10 10 19 27 18 15 14 8 8 7 7 9 12 12 14 16 20 22 26 30 34 36 40 44 49 57 59 63 64 62 60 62 64 63 64 67 65
19 23 21 19 13 10 9 9 13 14 13 22 20 15 9 9 9 10 9 9 12 13 14 19 21 24 27 32 35 36 40 43 47 57 60 61 59 62 58 64 64 65 68 71
27 24 24 20 18 14 13 8 8 13 19 19 18 17 12 13 13 12 12 9 10 13 15 16 20 22 26 29 35 37 37 38 40 47 50 56 60 60 59 57 65 65 69 72
27 33 27 22 19 17 16 15 14 16 16 18 16 19 18 16 17 14 12 12 12 11 14 15 18 24 31 31 35 39 37 38 37 42 45 51 58 59 59 58 62 67 69 72
27 44 37 38 21 18 17 15 15 13 11 18 22 23 16 17 18 18 17 13 14 15 15 14 17 19 25 30 35 40 40 38 38 41 44 46 56 58 59 60 64 69 70 72
44 42 48 50 26 21 24 18 15 13 11 10 14 17 17 19 19 19 17 14 14 14 16 17 15 18 19 24 33 35 42 40 40 43 46 47 56 61 62 63 66 70 72 72
52 61 70 63 36 47 20 11 10 10 10 10 11 10 12 16 17 18 21 31 34 29 25 27 25 22 19 20 24 32 37 45 44 44 49 50 56 64 66 67 68 72 74 72
34 57 87 81 54 32 20 14 13 46 42 35 37 24 10 12 14 19 18 38 42 43 41 39 38 33 29 23 21 29 35 47 48 49 50 53 56 64 69 71 72 74 74 74
31 40 85 60 65 61 26 17 42 46 55 26 28 29 17 11 17 18 40 46 46 46 46 47 46 44 41 40 29 24 34 39 51 50 53 56 58 63 70 72 74 75 75 74
65 82 96 76 68 51 27 36 44 66 43 43 57 27 14 15 16 19 52 55 56 58 60 62 59 54 50 44 38 31 30 39 46 52 55 60 63 66 71 73 75 76 76 64
70 80 85 76 80 84 60 54 72 52 79 78 74 18 23 28 48 55 60 61 63 66 66 69 64 47 46 47 45 43 37 38 45 53 56 61 67 66 67 75 78 78 77 76
97 85 99 87 70 74 71 84 73 82 91 87 80 46 43 50 54 59 66 66 69 74 74 79 77 46 34 38 46 48 41 44 49 55 60 62 69 72 63 76 80 78 78 66
94 92 100 100 85 87 80 85 88 87 93 91 84 59 45 54 55 66 68 70 76 78 82 86 91 72 76 53 40 42 49 50 57 62 64 65 71 72 68 70 73 66 63 65
97 97 100 100 94 95 88 84 84 85 87 90 81 76 68 58 62 70 71 74 78 83 88 87 95 94 95 92 85 58 54 58 62 65 65 67 67 70 70 63 62 60 63 58
91 99 100 100 96 98 92 87 90 90 91 89 89 82 79 76 77 72 83 83 85 87 88 89 88 93 96 96 98 98 89 65 62 64 65 63 56 66 66 76 76 70 74 74

GFSCGP_925_rhum_057.txt.gz
RH
29 38 38 28 24 21 20 20 17 12 10 28 46 78 86 78 70 79 80 57 50 48 41 35 33 39 49 45 41 49 57 55 55 58 58 61 63 58 58 62 66 61 68 64
31 39 29 22 21 20 19 20 19 15 10 14 47 63 66 74 69 78 89 56 49 44 42 36 33 43 51 50 43 48 51 57 60 61 56 62 58 57 56 60 62 65 63 62
30 24 21 21 22 17 18 21 19 17 12 23 54 66 65 57 56 72 84 70 52 42 41 38 36 40 50 57 47 50 55 57 56 60 54 60 54 53 54 64 64 64 66 66
24 19 17 20 20 17 21 14 13 12 14 21 44 76 70 63 71 76 78 82 68 46 38 40 37 40 45 54 52 48 59 59 59 55 55 62 62 63 58 56 64 66 62 59
20 17 20 20 15 12 15 13 13 14 15 16 14 19 65 59 87 76 80 70 58 63 38 38 36 36 45 54 54 52 57 59 59 62 54 58 58 53 53 56 63 60 60 61
13 10 14 17 14 12 11 12 14 15 19 24 16 16 24 68 72 76 62 61 55 57 38 37 36 37 46 54 56 59 61 63 58 57 58 56 55 53 55 56 57 59 64 63
15 14 12 11 15 12 12 16 28 30 27 27 15 15 15 53 53 63 61 60 55 52 39 39 39 38 41 53 57 64 67 75 62 57 61 56 52 52 50 51 59 61 62 65
16 16 9 10 16 20 16 17 31 34 33 24 17 21 18 9 44 49 46 54 62 56 61 38 39 37 40 51 57 63 67 71 76 62 55 63 52 48 52 58 63 60 62 59
24 19 13 10 11 16 20 25 14 21 19 26 20 16 13 11 27 47 46 48 57 60 71 70 42 38 39 47 54 60 69 69 78 72 57 59 64 48 49 51 56 56 57 57
22 27 16 11 10 14 18 16 26 23 32 36 26 24 24 16 11 41 48 50 63 66 73 76 77 56 41 40 50 56 69 71 76 77 70 61 63 57 46 47 50 52 42 46
20 22 22 14 14 14 17 21 20 24 32 37 32 25 16 19 24 40 45 45 56 57 71 86 75 69 68 41 43 53 69 73 75 76 80 71 67 66 57 51 46 47 48 50
24 26 31 21 14 12 13 15 18 28 30 34 39 34 17 21 30 30 37 36 55 62 72 72 65 69 77 53 40 47 58 74 76 78 75 80 71 68 67 59 45 45 44 48
30 37 41 29 16 15 18 14 12 13 13 16 23 29 26 24 25 28 33 32 44 61 75 62 66 66 69 56 43 43 49 68 74 77 77 79 80 71 70 63 54 41 40 43
29 32 38 46 38 29 29 23 19 18 16 17 17 17 11 26 26 23 28 27 40 60 67 61 60 61 54 52 52 42 45 54 70 76 80 78 78 78 69 66 57 58 50 49
35 42 38 32 27 25 26 24 21 22 22 24 16 16 27 24 23 23 20 20 24 31 71 68 64 56 77 60 57 53 43 46 57 71 77 78 78 75 77 71 68 52 65 53
40 57 38 40 29 28 31 28 26 24 19 17 17 14 12 15 14 15 14 14 15 18 26 28 37 36 77 47 34 43 55 46 48 64 72 75 75 76 74 77 77 70 56 76
56 74 77 65 41 41 49 30 28 26 22 18 20 19 16 20 20 18 19 20 19 16 21 37 45 55 64 66 40 44 43 46 48 51 67 70 73 76 75 76 75 80 70 66
48 77 88 81 61 86 48 31 28 30 26 24 22 17 23 25 22 20 21 23 25 36 34 68 64 71 62 77 63 68 68 60 49 51 57 67 71 74 78 76 76 75 80 74
40 51 78 91 84 55 42 32 32 38 42 31 30 29 30 38 33 26 27 41 42 46 43 66 48 58 70 76 70 88 84 68 69 55 56 65 67 72 77 76 77 74 76 81
55 64 85 98 89 77 39 27 22 29 45 27 46 51 52 51 60 47 44 42 42 52 50 59 38 56 57 69 71 72 86 66 71 73 57 60 64 70 73 77 74 77 74 73
88 84 93 93 99 87 68 61 43 62 68 69 59 59 60 68 60 54 52 48 45 43 44 55 67 68 70 72 74 84 65 76 61 55 56 62 62 65 71 74 76 74 77 75
89 100 99 98 95 92 65 69 91 86 76 75 73 68 62 60 58 54 60 59 52 56 54 70 77 78 81 89 95 94 87 70 53 54 55 58 63 62 71 73 77 76 76 77
94 98 100 99 97 68 69 81 77 78 83 81 81 71 66 69 66 63 68 66 70 64 76 80 84 86 88 92 91 99 89 86 63 54 58 59 64 63 65 75 74 78 78 77
79 84 99 95 68 75 87 83 79 80 85 83 82 80 77 80 73 76 76 81 78 82 88 88 89 92 90 95 97 100 98 83 84 68 58 60 66 70 61 77 76 78 79 81
96 95 95 98 89 94 82 86 89 84 85 84 83 80 81 81 83 84 83 81 86 87 91 92 93 95 95 97 98 98 100 98 89 84 67 68 63 70 69 71 78 78 78 78
96 96 99 99 86 97 96 91 88 94 91 88 94 90 82 88 92 90 92 90 90 90 91 93 94 95 97 96 97 98 100 100 100 99 76 72 63 73 72 72 80 78 77 80

GFSCGP_925_rhum_060.txt.gz
RH
28 42 51 43 33 28 26 27 27 21 17 20 68 86 88 82 74 70 68 63 54 53 47 43 43 59 64 57 56 51 51 62 64 62 60 60 63 66 67 66 66 66 65 61
37 49 38 30 26 26 27 29 27 21 16 21 84 92 86 81 72 67 67 64 56 52 49 45 43 54 60 60 55 58 52 57 60 57 54 60 57 57 63 64 68 64 64 65
44 34 28 30 31 29 30 31 27 24 18 57 72 90 92 83 72 68 68 63 70 51 48 46 44 52 54 57 57 57 55 54 55 54 52 61 62 60 61 62 67 66 66 63
37 28 25 28 31 26 34 21 18 19 17 31 52 85 84 87 85 87 73 68 72 63 46 46 46 53 53 54 60 58 54 55 52 53 50 59 65 67 61 60 61 66 67 66
26 22 27 27 23 22 26 18 18 15 17 18 18 22 63 75 83 92 72 63 63 56 47 44 43 53 53 53 58 57 56 56 52 51 49 55 66 61 55 60 61 64 69 66
15 12 13 19 18 19 16 16 17 21 23 28 20 19 74 79 82 83 78 76 68 54 49 42 41 49 55 55 55 60 59 57 55 54 52 50 59 63 62 56 63 63 70 68
14 13 12 12 15 17 15 23 31 28 28 30 21 20 19 59 49 70 74 69 58 49 48 50 42 45 53 59 61 68 66 65 58 56 52 49 56 59 62 56 59 63 69 66
17 17 10 12 15 21 18 22 32 31 34 31 21 23 17 33 44 50 56 52 52 50 58 52 41 44 49 56 60 71 74 69 63 59 57 49 53 57 58 60 59 65 64 59
27 22 16 12 12 15 21 25 20 26 26 30 27 22 17 24 24 57 53 55 60 56 62 56 39 40 52 54 58 64 72 70 66 61 58 56 51 55 54 58 59 59 61 57
22 23 18 14 13 16 19 19 26 35 33 32 32 26 28 37 45 50 58 56 50 63 64 61 44 39 49 54 56 61 66 70 68 66 62 57 56 52 52 51 61 67 62 59
29 27 25 16 20 19 19 24 26 30 39 44 39 31 26 40 38 42 54 51 50 62 68 73 56 47 50 56 57 61 65 68 76 75 69 65 61 60 52 49 50 55 62 63
31 34 38 25 21 16 16 28 28 35 26 39 45 36 26 30 31 27 34 48 62 64 66 63 63 65 50 51 56 60 64 67 67 76 76 73 62 58 60 52 47 48 52 58
32 43 47 28 28 30 30 28 28 28 23 20 22 22 23 27 30 26 27 56 59 74 70 78 70 64 54 56 51 55 61 67 66 70 76 78 74 66 64 64 54 48 47 52
34 42 44 51 41 33 35 29 28 29 31 28 22 19 25 21 20 19 26 36 79 90 84 85 67 59 56 52 59 53 55 69 68 68 74 76 79 74 64 62 66 57 53 48
43 45 40 38 32 31 32 32 30 35 32 29 24 22 17 19 19 17 18 23 53 79 78 54 52 37 41 56 43 51 55 57 72 72 74 74 77 80 74 65 65 62 56 53
59 64 63 58 41 41 43 38 35 30 29 30 28 23 20 20 22 23 22 22 34 42 46 31 50 59 71 62 45 50 47 55 70 74 75 77 74 80 83 77 68 66 60 58
56 71 79 75 57 52 52 39 37 35 31 29 38 32 26 32 30 26 46 45 46 46 45 52 60 79 84 80 71 60 61 57 61 72 75 77 82 80 81 83 79 72 70 61
61 79 89 90 70 87 44 39 35 35 32 36 34 40 50 51 43 48 47 47 43 40 50 48 44 63 69 74 92 76 64 45 53 64 72 77 80 84 82 81 82 81 79 73
68 76 87 90 91 63 47 54 62 60 47 68 71 65 56 55 44 38 50 48 46 45 42 44 48 55 67 51 66 90 72 70 74 63 66 72 78 81 83 83 81 82 84 85
71 81 88 98 98 95 87 66 56 60 57 78 76 80 78 67 73 59 57 50 52 49 44 39 41 59 72 79 76 66 63 68 60 57 58 61 70 76 80 82 81 81 80 82
88 90 93 96 98 90 69 66 65 68 70 79 80 82 83 87 75 64 59 54 53 51 45 44 56 76 79 68 93 73 73 84 74 65 58 55 55 69 76 78 82 80 81 78
91 96 94 97 96 97 68 67 82 88 84 76 75 78 86 82 77 71 64 61 57 55 50 66 73 81 83 65 92 94 98 83 69 53 56 54 68 70 69 74 80 79 80 80
91 91 93 97 90 75 78 88 86 85 86 79 78 81 80 80 81 73 74 70 66 65 66 78 84 88 85 96 85 98 94 94 86 77 97 83 74 73 67 70 75 80 78 80
87 89 98 97 75 78 78 81 79 79 85 75 77 83 79 90 86 80 75 76 78 76 77 86 85 90 93 91 89 94 98 96 88 58 91 98 79 77 71 66 76 76 77 77
86 93 86 90 88 87 86 82 84 85 82 83 77 81 83 91 92 88 87 83 82 83 81 90 89 91 92 90 93 95 97 99 100 99 100 98 80 70 78 71 80 76 74 74
94 92 97 97 82 91 88 85 80 88 85 86 89 88 83 88 94 92 90 93 93 86 86 95 93 93 92 92 89 93 95 99 100 100 100 100 93 75 77 73 76 74 72 74

GFSCGP_925_rhum_063.txt.gz
RH
28 34 45 41 41 36 29 30 31 26 21 20 79 77 86 76 76 72 71 65 55 52 49 48 53 55 60 67 65 64 66 68 66 66 66 66 62 61 64 62 65 66 64 65
43 46 39 35 33 31 30 32 33 26 20 24 39 81 86 85 76 72 71 67 59 53 50 51 52 62 69 68 65 63 63 64 64 60 58 59 63 63 62 63 65 68 65 61
44 36 32 35 36 34 32 36 33 30 24 66 84 87 94 88 76 73 71 65 63 53 52 52 58 64 68 69 66 62 62 58 63 61 58 61 66 67 70 67 66 69 67 65
37 31 32 32 36 36 42 30 27 25 22 25 60 77 88 90 90 80 78 73 66 54 49 54 52 61 65 66 64 58 56 55 63 62 57 61 62 65 64 64 63 67 70 69
34 24 36 34 28 29 34 26 25 22 20 20 23 38 57 95 94 84 84 76 68 58 50 51 50 56 61 63 62 64 60 58 60 59 56 56 60 59 59 61 62 68 68 68
14 12 16 24 22 24 21 22 20 25 26 28 22 23 57 90 80 74 75 74 67 59 55 52 51 53 56 59 64 67 63 58 59 56 54 52 56 60 62 61 61 64 67 67
12 12 12 13 16 16 20 25 33 29 32 30 23 23 22 61 68 61 68 71 58 60 56 54 52 54 54 57 66 72 70 69 58 56 56 50 50 59 64 63 58 62 67 68
18 16 11 13 14 19 22 24 34 32 36 29 24 23 21 34 41 55 55 56 56 60 64 53 49 54 55 56 64 73 74 70 64 58 54 51 49 55 61 61 63 60 62 63
26 21 17 13 13 16 21 25 21 35 31 28 28 22 21 39 42 44 60 66 66 63 62 55 47 51 55 56 60 70 73 71 65 56 54 53 50 51 56 58 60 62 59 62
25 24 20 17 15 16 18 21 28 34 35 31 31 31 48 46 40 41 64 65 65 63 60 57 49 47 53 56 58 65 68 66 58 55 54 53 51 49 51 56 58 59 62 65
31 27 22 18 23 22 29 34 34 36 37 42 40 46 33 45 38 38 51 59 58 56 60 63 54 45 50 54 57 63 70 70 70 66 59 59 55 51 49 54 56 56 64 68
33 40 34 28 27 22 26 32 36 41 33 42 45 47 25 35 31 27 69 67 55 62 62 76 78 72 66 61 59 62 67 71 72 69 64 62 55 54 52 49 51 54 53 60
34 45 40 27 26 33 35 32 32 36 32 33 28 32 20 23 21 24 60 82 88 84 87 83 86 84 69 63 62 64 65 68 70 73 71 67 66 61 55 51 48 51 53 51
37 51 46 50 43 37 37 34 33 38 47 41 28 30 23 25 25 24 31 49 78 86 73 81 85 80 60 54 59 58 62 64 68 74 77 75 71 66 57 50 50 46 48 48
45 61 55 42 39 38 36 41 37 35 34 40 33 32 24 28 27 30 40 47 53 64 55 64 83 80 71 78 74 55 58 61 67 68 75 78 77 72 64 61 53 45 45 47
61 69 60 60 55 48 44 38 36 36 32 33 34 32 29 33 34 53 53 47 47 48 49 60 55 66 67 84 90 72 55 56 63 70 70 74 77 79 74 66 61 59 52 47
62 71 75 72 70 52 50 45 43 38 33 34 41 43 59 58 53 63 62 55 52 49 43 48 56 62 70 84 74 83 75 64 62 72 75 74 76 79 81 74 71 67 63 61
67 76 82 80 67 76 46 65 51 42 67 76 68 70 71 70 61 59 59 59 56 55 52 45 39 45 51 65 84 78 81 74 70 77 76 76 78 80 81 85 81 75 71 69
72 83 92 90 91 68 55 76 75 82 82 81 86 78 73 68 59 59 59 57 56 54 51 47 44 42 55 68 82 75 82 82 80 67 71 78 80 84 83 86 86 85 80 77
75 84 88 95 93 93 77 64 57 69 90 77 78 83 83 77 84 59 65 62 60 54 52 51 47 52 65 64 75 89 90 85 82 77 74 75 81 84 88 85 85 86 86 82
91 93 94 86 95 87 76 68 61 88 85 84 77 80 82 83 71 71 68 72 66 61 56 52 49 54 63 61 83 91 95 95 93 93 78 66 65 79 86 89 90 86 86 87
91 93 98 94 96 95 75 72 74 84 87 75 71 72 74 72 72 69 71 76 72 67 63 57 54 52 64 48 82 91 98 90 91 97 99 83 72 63 61 72 88 90 86 90
96 88 92 89 88 77 83 83 74 77 77 72 71 69 73 77 72 72 79 80 76 71 69 66 66 64 66 66 55 100 90 83 89 94 88 93 88 96 78 59 72 85 87 85
80 90 98 94 67 75 73 75 79 76 79 79 77 78 78 82 78 82 85 89 80 76 75 77 78 76 76 78 66 66 82 85 93 98 100 99 100 99 98 93 78 76 81 84
89 92 80 88 84 82 79 84 83 81 79 81 76 79 79 84 86 85 89 83 81 85 83 78 84 84 86 86 85 69 78 90 96 99 99 100 100 100 100 99 80 72 75 80
89 88 95 94 80 79 75 76 79 87 84 77 86 84 83 85 90 87 89 88 90 90 90 94 91 86 88 95 90 86 77 87 96 100 99 100 100 99 100 99 92 75 74 75

GFSCGP_925_rhum_069.txt.gz
RH
22 30 36 40 40 33 30 28 28 25 31 32 23 25 48 68 72 70 69 64 57 55 56 60 70 65 69 69 74 79 84 85 84 82 79 82 78 78 73 68 67 66 68 68
24 26 28 34 36 34 34 32 30 24 22 24 24 29 65 60 66 69 63 58 55 53 52 56 61 60 64 66 72 80 83 78 81 81 83 82 80 78 77 65 64 68 70 68
22 19 24 33 35 37 34 34 31 26 23 36 54 54 67 71 68 67 66 55 52 51 50 51 55 57 60 64 72 75 78 74 78 84 81 75 75 71 75 69 66 71 71 67
27 23 30 37 37 33 39 28 27 27 26 22 37 27 57 67 73 74 67 63 53 51 48 46 51 54 58 61 68 74 72 72 77 72 78 83 70 67 67 70 72 76 71 70
30 33 30 38 35 31 36 27 27 26 26 22 26 30 40 63 70 75 71 63 53 49 48 47 48 52 53 59 65 72 78 78 81 72 77 81 75 67 71 74 70 71 71 70
23 17 27 31 26 25 25 22 21 21 21 25 19 26 27 39 44 38 55 61 57 50 47 47 46 50 55 57 63 70 80 70 78 70 68 74 78 73 70 71 74 76 80 68
15 14 12 16 22 25 24 24 30 30 29 26 21 22 38 32 31 34 42 43 57 52 49 47 48 48 55 57 64 69 78 79 80 76 77 68 79 71 63 62 70 73 74 79
28 28 14 13 14 17 24 23 25 33 30 23 23 20 34 23 28 40 53 47 48 56 49 47 48 50 55 59 65 68 75 78 80 81 76 68 76 74 70 68 66 68 68 71
20 19 14 15 15 17 21 24 17 22 25 21 20 25 24 20 34 49 65 58 53 54 52 50 48 50 54 59 64 68 73 77 77 75 78 77 81 77 71 68 60 67 62 68
23 21 19 18 16 17 20 20 21 22 30 26 32 40 32 31 47 63 80 75 54 53 56 52 49 50 54 56 61 65 69 72 70 72 74 75 77 79 76 67 60 65 57 60
24 19 23 21 26 28 22 23 25 22 25 23 31 37 21 38 63 75 66 78 78 63 57 55 53 54 54 54 57 61 65 70 73 74 73 72 72 76 77 76 65 62 56 58
32 24 30 28 24 24 24 28 26 24 35 31 27 32 25 45 54 55 66 63 66 74 77 76 64 62 60 61 56 57 60 66 72 71 76 74 65 70 76 71 65 59 61 57
31 29 31 28 23 23 28 27 26 21 23 35 26 26 27 46 49 45 51 54 53 54 53 57 65 81 84 69 63 60 61 61 68 75 78 76 73 74 74 75 60 58 61 66
31 35 31 21 29 29 32 29 26 24 24 29 28 29 33 48 48 43 42 43 47 49 50 51 51 58 74 88 90 84 76 61 62 68 77 76 76 74 72 75 71 62 53 56
36 40 39 39 34 32 32 30 27 26 28 26 29 28 40 51 49 46 41 40 43 50 51 51 51 53 56 70 83 90 92 90 76 66 67 68 74 72 66 69 72 67 69 60
41 51 44 48 41 36 33 34 31 28 25 25 25 37 51 50 47 49 49 47 47 46 46 51 52 52 52 61 68 86 88 96 100 86 74 70 74 76 78 76 68 74 73 65
50 51 46 45 48 39 33 41 37 35 47 37 29 56 58 54 54 53 49 52 54 52 49 49 49 51 55 57 58 75 87 96 98 99 83 77 76 80 81 79 79 79 78 75
49 65 65 49 44 45 50 48 49 48 63 59 57 63 60 60 53 46 44 54 55 53 53 52 50 53 58 60 57 58 77 77 94 97 89 78 79 80 82 85 84 83 80 80
50 54 75 63 49 48 51 51 50 50 64 68 64 60 56 53 46 48 53 49 50 52 53 53 55 59 62 59 58 56 64 77 68 92 93 88 78 82 83 84 86 85 84 83
53 57 61 74 58 51 54 49 48 52 46 66 63 62 58 54 48 37 50 49 51 55 56 57 59 64 61 61 62 64 64 70 74 73 86 94 99 93 90 86 86 86 89 86
65 74 75 68 67 58 54 50 54 66 61 66 63 60 61 62 57 53 50 52 54 56 59 62 61 64 64 65 66 70 74 70 65 68 91 90 88 96 89 93 94 93 90 87
65 78 86 83 88 77 54 53 60 60 64 61 59 58 61 58 55 54 53 54 57 58 60 62 62 63 66 68 70 70 74 73 74 77 87 79 85 88 84 91 88 97 95 95
88 74 86 73 67 56 57 49 51 51 56 57 58 52 52 55 58 58 58 59 60 62 62 65 63 66 67 68 75 77 76 81 77 76 84 83 82 89 87 90 91 92 95 97
73 71 88 83 57 60 59 59 58 58 56 55 52 48 50 62 60 59 57 64 67 69 72 72 70 68 66 68 72 73 73 81 86 78 79 83 81 87 88 87 86 83 76 89
69 77 80 79 64 62 60 59 56 60 59 61 58 59 60 65 60 59 64 69 71 76 78 78 75 73 71 70 71 73 74 77 85 85 83 89 83 89 88 89 85 86 95 83
71 75 88 89 59 56 51 59 59 62 62 62 65 65 64 69 66 64 67 74 79 79 83 85 82 80 76 70 71 73 78 84 92 87 85 89 87 88 94 84 85 80 79 83

GFSCGP_925_rhum_072.txt.gz
RH
16 20 19 17 17 18 16 22 25 22 30 27 24 20 40 48 52 60 72 53 46 42 41 44 54 61 53 54 55 61 65 71 72 70 65 62 62 62 63 64 74 78 75 79
18 19 14 16 20 26 23 24 24 20 18 21 17 17 33 35 45 52 66 61 47 42 40 42 51 52 49 52 52 60 65 74 74 62 60 59 59 58 60 64 73 70 76 75
16 13 15 25 29 29 24 22 24 22 19 18 22 24 39 41 40 52 50 45 43 41 40 42 48 50 45 49 52 60 68 73 72 60 67 77 71 70 69 68 67 71 79 79
13 13 17 24 28 24 24 20 22 24 22 22 18 26 32 46 48 63 60 48 41 40 39 40 43 46 43 45 52 58 69 73 74 75 66 67 57 51 52 57 58 68 77 76
17 15 18 23 24 23 22 22 23 22 23 21 17 21 38 35 47 70 66 55 42 44 44 38 40 42 42 44 48 55 68 74 70 77 67 70 67 53 58 54 67 69 81 75
18 13 16 20 23 24 23 23 21 21 20 26 17 18 24 29 33 31 45 50 46 38 43 40 38 40 42 44 48 52 64 76 78 79 82 74 63 61 51 58 70 66 72 72
20 22 18 19 27 24 24 22 24 24 23 21 14 18 31 26 29 34 36 32 43 39 38 38 38 39 41 42 46 50 61 73 76 77 78 77 74 74 67 66 56 55 57 59
21 25 19 19 23 26 25 20 18 26 21 17 17 19 26 25 35 43 42 32 29 40 36 37 39 40 42 43 48 51 58 70 73 72 75 76 76 67 65 62 50 55 52 55
20 20 12 13 12 14 23 24 13 16 15 14 16 27 20 24 42 48 58 41 36 38 38 38 38 41 41 45 47 52 56 68 70 68 72 76 77 73 58 60 63 57 56 53
16 23 15 14 12 13 16 15 21 17 22 22 17 24 27 36 54 53 69 77 49 41 41 38 40 41 42 44 47 52 54 61 65 66 67 69 71 75 71 68 69 61 55 63
16 17 18 15 18 18 16 17 17 14 15 17 21 24 23 45 60 62 62 66 70 75 69 69 59 45 44 45 46 49 52 55 61 62 62 64 64 67 73 69 71 71 65 64
20 14 18 19 18 17 18 18 17 18 24 18 17 28 31 40 52 60 59 56 54 55 59 67 78 88 76 49 47 47 49 51 54 56 63 64 65 65 63 69 67 70 70 67
24 21 24 22 18 19 19 19 18 17 16 20 17 29 34 40 47 52 50 49 49 48 49 51 53 72 86 87 88 58 48 46 49 62 64 70 68 68 64 62 67 67 70 69
27 22 29 20 20 17 24 20 18 18 18 19 19 34 40 40 43 42 44 43 43 45 45 45 57 66 71 77 84 89 78 63 52 52 60 63 72 68 63 63 66 67 70 70
25 28 26 26 22 20 20 19 18 20 20 21 23 27 38 39 38 37 34 35 42 45 45 45 46 52 60 69 73 81 89 90 82 77 59 60 68 69 68 66 67 69 69 70
24 34 29 30 26 24 23 22 21 18 19 20 20 34 33 37 37 37 37 38 40 40 45 45 43 46 50 52 61 70 71 88 89 91 80 75 63 66 71 75 76 70 70 72
31 31 34 26 29 24 23 21 20 20 23 21 23 36 36 37 39 40 36 39 44 42 42 40 42 46 52 54 47 50 58 69 75 83 95 82 78 72 72 74 76 77 77 70
33 39 32 25 29 29 36 31 28 24 35 32 40 43 42 42 38 34 38 41 42 41 42 40 38 40 48 55 58 56 56 57 62 74 89 95 79 74 75 77 78 77 77 75
32 33 36 39 28 30 32 34 31 36 42 41 39 40 37 35 30 41 39 38 38 38 39 41 42 44 48 49 52 53 58 69 63 68 75 88 95 89 82 75 77 81 79 77
32 38 43 39 47 37 35 35 33 31 34 44 41 42 39 34 24 44 40 37 38 41 42 45 46 47 45 51 51 50 49 60 71 67 67 72 87 91 92 84 84 85 86 84
48 49 63 44 51 38 37 36 36 40 49 45 41 41 41 39 40 42 39 41 43 45 47 49 48 48 48 52 55 57 56 54 66 77 70 67 78 80 70 84 86 87 92 88
49 64 67 52 58 77 36 42 47 50 43 39 41 41 43 41 39 40 40 43 46 48 50 51 51 51 52 53 56 58 60 64 67 69 80 78 69 77 69 81 88 90 86 93
73 54 71 57 55 46 41 38 42 35 41 41 40 37 38 38 41 42 42 42 47 52 55 56 58 60 59 57 58 61 62 67 68 68 67 75 73 64 70 71 77 84 82 80
46 47 75 65 34 43 44 39 40 38 37 39 37 36 37 41 41 42 40 43 47 50 57 60 64 64 64 62 62 62 62 63 65 67 66 62 66 65 64 62 54 64 75 60
44 51 57 61 46 43 41 40 41 42 42 42 39 41 43 44 44 44 43 46 48 53 57 62 65 67 68 66 67 66 64 64 64 63 62 61 56 56 56 60 54 55 62 69
46 53 73 73 42 48 37 42 43 45 46 44 44 46 44 46 47 48 47 50 56 57 64 70 67 73 73 71 69 69 70 69 73 69 62 56 54 51 49 51 55 51 60 64

GFSCGP_925_rhum_075.txt.gz
RH
14 15 18 14 13 10 11 15 18 16 20 22 25 45 40 42 44 48 61 69 42 40 34 36 34 41 43 44 48 53 54 60 60 61 52 49 53 57 59 62 66 69 75 71
14 16 12 11 10 11 13 13 16 17 20 20 18 18 31 37 40 47 60 65 47 40 36 36 35 43 45 44 48 52 56 66 64 57 52 46 49 52 56 63 62 64 66 71
14 10 10 10 13 16 17 16 16 19 17 18 16 18 28 27 30 46 55 47 50 42 39 37 40 43 46 43 46 53 58 66 66 53 56 57 56 57 64 62 56 62 71 68
12 9 10 12 16 18 18 12 13 16 19 22 16 23 27 28 31 53 60 48 44 43 38 36 40 43 48 41 42 50 59 65 67 60 54 57 56 51 48 54 53 60 67 68
13 10 11 17 19 17 15 12 14 17 18 15 18 20 43 31 37 51 50 43 41 41 37 40 42 42 43 38 43 52 62 66 62 65 66 60 59 50 50 56 67 64 70 66
12 9 10 11 13 16 16 17 17 16 16 19 15 14 39 33 57 43 43 54 42 39 38 42 41 43 44 36 39 49 64 70 68 70 73 66 59 61 52 61 61 57 56 62
18 16 11 10 14 17 19 21 24 25 21 19 13 13 28 25 25 24 37 41 40 46 35 42 50 40 44 38 35 43 60 71 72 70 70 70 69 62 67 62 53 53 58 50
18 21 13 11 16 21 21 18 17 23 18 15 12 17 27 27 33 35 31 26 36 36 37 34 37 44 43 40 35 39 53 66 70 70 71 72 72 62 58 60 52 51 62 66
17 16 13 14 15 16 20 22 12 12 10 11 15 23 23 31 37 47 54 32 25 36 41 37 35 39 43 42 37 37 48 62 67 67 70 73 74 71 51 51 58 52 52 60
17 20 13 13 12 14 15 14 19 15 20 17 15 24 23 36 42 52 58 56 60 71 85 91 68 46 42 42 38 37 43 56 63 62 65 68 70 74 68 58 59 52 53 53
12 17 17 13 15 15 15 18 16 13 12 15 18 27 27 45 48 53 59 54 54 66 70 72 86 93 79 76 44 42 42 48 58 59 58 61 64 66 71 65 63 64 60 61
12 14 18 17 13 13 13 13 15 18 20 13 14 31 30 46 49 52 57 54 51 56 65 73 81 91 92 89 95 75 43 43 48 51 56 58 60 61 62 68 65 66 67 63
16 13 20 20 16 14 16 14 14 12 12 17 16 37 32 49 51 50 52 50 51 48 48 61 62 71 89 93 89 88 77 64 42 46 49 54 56 60 60 60 66 65 67 67
29 15 22 23 17 14 18 15 14 14 16 16 17 41 37 42 50 48 47 46 46 47 50 53 61 64 69 80 93 86 87 84 79 68 48 53 61 60 64 62 61 64 66 68
18 23 20 18 15 14 15 16 14 16 14 16 31 36 36 36 37 40 41 41 43 44 44 46 47 56 63 70 71 82 81 92 92 93 75 73 58 65 69 63 62 64 65 67
16 25 23 23 19 17 17 15 15 14 15 16 23 36 30 30 32 35 36 38 41 42 39 39 41 45 50 52 57 64 69 72 87 85 88 86 73 76 68 68 68 67 67 68
26 19 25 25 21 21 24 17 15 13 13 17 24 32 32 33 33 32 34 37 37 36 37 35 36 40 47 45 47 50 58 60 62 71 85 92 95 76 73 74 72 73 73 70
28 31 25 24 24 36 22 22 15 15 18 27 31 29 28 32 31 28 32 34 35 35 35 34 32 36 44 48 52 51 49 55 54 61 68 75 87 94 89 74 77 78 77 76
19 27 32 31 27 22 26 26 24 27 32 27 32 31 29 27 27 37 32 31 32 32 32 34 35 37 40 42 46 47 51 59 61 58 63 59 80 89 87 90 89 76 78 76
20 28 32 31 35 28 29 23 23 20 35 29 28 29 27 24 24 40 35 31 33 35 37 39 39 37 38 43 43 46 46 50 50 60 67 70 72 83 87 80 79 93 84 76
35 34 44 37 39 30 30 26 23 34 38 31 26 28 28 25 36 35 32 34 36 39 41 44 43 43 44 46 48 50 51 50 57 60 60 63 68 67 71 70 73 83 91 89
38 53 54 40 41 63 29 30 34 42 36 32 30 31 32 32 31 32 32 33 36 39 42 44 44 46 50 51 51 52 53 57 61 63 63 63 66 67 56 64 72 70 78 83
57 39 73 43 51 42 34 33 36 32 36 32 31 28 28 27 31 33 33 34 36 38 43 45 47 50 53 55 58 58 58 62 63 63 63 63 64 62 64 65 65 61 60 64
32 32 58 45 33 36 33 30 30 28 28 30 27 27 27 30 32 33 33 35 37 39 43 46 51 52 55 57 59 60 61 62 63 62 62 60 56 54 55 55 55 50 38 41
37 35 43 42 34 32 32 31 31 31 30 30 29 30 32 34 34 35 36 38 40 43 45 51 56 57 58 59 63 62 62 64 64 62 59 55 52 48 46 45 44 42 42 44
33 40 58 64 35 37 36 31 31 35 35 33 33 36 37 37 38 38 38 42 47 45 48 53 58 62 60 63 63 64 66 70 69 67 60 54 52 49 44 43 40 39 42 44

GFSCGP_925_rhum_078.txt.gz
RH
16 18 18 16 14 13 14 15 18 26 25 21 44 71 73 42 41 43 41 53 39 37 36 36 34 34 36 45 49 50 55 56 62 58 58 56 62 60 61 66 71 70 63 70
14 16 11 12 12 12 12 12 14 28 29 38 48 55 62 48 44 44 43 57 54 41 40 39 35 38 40 47 50 53 59 61 60 56 57 54 56 61 63 66 68 70 70 65
13 10 9 11 12 12 10 11 14 27 44 33 32 54 66 47 40 42 44 51 53 45 44 41 38 46 45 49 52 56 60 65 58 58 53 59 61 63 58 63 68 66 69 66
11 8 8 10 12 10 13 11 13 22 23 24 18 31 35 37 52 53 50 48 52 45 44 46 44 50 48 56 52 58 62 68 58 62 55 52 57 62 62 64 60 67 65 65
12 10 10 10 11 10 14 11 13 20 19 17 16 19 27 37 65 58 53 47 44 42 42 40 36 43 52 50 48 60 61 73 61 62 61 56 56 56 54 62 64 67 68 59
9 7 8 9 10 12 13 14 11 14 19 21 17 17 45 56 71 69 49 46 57 41 40 38 37 45 48 50 42 58 64 71 69 60 67 62 62 63 64 69 49 69 63 65
15 12 7 8 11 13 15 18 20 23 25 22 13 16 36 59 73 80 38 48 66 59 50 39 40 46 47 44 42 60 69 74 72 65 70 74 69 69 66 62 56 62 61 62
20 20 14 10 10 14 16 17 20 28 22 17 13 17 34 36 66 70 30 33 39 42 43 62 40 45 47 45 45 58 72 76 75 75 72 66 69 68 65 65 66 53 51 58
24 19 11 10 9 11 16 20 15 14 13 14 18 31 32 36 43 44 48 52 70 83 89 78 47 45 52 46 45 53 71 76 76 74 74 74 71 65 59 51 50 61 59 63
17 25 13 10 9 12 17 15 19 17 25 28 24 34 40 42 48 51 52 56 66 80 92 94 90 70 59 53 43 47 66 72 73 71 74 77 79 73 63 63 56 61 65 69
15 19 19 14 16 17 19 25 18 16 16 22 33 44 31 44 46 54 52 57 66 76 88 96 98 98 94 74 65 82 60 66 68 69 70 71 75 75 70 67 61 54 62 64
13 14 27 16 11 11 13 16 16 21 26 18 48 63 41 45 49 53 55 55 55 68 76 85 95 99 100 99 91 88 91 79 63 63 65 68 70 70 75 72 67 64 62 64
21 16 22 20 14 12 13 14 13 12 14 24 40 43 43 48 52 52 54 52 52 57 67 71 81 86 97 100 100 98 97 85 90 77 61 63 65 67 66 72 71 69 70 69
25 16 25 46 27 15 17 15 13 13 16 17 36 55 55 55 55 52 51 49 48 49 57 72 74 71 77 92 99 98 97 87 99 92 80 70 60 62 63 64 68 68 69 72
15 18 17 19 16 14 14 13 13 15 16 26 44 49 51 53 51 48 46 45 46 45 45 48 58 61 64 70 77 85 93 92 95 96 96 82 84 68 63 62 65 67 68 70
15 22 28 25 17 16 17 13 13 13 13 16 33 38 34 39 42 43 43 42 43 44 40 40 43 45 52 54 65 66 67 83 88 90 98 92 98 73 74 69 68 68 68 69
20 22 35 32 18 19 23 17 15 14 13 41 50 40 32 35 36 38 39 38 39 38 37 36 39 42 44 43 48 51 55 57 71 65 69 79 91 95 97 88 78 73 72 73
25 35 29 34 26 38 20 13 14 15 16 26 34 34 32 32 30 32 32 35 36 35 35 33 33 39 42 47 49 51 50 56 57 59 65 65 58 83 93 94 93 88 78 77
16 24 32 36 59 36 26 23 20 18 22 25 29 28 29 29 32 36 30 30 32 32 34 34 35 36 39 43 45 50 50 51 58 60 63 66 65 56 77 96 91 84 91 92
17 22 35 31 35 36 30 20 17 17 32 27 28 29 30 26 39 39 32 30 32 34 37 39 38 36 40 46 43 48 47 49 54 60 62 63 66 70 67 56 74 74 81 83
29 30 39 36 35 38 30 22 20 35 33 26 25 25 24 28 39 37 32 35 35 38 40 41 41 43 48 50 52 52 53 53 59 62 64 64 67 69 60 58 56 74 74 75
38 48 50 34 43 57 25 26 30 41 32 27 28 30 31 34 33 32 32 33 35 37 39 39 42 48 50 55 56 58 59 64 66 67 68 68 68 67 64 68 69 56 65 72
54 38 72 43 59 44 32 34 36 31 34 30 30 28 29 29 31 31 32 33 34 36 41 40 44 46 52 56 61 61 63 64 67 68 68 68 68 67 65 64 65 66 60 62
31 27 46 46 37 37 37 30 31 29 32 28 26 26 23 26 29 30 32 34 36 40 42 45 48 50 53 56 59 62 62 65 67 68 68 65 62 60 56 58 56 53 51 48
38 31 36 38 34 30 28 29 28 26 25 27 24 24 26 29 31 32 35 37 41 42 45 49 52 54 57 60 63 63 63 66 68 68 66 63 58 53 54 51 50 49 46 45
31 41 59 64 35 38 36 28 28 31 30 28 28 30 31 32 34 35 35 43 44 44 45 50 52 57 58 60 62 64 66 69 72 70 65 63 64 59 58 57 55 51 48 45

GFSCGP_925_rhum_081.txt.gz
RH
18 26 31 26 23 19 20 25 27 27 34 61 72 77 65 68 74 50 42 41 41 44 38 38 38 41 40 46 44 56 60 57 55 52 65 60 65 58 64 64 70 65 63 69
23 30 22 16 17 18 17 17 21 31 42 64 70 72 64 49 69 44 45 46 41 45 44 42 37 42 46 48 45 53 52 57 55 50 62 62 64 63 65 69 68 67 62 69
24 22 17 13 15 17 17 18 19 39 41 50 57 75 77 71 52 45 47 48 44 45 47 46 40 41 51 49 48 54 57 59 58 50 59 63 63 64 66 66 66 72 66 64
18 14 13 13 13 15 19 14 12 36 42 59 58 82 76 67 57 53 48 57 51 50 46 46 42 51 54 54 50 51 63 59 54 62 64 61 60 67 62 57 66 69 68 64
17 13 13 12 12 12 15 12 15 30 37 37 58 58 72 64 70 72 61 59 50 45 47 46 51 50 56 54 55 52 60 63 52 60 67 62 59 63 68 62 70 68 66 65
14 10 10 12 9 10 10 14 19 27 31 40 30 37 67 77 66 66 86 71 53 54 57 50 46 51 55 55 57 56 62 67 60 56 65 65 61 60 57 70 66 66 66 58
17 13 10 9 12 11 13 23 38 30 45 41 29 30 70 76 74 79 82 75 60 48 56 47 50 54 58 58 60 63 62 73 66 59 65 63 65 60 48 61 63 66 66 67
26 25 16 9 12 17 20 24 38 34 38 36 21 66 73 54 56 59 48 62 62 63 73 65 49 51 55 55 60 65 60 68 71 68 63 61 64 62 65 59 59 68 64 65
28 26 14 11 10 12 19 23 20 25 23 26 51 63 63 59 64 65 73 80 93 91 92 85 77 67 55 54 55 64 66 66 73 69 64 66 67 68 66 60 56 60 54 59
21 31 20 16 13 11 14 20 26 32 37 31 64 70 90 87 72 70 74 79 83 92 96 97 97 95 83 72 62 64 69 68 72 75 72 68 65 65 66 69 62 65 60 61
19 22 27 18 15 16 26 30 29 28 31 37 66 83 75 79 69 75 74 74 82 87 94 97 99 100 90 92 89 83 76 72 60 68 68 68 68 66 60 63 60 64 62 63
26 17 39 28 19 13 16 26 32 40 35 56 70 80 69 73 64 65 72 67 73 80 89 92 98 100 98 99 97 94 92 94 91 86 67 60 70 69 63 61 57 66 61 68
31 31 35 34 23 14 16 16 16 21 24 39 69 82 64 72 66 62 65 62 62 70 80 84 88 98 100 100 92 96 92 91 90 84 87 72 67 70 64 64 63 66 67 65
28 23 29 50 40 26 23 18 17 20 26 53 51 82 68 64 65 63 58 56 61 64 69 81 88 88 94 100 98 99 100 95 96 82 86 94 83 76 64 65 69 64 66 69
22 29 26 27 26 22 19 18 16 20 22 50 74 73 71 65 62 54 50 49 51 54 59 64 74 78 83 76 72 85 91 91 98 88 85 93 77 73 87 75 73 69 70 71
20 37 28 32 24 21 21 19 16 16 37 56 56 70 58 54 53 50 48 47 49 54 52 54 58 62 65 68 70 56 68 84 86 90 87 88 98 65 82 69 90 72 71 70
29 40 47 39 34 27 29 22 20 39 37 44 71 62 51 54 51 51 48 46 51 50 52 54 54 54 53 52 60 59 62 60 55 58 87 89 89 92 92 87 93 82 76 74
35 43 45 56 50 47 28 22 19 22 33 41 46 50 47 47 48 46 46 49 49 48 50 48 46 49 49 50 49 54 56 64 66 68 68 63 75 69 74 94 92 86 93 92
24 36 46 65 70 48 33 24 24 23 40 38 41 40 38 41 42 46 42 44 48 49 44 39 39 48 47 51 53 53 51 60 60 64 67 68 71 73 63 50 64 82 80 83
27 35 53 56 61 58 36 27 23 25 52 41 45 38 40 41 61 58 42 42 45 45 43 43 48 50 50 52 52 55 60 70 71 70 68 67 68 67 64 70 69 58 66 74
43 46 54 57 63 54 40 24 22 41 53 36 38 40 39 60 59 52 48 48 42 43 42 45 49 52 56 57 59 62 69 68 68 67 66 68 70 71 70 66 60 61 66 57
60 73 84 55 56 66 42 33 49 52 37 43 44 46 50 50 47 49 48 50 43 44 40 46 50 54 58 61 62 67 67 67 66 67 70 71 69 65 63 61 63 62 60 68
65 59 86 64 79 52 46 52 40 43 44 42 42 43 43 44 46 46 51 48 42 43 48 49 49 54 58 60 64 65 66 68 67 71 72 69 66 63 60 56 53 56 57 56
45 35 75 59 48 53 45 36 36 38 37 35 36 34 35 44 42 45 49 49 49 47 51 51 53 57 61 66 63 65 68 70 70 72 73 70 66 64 64 60 59 62 61 59
55 41 48 54 44 38 35 45 39 29 31 32 36 31 30 43 44 51 53 56 46 49 50 52 56 59 62 62 66 67 68 69 71 74 73 72 73 70 67 65 63 61 60 61
45 52 74 87 61 64 53 46 42 43 35 36 34 36 38 38 48 42 61 47 45 49 52 53 54 58 64 66 66 68 68 69 71 74 77 78 77 76 73 72 69 68 65 61

GFSCGP_925_rhum_084.txt.gz
RH
23 26 29 26 27 25 24 24 29 44 57 76 84 84 80 70 72 57 46 44 44 43 41 45 59 63 65 59 59 57 56 54 58 66 65 63 61 61 63 65 60 60 58 67
26 31 25 22 23 24 24 24 22 49 50 64 79 80 73 72 76 65 49 46 46 48 45 43 54 60 61 61 58 52 49 54 53 60 65 65 64 61 63 64 65 61 64 63
31 25 21 23 23 22 22 24 23 48 58 63 72 76 71 60 67 71 55 43 49 45 49 45 48 51 53 54 57 56 57 56 54 54 63 66 68 67 66 63 66 65 66 63
24 19 21 24 24 19 26 18 16 47 52 64 56 69 84 75 65 71 62 51 54 46 56 53 48 53 53 51 53 58 58 57 55 54 58 65 64 65 65 63 66 67 71 70
22 18 19 19 19 15 17 15 17 34 47 68 65 76 72 78 83 81 78 70 63 49 59 56 45 54 54 51 50 55 57 56 56 62 57 64 64 64 64 61 64 67 71 67
18 14 14 14 12 12 12 15 28 37 43 54 51 65 75 80 73 70 77 71 63 56 60 56 52 55 56 54 55 56 60 59 57 64 65 66 63 62 64 60 67 67 70 65
21 19 14 11 13 12 14 30 40 37 50 54 42 60 52 64 67 68 72 60 60 54 65 58 58 58 61 60 62 59 62 62 60 57 63 67 68 63 64 62 62 68 67 65
31 27 17 12 13 14 17 29 44 36 49 39 36 64 73 80 68 76 74 72 57 61 72 67 60 60 64 64 64 65 64 61 63 62 60 66 70 64 57 60 64 64 66 63
29 28 21 17 11 13 15 24 25 28 31 30 78 74 68 79 84 80 83 88 94 97 95 87 89 77 66 65 68 63 63 61 61 62 61 64 65 64 58 63 62 60 64 62
23 31 20 18 13 12 15 19 28 39 38 37 87 91 92 90 90 85 85 88 91 94 96 97 97 93 84 74 71 74 68 62 62 63 64 63 63 62 53 59 62 58 63 60
27 26 24 23 20 18 26 29 38 37 41 43 83 91 83 89 88 89 88 87 88 96 97 97 100 100 90 88 82 81 80 70 69 71 70 69 61 64 62 56 63 65 65 61
29 28 30 32 24 22 23 26 36 41 36 66 84 97 74 85 87 83 84 80 83 90 92 96 100 100 100 100 99 97 96 82 80 74 72 67 62 60 66 67 69 65 65 62
25 31 41 35 27 29 23 19 20 32 45 57 59 94 81 84 83 75 78 72 79 85 87 90 97 100 100 100 100 98 99 98 84 78 78 70 61 59 62 63 63 64 65 63
28 28 32 44 40 31 26 21 21 26 34 58 80 95 86 79 77 70 69 65 71 74 78 86 92 95 100 99 100 100 92 87 83 87 86 83 86 71 68 66 63 63 62 67
24 33 25 25 25 25 23 22 22 23 28 45 84 84 82 74 69 66 64 62 64 64 64 72 81 85 88 95 100 100 98 93 99 97 84 83 92 92 80 78 71 72 74 70
32 42 32 34 32 31 28 24 32 37 50 71 81 91 67 63 58 58 55 53 58 59 59 61 64 72 77 78 87 91 88 94 94 94 91 92 87 92 86 74 71 66 62 73
42 47 49 43 43 27 36 31 28 48 51 70 85 80 63 62 55 52 48 48 52 52 53 56 61 61 65 66 69 65 62 62 76 87 95 96 91 89 85 86 89 71 64 78
34 49 57 54 48 47 31 27 24 46 56 63 67 63 58 57 54 54 50 51 55 56 53 53 55 58 59 62 65 68 69 73 75 78 78 76 84 93 91 81 85 83 85 85
32 48 49 56 65 48 33 27 26 31 60 58 60 57 54 52 51 56 51 51 54 54 56 62 58 56 56 59 66 73 74 74 72 74 76 75 70 67 69 80 75 67 70 74
35 50 52 66 63 53 40 27 26 28 53 54 51 53 49 46 64 59 53 52 55 53 54 55 56 56 56 65 65 66 68 69 70 69 69 68 67 67 68 68 61 61 64 68
68 55 56 66 68 61 46 36 26 52 54 47 47 44 44 61 52 56 57 55 48 52 54 55 55 60 62 64 63 69 70 72 71 68 66 65 64 63 62 58 52 50 50 52
67 78 86 67 63 64 47 43 43 52 50 56 55 54 60 56 53 54 54 58 51 57 54 55 60 63 62 62 62 70 74 69 66 68 67 65 63 63 63 61 59 60 62 63
64 66 80 74 79 64 51 48 46 44 47 48 63 54 49 50 51 52 57 56 53 57 54 57 62 67 70 65 66 73 74 69 67 63 66 68 69 64 61 61 62 60 57 60
49 49 73 61 54 45 41 42 41 38 42 43 45 45 44 49 50 51 58 64 62 55 53 55 60 67 65 69 69 70 68 67 67 70 72 71 69 67 60 61 64 67 68 68
62 46 51 58 53 40 45 41 40 34 39 39 36 37 44 46 51 54 60 62 60 55 54 54 61 64 70 68 68 68 68 68 67 70 74 74 74 73 74 73 72 71 68 69
56 58 78 82 66 63 56 48 46 41 40 42 38 36 45 45 57 56 59 58 57 57 57 57 59 65 67 67 69 69 69 68 67 71 74 74 74 74 76 75 74 71 72 67

GFSCGP_925_rhum_087.txt.gz
RH
27 31 32 29 27 25 26 26 26 48 59 69 73 80 79 74 73 53 46 49 45 46 54 59 66 65 69 66 68 65 59 59 56 64 64 63 62 64 63 62 62 69 63 65
31 33 25 22 24 25 25 26 35 70 71 72 81 78 77 78 80 64 50 50 49 46 59 66 68 68 68 64 66 66 62 62 61 58 59 61 62 66 67 64 63 65 64 60
34 24 23 22 24 24 24 26 24 65 74 74 77 82 80 74 74 78 71 54 50 47 54 65 68 69 68 67 65 64 60 58 63 62 64 65 69 66 64 67 69 65 65 64
27 23 22 24 27 24 25 21 21 64 64 77 67 78 84 75 77 77 77 60 53 50 50 61 64 67 66 63 62 62 57 52 58 63 64 61 62 66 64 66 65 66 70 70
27 22 22 25 25 21 24 17 18 55 56 67 71 71 61 72 76 76 84 65 56 53 50 56 58 62 63 64 64 57 52 54 55 56 61 60 64 63 63 64 64 67 72 70
21 16 18 20 17 18 15 15 31 46 55 67 61 59 70 86 67 69 75 64 58 53 54 51 53 60 64 66 71 61 56 58 58 56 57 58 61 68 66 63 61 66 72 72
25 22 17 13 15 14 18 29 41 63 64 64 56 66 58 86 64 67 73 69 62 68 69 60 67 64 65 64 70 64 61 61 60 62 62 60 63 64 62 62 62 64 68 71
34 28 19 14 17 17 22 23 44 46 62 49 59 62 81 89 83 76 80 83 72 79 75 69 67 64 71 66 69 66 64 61 63 64 66 64 62 65 63 62 65 62 64 66
34 30 21 17 13 14 20 28 26 36 36 42 84 84 79 79 88 90 93 91 92 94 97 82 74 65 74 69 68 65 63 63 62 62 60 64 64 68 64 58 64 63 63 63
25 34 22 20 15 15 17 21 29 40 39 43 91 92 86 91 93 93 94 94 95 95 97 97 98 87 77 74 72 71 78 76 65 66 66 64 65 65 65 62 66 63 58 64
27 26 23 25 26 19 23 32 42 39 45 56 94 88 83 91 91 95 94 92 96 97 97 98 99 100 97 79 71 78 79 81 74 67 71 70 68 67 65 65 62 65 61 63
28 30 29 30 24 26 22 25 40 41 45 73 82 90 82 88 90 91 91 85 91 94 96 98 100 100 100 98 81 87 84 88 90 84 76 81 78 72 66 62 63 62 66 65
23 34 43 36 34 31 25 21 22 43 58 68 62 80 83 88 89 86 89 88 87 91 92 97 100 100 100 100 100 97 97 90 88 85 85 82 80 83 81 69 69 64 66 67
29 32 36 52 38 34 28 26 22 28 37 59 62 91 96 93 87 80 74 77 82 82 89 94 98 100 100 100 99 100 100 96 87 88 94 77 78 84 86 84 80 77 70 71
26 36 30 33 30 30 28 27 35 27 29 42 68 93 90 87 82 77 73 70 70 71 74 82 89 95 99 99 100 99 100 100 94 94 96 89 86 81 83 79 81 73 72 77
39 41 32 42 35 33 33 30 30 53 74 86 87 91 79 73 68 70 70 66 65 63 65 66 73 79 88 96 100 100 100 100 98 100 99 87 81 88 86 86 78 70 70 63
47 46 46 45 48 44 54 35 35 51 68 79 77 77 73 72 65 65 62 62 62 58 58 61 64 70 74 78 76 77 87 94 92 95 99 100 100 99 93 88 84 83 76 78
35 59 61 49 43 64 46 27 38 66 68 73 78 73 67 64 61 55 52 53 55 55 57 58 64 71 72 76 82 87 85 83 83 84 84 82 81 83 87 87 88 81 78 75
39 53 65 55 60 46 34 28 26 41 69 68 70 65 62 60 58 61 54 53 56 61 69 67 66 75 80 82 78 73 72 71 70 72 70 69 69 72 68 66 63 65 66 62
46 51 54 73 57 43 38 32 30 30 60 62 60 63 62 55 75 72 59 59 66 65 63 64 66 68 68 69 67 66 69 69 72 71 68 64 61 64 61 55 53 49 49 48
66 64 58 72 67 60 46 43 39 44 50 58 57 57 56 57 62 62 63 63 63 63 62 62 62 66 67 65 63 69 68 72 71 67 63 60 59 63 61 58 57 55 52 49
62 75 85 70 66 59 44 43 34 44 55 55 55 53 52 62 60 61 59 64 66 68 67 63 66 69 67 66 62 69 70 68 63 60 60 64 63 62 60 59 57 58 57 56
68 68 80 72 76 58 59 47 47 50 55 56 61 58 59 60 58 57 61 67 67 66 68 66 67 69 68 68 64 67 71 65 61 60 62 61 60 57 56 58 59 61 62 64
50 60 78 68 60 49 46 43 40 43 47 60 62 57 60 58 54 59 60 68 68 69 70 69 68 71 74 70 66 67 66 62 58 61 66 66 61 61 63 63 64 66 69 72
65 50 59 59 50 49 47 43 44 41 47 49 54 53 55 54 56 58 69 66 65 64 69 67 66 73 73 69 68 68 67 62 59 67 70 70 70 70 69 67 68 66 66 71
64 60 78 80 54 56 51 46 45 49 48 49 48 48 49 48 54 57 66 64 62 62 65 66 67 69 71 70 69 68 65 61 65 72 75 76 76 77 77 75 68 64 67 68

GFSCGP_925_rhum_093.txt.gz
RH
26 37 44 31 22 25 47 49 53 47 57 62 68 82 82 77 62 64 56 56 56 60 50 55 59 62 66 72 77 78 80 70 72 78 86 82 77 74 72 63 65 66 62 58
31 39 32 27 22 21 26 36 35 63 58 67 78 82 82 69 64 57 55 54 54 50 51 53 57 62 64 70 76 81 80 69 71 82 83 80 77 79 79 67 68 68 63 62
27 29 25 26 26 23 22 24 55 49 76 72 79 88 78 66 65 56 55 47 48 48 50 53 56 59 62 68 76 79 69 66 67 80 74 69 69 74 79 74 72 66 66 64
30 22 24 22 24 22 24 20 30 62 55 74 63 88 72 66 74 70 53 47 45 45 47 51 55 58 60 65 73 77 66 64 63 70 76 65 69 67 72 76 78 72 66 66
26 24 25 24 22 22 23 18 24 54 57 58 65 79 56 67 73 76 63 50 40 40 44 50 53 56 57 64 69 75 69 65 67 65 72 72 64 74 75 74 71 70 68 67
22 18 19 19 19 21 20 27 36 46 45 45 50 48 48 71 63 58 59 58 52 42 42 51 63 62 64 65 69 74 82 67 71 66 68 68 67 62 74 74 77 79 82 84
24 20 16 15 17 20 17 18 39 37 43 29 45 55 36 58 67 62 54 56 57 47 47 54 63 66 67 66 73 64 78 81 70 74 83 72 71 67 64 65 75 76 78 77
27 29 20 16 17 18 20 17 28 40 44 36 51 42 39 69 76 74 66 48 54 52 49 51 58 74 75 68 71 66 72 79 82 75 73 71 69 78 74 68 76 76 72 68
26 24 19 16 16 15 20 19 16 30 35 32 44 49 68 72 84 77 63 54 58 57 56 54 58 66 70 65 69 70 77 79 78 79 80 70 64 64 75 65 66 72 67 79
25 25 20 19 14 17 17 15 20 24 38 38 56 56 42 74 91 92 86 87 84 74 65 71 66 66 69 80 73 76 73 83 80 82 80 63 64 62 70 68 66 63 69 70
21 24 24 24 22 18 21 20 25 20 28 28 37 42 66 64 77 91 94 92 93 95 91 90 86 83 84 82 75 82 81 83 88 78 76 70 68 67 68 72 70 68 68 70
22 21 27 25 21 20 19 26 25 19 39 46 33 36 72 71 73 79 86 84 83 89 92 97 99 93 88 87 82 79 81 88 82 76 71 67 80 72 69 70 70 70 71 71
25 28 30 26 22 22 28 26 29 32 36 42 26 30 71 76 82 83 85 88 90 89 92 96 99 100 96 86 89 82 87 94 86 86 80 81 81 74 75 75 74 70 67 64
26 30 30 27 28 27 37 37 25 22 21 36 27 46 83 79 80 83 82 84 87 88 90 96 98 99 100 98 99 97 100 99 87 94 86 93 92 78 76 84 80 74 70 71
28 34 30 29 29 27 31 43 43 24 28 27 33 34 54 70 72 72 73 80 82 84 88 92 97 99 100 100 100 100 100 100 100 100 97 96 90 91 99 98 90 76 71 71
30 45 38 36 33 34 27 34 48 49 51 50 54 46 61 64 66 70 73 77 77 78 83 86 91 98 100 100 100 100 100 100 100 100 100 100 98 92 90 97 97 93 86 82
39 35 48 43 39 35 36 31 33 43 51 50 40 53 67 71 68 68 69 69 70 70 74 78 86 92 100 100 100 100 100 100 100 100 100 99 99 100 95 88 86 81 82 79
42 46 42 38 43 41 37 31 34 38 48 53 59 63 64 64 61 61 58 61 65 63 65 68 79 92 99 100 98 98 98 98 96 94 93 95 97 94 94 92 88 82 78 75
36 40 47 45 42 36 32 32 32 33 35 55 60 63 60 56 57 61 53 53 57 58 62 67 73 85 86 90 86 85 79 77 76 73 72 71 68 66 66 64 63 62 76 81
32 41 33 45 36 39 34 32 33 32 35 52 55 59 57 54 64 56 52 51 55 61 72 78 82 79 77 78 76 74 73 69 68 65 64 61 57 57 57 59 60 61 80 88
38 41 39 44 37 33 36 35 36 42 40 48 53 54 53 55 58 51 49 54 58 70 76 80 76 76 75 74 71 72 71 73 71 61 62 59 57 56 56 58 58 59 67 76
40 48 52 49 46 49 42 36 35 42 42 46 53 52 53 53 59 52 55 60 64 71 75 74 74 74 75 73 69 72 75 74 63 63 67 61 54 65 57 55 58 55 54 52
66 48 68 46 45 48 49 47 44 42 45 45 50 50 49 52 57 56 59 61 65 67 67 64 66 72 72 73 68 68 78 77 75 73 74 76 74 71 66 70 68 62 58 63
50 54 59 59 51 52 47 42 39 41 40 46 48 50 50 54 56 59 59 60 63 66 68 66 67 67 73 75 74 73 74 74 73 74 75 74 72 73 72 63 63 61 60 60
45 53 51 50 45 49 45 45 40 38 44 47 50 50 51 53 58 61 64 65 65 67 68 67 66 67 73 76 75 73 73 71 68 70 71 71 69 70 69 70 69 65 78 73
46 48 57 56 41 44 42 44 43 42 41 46 48 53 54 54 57 60 66 74 72 71 72 70 69 70 73 74 75 75 68 67 63 63 63 63 62 62 62 60 64 62 71 70

GFSCGP_925_rhum_096.txt.gz
RH
16 30 39 26 20 21 46 60 43 42 57 88 84 86 89 87 83 44 37 37 36 36 36 40 43 46 50 53 59 64 66 76 78 74 63 61 59 63 62 64 76 76 74 75
17 27 26 25 19 22 30 40 39 41 47 54 86 88 87 89 82 53 38 34 34 34 34 39 42 44 48 55 57 63 68 78 77 70 64 60 59 61 61 65 75 73 73 76
14 14 24 27 21 22 24 30 31 46 59 55 67 80 78 78 88 61 40 33 34 38 35 38 42 43 45 52 60 64 69 74 76 68 72 75 72 70 71 70 70 71 74 73
11 14 24 27 27 20 24 18 31 48 48 74 58 80 68 71 89 78 49 38 36 36 34 36 40 43 44 48 58 63 70 74 78 79 66 73 74 68 64 61 62 67 74 70
14 17 24 24 26 23 21 16 24 31 39 57 64 50 60 75 71 65 51 38 32 32 31 34 38 41 42 46 53 60 69 75 69 78 68 68 64 68 58 60 73 69 76 74
15 15 16 17 19 21 17 18 22 27 33 46 42 40 53 52 55 45 48 41 36 31 30 33 36 40 43 44 51 56 69 77 76 79 78 75 70 65 73 69 65 63 63 72
17 19 15 15 20 19 21 22 31 32 32 29 31 37 33 38 50 42 52 46 40 32 31 32 38 41 44 47 52 56 67 73 75 76 74 75 73 72 68 67 66 58 63 64
20 22 17 14 15 20 24 20 27 42 33 26 29 39 32 34 44 47 40 45 41 38 32 32 51 58 58 50 54 76 68 70 73 73 76 76 78 64 70 65 66 71 65 64
17 17 13 13 12 12 20 25 17 22 24 23 27 26 50 49 52 48 46 43 40 41 36 34 40 47 55 60 67 68 66 67 70 69 74 76 80 77 62 73 71 68 68 64
17 19 13 13 11 12 12 14 22 21 32 29 26 27 26 56 53 70 49 45 38 42 42 40 40 51 67 77 65 58 67 74 77 72 68 74 66 68 68 71 71 71 70 77
16 16 16 13 15 13 15 14 13 15 18 21 25 26 35 39 52 70 72 73 63 48 49 51 50 51 59 78 84 76 80 80 82 83 80 72 69 65 69 68 70 71 74 80
17 16 21 15 14 14 10 12 13 15 23 18 19 30 45 46 50 59 74 76 80 79 83 76 67 68 78 77 89 81 79 83 79 84 89 80 74 73 66 70 69 75 74 74
18 20 24 22 17 17 14 13 13 11 11 22 22 20 47 53 58 60 67 70 77 82 86 88 80 76 75 81 92 90 85 85 87 81 80 90 74 77 75 75 72 72 76 73
22 18 22 20 16 14 22 20 15 14 14 15 17 25 51 55 61 66 70 74 78 78 85 92 96 92 91 80 77 84 96 87 84 91 85 81 81 76 75 80 79 76 78 78
24 26 20 20 18 18 18 18 15 16 13 15 15 17 34 49 53 61 66 70 74 73 75 89 96 98 100 98 88 86 94 98 100 97 97 95 96 89 82 86 91 86 84 78
22 32 27 29 23 18 25 25 21 18 18 16 19 20 36 43 50 57 63 72 69 70 71 81 91 96 100 100 100 99 98 99 100 100 100 99 100 98 99 96 96 92 90 91
30 29 33 31 26 25 25 23 22 27 26 23 20 35 41 50 55 55 58 65 64 65 68 78 88 94 100 100 100 100 100 100 100 100 100 100 100 99 92 86 92 96 88 87
30 33 30 30 31 41 30 22 23 26 29 28 32 38 42 47 49 50 50 54 61 62 69 74 87 97 100 100 100 100 100 100 100 99 99 99 100 99 99 94 91 91 89 86
24 27 31 33 34 28 29 28 26 24 26 29 38 43 44 47 50 56 48 48 52 54 60 68 79 91 99 100 99 96 94 96 94 92 91 87 86 87 89 86 86 85 84 87
21 25 25 26 32 34 30 25 24 24 30 30 35 43 46 48 49 46 48 47 49 53 57 64 77 84 85 84 85 82 80 76 83 86 82 77 80 76 82 84 78 84 82 81
27 28 29 26 27 24 28 26 25 35 40 34 38 39 42 46 59 48 44 47 50 56 62 67 68 72 75 76 74 72 73 72 67 66 65 63 56 58 64 70 65 80 73 79
32 33 32 30 32 38 30 28 33 39 32 32 38 41 42 46 44 45 47 49 54 59 68 71 70 73 75 73 67 74 75 73 62 62 66 69 72 56 67 78 77 74 77 76
49 30 42 29 33 38 37 35 33 30 33 34 36 36 41 44 45 47 51 50 54 60 66 64 65 66 66 66 70 74 78 75 72 73 74 73 67 65 69 68 72 64 66 54
39 38 39 37 31 34 34 33 30 30 30 29 33 37 38 43 44 46 48 49 53 57 58 53 55 56 59 61 60 63 70 68 66 67 68 68 61 61 58 47 47 45 45 45
28 38 33 34 34 38 36 34 30 30 30 29 33 38 40 42 44 44 47 50 50 54 54 54 53 54 58 62 62 60 63 62 58 59 56 57 50 53 57 54 55 50 69 64
32 30 37 33 27 29 27 28 32 32 31 31 32 37 41 43 45 47 47 51 52 54 55 56 55 54 59 62 62 60 60 58 52 49 46 42 41 45 43 48 53 62 62 58

GFSCGP_925_rhum_102.txt.gz
RH
11 14 24 28 25 28 57 84 70 85 74 62 75 88 86 68 53 59 32 31 31 28 26 28 33 38 44 46 48 49 52 57 56 62 61 57 54 58 64 58 64 69 62 62
11 12 12 18 25 55 64 72 89 90 78 94 77 85 85 85 76 70 63 53 30 26 28 31 34 36 40 46 50 50 64 67 65 60 62 64 61 60 62 65 62 61 62 61
11 9 9 14 20 36 43 49 84 86 89 90 76 92 88 87 90 76 66 58 67 32 34 34 34 33 39 47 53 54 59 72 63 67 65 67 61 68 64 62 62 63 59 63
8 7 8 11 17 28 64 60 66 82 90 94 73 94 93 94 84 85 72 64 58 43 38 33 33 34 36 44 48 60 63 69 69 65 67 66 66 62 66 66 74 64 60 60
7 8 9 10 14 22 38 46 60 74 90 95 81 65 79 87 92 86 76 64 58 45 34 37 33 33 37 41 45 53 59 68 61 65 66 64 61 60 69 68 72 68 69 60
7 6 7 8 11 16 26 35 62 76 94 98 58 52 86 86 72 77 66 60 66 46 32 46 36 35 40 42 47 58 61 64 67 64 69 68 64 65 69 67 69 75 69 64
8 7 8 8 11 12 22 26 56 82 97 74 80 48 68 59 52 62 68 78 69 54 41 35 46 38 40 46 49 58 65 67 67 65 65 67 70 70 70 61 64 61 65 64
12 11 11 10 12 13 18 28 31 64 65 74 78 52 52 44 43 50 55 54 68 65 56 45 51 54 42 50 54 58 65 70 68 65 64 61 63 66 64 65 66 62 74 71
13 12 7 9 10 11 15 20 17 25 37 44 68 56 42 37 42 47 46 58 67 64 69 65 57 50 57 62 68 47 67 69 69 66 65 66 69 63 67 67 69 68 74 72
13 20 10 9 9 10 12 12 18 36 42 50 47 69 54 46 47 48 48 51 50 55 65 50 63 69 44 50 71 69 65 68 65 63 68 73 76 71 68 68 70 71 78 60
12 16 16 10 12 12 11 12 13 14 22 39 41 55 55 37 36 38 37 39 44 48 57 79 63 69 51 55 71 72 71 70 69 64 68 69 74 69 68 66 64 64 71 66
15 15 19 15 10 9 9 10 10 16 22 19 22 40 56 59 41 35 36 34 52 38 56 72 74 86 65 68 72 77 70 63 62 68 74 75 67 73 67 66 67 63 67 72
20 20 22 19 14 10 11 9 9 8 11 20 20 64 62 63 50 51 53 58 68 57 55 64 63 69 67 72 75 85 85 75 70 74 67 69 80 75 74 78 61 82 66 66
21 20 21 20 25 19 12 10 9 9 11 11 12 36 50 48 54 53 56 57 69 72 74 66 68 74 80 76 77 73 74 84 83 70 70 73 77 71 76 80 76 72 70 72
16 24 20 16 17 17 17 11 10 11 9 12 14 28 31 38 49 52 61 63 67 72 76 76 90 91 83 78 75 70 76 82 95 85 86 88 78 76 71 73 72 69 64 70
17 26 28 30 20 20 18 15 10 9 8 9 21 41 57 76 82 58 61 66 69 69 74 82 82 83 94 91 81 79 77 81 88 91 87 87 90 92 81 78 76 79 73 74
27 35 44 42 39 24 22 22 20 10 10 10 45 48 42 64 72 60 59 62 68 75 77 83 87 91 100 100 100 100 85 80 85 89 91 90 92 91 97 92 92 90 79 73
29 46 52 66 50 42 39 21 20 25 12 28 30 48 43 56 50 48 46 53 59 69 74 77 87 96 100 100 100 100 100 100 99 100 99 98 96 94 96 94 94 87 82 76
22 44 66 92 78 61 33 37 27 35 38 25 26 26 39 77 41 43 40 47 55 62 68 74 82 95 100 100 100 99 99 100 100 100 100 100 99 96 93 94 95 91 78 76
27 45 56 56 68 60 62 45 31 28 82 55 29 27 31 32 41 54 48 50 51 68 72 79 90 97 99 100 100 99 100 97 95 92 91 90 90 89 90 89 87 89 87 87
45 50 56 76 84 62 53 47 29 34 51 26 26 28 40 52 47 48 52 60 59 64 70 77 82 87 91 90 90 91 91 91 90 90 89 85 81 83 85 84 81 84 82 82
38 34 34 37 63 65 34 34 32 51 27 28 28 30 39 38 41 46 48 58 61 65 68 74 78 81 81 81 80 82 81 72 64 60 60 61 63 64 67 78 77 78 74 80
35 31 39 36 66 47 35 37 30 27 30 28 28 27 34 34 38 42 48 55 57 54 58 59 63 69 73 65 65 75 72 70 69 62 59 51 52 53 58 66 57 53 61 66
24 25 30 31 42 29 25 23 22 24 25 22 24 24 26 32 35 39 44 48 53 54 53 56 60 62 66 67 67 63 58 53 55 60 60 48 51 52 53 60 61 57 51 47
24 28 24 26 28 26 24 23 23 24 22 20 23 25 26 29 33 39 45 54 51 55 54 55 55 58 64 69 68 66 67 69 67 67 67 70 69 55 58 53 50 52 51 46
17 22 25 26 28 37 28 25 23 25 23 22 23 26 30 30 32 35 53 54 54 54 51 55 53 55 57 60 64 66 67 66 64 60 58 49 51 50 53 53 51 50 48 38

GFSCGP_925_rhum_105.txt.gz
RH
16 22 28 24 25 30 64 74 79 90 91 92 85 82 85 82 68 68 37 42 34 34 32 39 45 47 44 48 50 57 56 55 58 58 62 60 58 59 60 59 61 63 62 64
17 22 15 13 28 43 60 74 85 92 85 82 88 86 84 87 79 78 71 62 46 34 32 41 48 49 44 47 52 58 57 58 59 63 64 60 63 63 61 61 63 67 60 61
16 14 11 11 39 41 60 68 79 78 90 87 94 95 86 79 84 78 66 64 62 52 38 44 47 48 49 53 54 58 57 55 58 63 64 60 63 64 64 68 65 63 59 60
11 9 10 11 43 42 67 58 67 79 82 94 96 98 95 86 80 73 72 63 64 63 44 41 44 47 52 50 48 54 58 57 59 64 68 60 57 63 63 63 64 66 60 60
12 9 8 10 12 44 69 59 62 66 91 87 88 99 93 88 81 68 62 61 63 58 45 39 38 46 51 54 50 52 58 54 60 61 68 68 62 59 67 63 63 59 65 65
11 7 8 9 12 38 49 62 71 79 89 95 82 93 93 88 69 58 57 61 61 61 56 49 37 42 52 56 61 56 59 59 68 69 67 65 67 68 70 68 70 70 67 63
16 10 7 8 28 47 60 75 92 91 89 87 74 83 81 64 66 61 62 62 60 68 63 53 45 47 45 50 64 70 64 64 67 67 64 65 69 66 67 60 64 72 69 65
22 18 9 10 12 44 59 53 74 74 90 84 70 86 79 54 53 54 58 57 64 67 66 62 44 55 49 51 60 62 73 65 67 70 70 70 66 63 67 68 73 64 64 60
23 18 11 10 11 13 24 37 32 69 70 78 87 82 76 52 59 54 61 65 71 67 68 65 59 62 59 77 64 65 67 67 68 65 66 61 66 67 66 69 69 68 58 50
16 25 16 13 10 12 14 19 31 47 79 83 83 90 88 56 66 60 60 56 50 54 59 68 71 78 80 87 78 68 68 67 67 67 66 68 69 67 70 71 66 71 70 62
18 22 22 19 16 16 17 22 23 41 42 56 85 80 68 61 51 57 51 50 51 55 60 73 76 84 62 85 80 59 66 69 68 70 67 66 66 64 70 69 69 69 68 63
26 24 33 24 12 12 13 15 18 30 29 40 39 87 60 58 56 47 52 58 56 49 51 77 82 87 72 73 66 40 47 71 69 71 70 68 59 73 70 68 66 67 69 70
27 37 40 28 20 14 14 14 14 15 16 23 34 76 56 56 51 46 59 61 60 60 78 87 88 87 86 82 80 60 58 85 68 70 68 74 69 62 74 73 69 64 67 74
24 26 34 39 28 23 28 15 13 15 18 20 20 68 72 53 47 73 93 92 94 65 76 88 92 84 82 82 82 90 92 81 81 77 71 67 67 72 74 76 77 64 73 74
24 33 28 27 27 20 21 21 15 14 18 20 50 57 82 94 70 87 86 88 91 89 90 88 88 88 92 96 94 90 81 82 79 73 66 67 69 72 72 72 70 71 69 65
27 38 40 42 46 39 37 22 21 18 12 40 71 95 88 82 80 80 76 74 86 91 92 95 97 98 100 96 88 80 80 83 80 74 78 80 75 75 73 66 72 72 69 70
37 51 60 54 56 48 42 44 33 46 50 28 50 71 81 77 70 72 76 69 79 84 94 93 96 100 100 100 97 93 84 81 81 87 88 87 87 92 94 88 91 91 79 72
41 57 60 80 66 57 59 42 39 53 59 59 53 55 57 63 51 54 67 79 81 84 90 92 100 100 100 100 100 100 90 86 89 92 95 93 95 96 94 93 88 82 84 82
33 53 66 88 82 62 54 58 48 51 62 61 80 73 65 63 82 72 66 74 78 83 82 89 97 99 99 100 100 100 100 100 100 100 100 99 94 92 94 94 95 87 78 86
49 57 71 85 86 84 76 45 46 40 76 56 71 87 88 81 92 86 71 74 80 84 88 95 98 99 99 100 100 99 100 100 98 98 97 96 93 90 88 87 88 86 86 92
54 60 67 80 87 78 55 48 45 66 64 57 69 82 90 92 95 85 83 82 79 84 89 91 92 95 96 99 99 98 97 97 95 93 91 90 89 88 86 82 81 82 86 89
63 85 82 86 88 78 40 40 39 50 38 47 88 87 89 88 80 77 81 79 76 82 82 84 85 87 89 89 90 90 88 88 85 85 81 78 79 75 75 71 73 74 84 84
54 48 65 75 84 69 45 45 41 43 41 39 43 64 64 68 68 68 76 77 75 77 79 80 82 82 81 79 80 78 72 63 59 59 57 59 58 54 58 49 50 46 65 67
36 35 69 60 48 50 43 34 38 39 33 32 35 38 43 54 63 65 69 70 65 66 71 70 70 73 71 64 64 61 61 58 52 50 51 50 49 57 61 64 63 61 56 54
42 32 33 57 54 38 32 34 36 31 29 29 32 40 45 46 58 62 62 64 61 59 62 62 66 68 70 74 64 46 43 47 54 54 49 50 46 53 53 50 50 50 49 49
30 40 44 57 53 54 44 40 38 33 25 32 36 44 42 47 58 64 73 63 60 59 60 63 64 66 67 62 64 72 72 72 69 65 62 59 57 56 52 49 45 46 46 43

GFSCGP_925_rhum_108.txt.gz
RH
18 25 29 26 24 25 64 82 90 90 86 86 96 92 95 78 52 54 47 40 40 44 40 54 60 58 55 52 55 53 56 63 59 60 62 59 61 62 61 65 61 63 64 64
20 27 22 20 20 30 73 88 93 85 85 79 93 92 80 84 82 77 65 43 38 43 45 54 57 60 62 57 54 52 55 56 56 58 60 59 61 63 62 62 65 62 63 63
22 18 16 16 21 62 70 72 90 80 82 85 90 94 83 80 86 76 68 65 61 42 54 54 52 53 55 59 58 57 52 55 60 61 62 63 64 63 62 67 66 66 64 65
15 12 13 14 22 52 80 61 66 84 82 93 90 95 97 89 86 79 72 65 67 58 52 52 52 53 60 56 54 54 55 61 63 62 62 62 64 62 63 62 64 64 60 65
17 12 11 13 13 46 78 58 66 74 90 92 88 90 94 96 86 77 69 65 66 63 51 52 53 52 60 56 55 56 58 60 61 62 61 62 62 62 64 64 64 64 64 67
19 14 10 10 30 53 54 66 71 75 88 91 80 84 92 95 82 67 59 66 62 62 57 54 51 53 57 65 64 59 58 56 57 63 66 66 64 62 64 64 66 63 61 66
20 16 19 49 65 56 65 78 95 90 88 85 88 90 82 74 70 60 58 76 65 65 65 60 53 56 58 63 65 59 61 59 57 65 69 65 64 66 65 68 65 69 64 63
26 27 12 30 58 73 72 55 71 76 94 83 83 88 78 61 52 49 49 58 68 68 66 61 56 59 59 66 64 63 62 60 67 68 67 66 68 67 63 61 63 69 65 62
24 24 15 13 37 53 65 50 44 73 74 84 87 78 70 53 60 56 58 55 66 65 72 67 62 63 59 67 72 66 61 62 71 68 65 67 68 67 68 68 73 70 62 63
21 24 16 16 14 32 40 35 46 60 83 89 88 86 85 60 62 66 68 62 64 68 75 73 76 76 68 71 74 82 64 64 68 69 71 70 66 68 69 69 66 67 66 64
30 24 24 20 20 19 19 27 31 45 59 79 95 87 70 56 56 69 68 62 62 59 68 84 92 88 74 67 67 72 85 69 67 70 70 67 70 73 73 71 65 63 65 64
28 34 34 26 22 17 17 18 27 34 27 50 56 73 48 54 50 60 61 60 57 52 64 86 88 84 75 61 52 50 78 78 69 70 68 71 71 70 72 73 71 72 68 69
27 37 43 35 31 25 25 21 15 23 26 37 46 64 48 68 62 52 58 67 70 69 81 87 88 88 86 61 50 55 79 85 65 67 69 85 80 62 70 72 71 72 76 72
28 36 38 39 34 32 33 28 26 19 24 21 30 47 64 58 90 88 82 80 83 79 83 89 93 90 88 86 83 82 87 74 65 67 74 80 78 64 67 67 70 74 76 68
28 32 28 27 46 42 39 45 40 36 28 20 24 59 84 77 98 97 97 93 88 83 86 88 95 95 85 89 84 80 83 83 68 64 67 69 67 65 68 67 70 78 74 74
36 38 47 53 42 46 46 50 52 60 64 75 80 93 90 88 87 93 95 90 92 83 83 91 93 92 92 83 82 90 92 93 92 79 76 67 68 70 73 71 71 72 72 73
55 57 60 60 60 46 71 57 61 62 66 78 69 69 90 87 81 88 88 90 96 96 96 97 98 98 95 97 83 74 98 95 89 81 78 76 79 84 82 78 79 80 82 80
56 61 74 68 61 69 55 64 47 59 64 78 81 74 78 82 73 84 85 91 94 94 97 98 100 100 100 100 100 94 100 97 91 92 87 89 92 94 93 92 89 85 83 84
53 66 86 76 81 64 57 54 61 58 61 78 91 86 83 80 85 95 86 89 96 97 98 100 100 99 99 100 100 100 100 99 98 97 94 93 95 93 92 88 83 85 89 90
54 73 76 84 74 68 66 52 50 55 73 76 85 87 92 84 93 97 94 90 94 97 98 100 100 100 100 100 99 100 100 100 100 100 100 98 93 90 90 92 90 88 89 90
70 74 74 86 83 74 64 53 48 68 63 70 79 82 93 97 99 97 93 93 93 95 95 96 96 99 100 100 100 100 100 99 100 99 100 99 95 92 88 90 87 85 95 95
74 83 95 84 76 57 48 51 57 54 60 79 80 79 91 85 86 92 91 90 87 90 89 89 91 93 97 99 97 99 98 98 97 95 93 91 89 84 79 78 79 90 94 90
64 74 91 89 79 61 55 47 50 51 77 78 76 87 80 78 84 93 91 85 85 87 84 84 86 86 85 87 90 91 88 84 83 80 78 77 70 70 61 70 70 78 85 90
46 53 68 56 44 53 49 46 55 51 40 45 68 84 80 87 86 84 84 83 82 76 78 76 76 76 77 78 77 70 65 60 56 52 54 54 58 61 61 58 59 54 62 63
48 37 55 61 46 45 38 36 34 37 39 44 46 59 80 77 79 74 77 76 75 74 68 69 73 75 75 69 60 60 56 50 47 46 43 45 49 50 51 49 49 49 51 50
39 37 56 67 51 47 42 41 34 34 39 47 47 49 63 72 77 70 72 67 70 73 72 72 68 65 69 71 57 53 54 66 68 61 54 53 50 51 48 46 44 45 44 43

GFSCGP_925_rhum_111.txt.gz
RH
18 24 28 27 25 27 71 81 89 88 92 92 91 94 91 82 64 47 50 48 51 55 57 62 63 60 62 61 56 58 60 60 61 63 61 62 62 64 64 65 65 66 64 61
22 29 24 21 21 30 68 85 92 85 87 92 94 93 94 88 85 77 53 48 49 48 62 65 65 65 64 60 54 56 55 60 58 58 58 62 64 64 63 65 66 68 62 65
25 20 17 19 27 69 82 76 86 79 85 84 87 93 97 88 89 78 69 51 48 50 64 68 64 67 63 58 53 56 60 60 59 60 59 61 65 64 66 63 65 64 66 64
18 15 16 17 20 66 77 63 70 86 86 92 89 96 97 93 89 82 74 70 52 50 60 64 62 66 65 62 60 53 62 59 59 59 60 60 62 65 66 64 66 67 68 58
21 17 17 16 16 54 66 62 73 77 91 92 91 96 89 92 90 80 76 71 66 51 58 60 57 61 63 65 62 57 62 61 62 62 60 60 62 63 61 61 64 64 67 63
20 16 16 18 42 44 59 71 77 78 87 90 78 86 85 94 81 67 74 70 68 54 54 55 53 58 65 66 65 59 60 60 65 62 62 61 61 64 65 64 65 63 66 68
21 18 54 55 69 62 68 80 83 76 86 83 84 91 81 71 76 65 73 76 65 66 58 57 61 59 70 69 69 61 62 64 66 64 61 61 63 63 62 62 65 67 64 65
25 23 56 51 65 70 79 64 72 68 88 87 86 89 76 64 66 73 71 70 69 70 59 60 60 61 65 69 71 68 65 64 64 63 64 65 64 61 62 66 66 64 69 63
24 25 16 42 51 50 66 64 49 77 80 86 85 75 66 60 58 60 66 53 71 70 76 60 60 65 66 69 71 67 63 65 64 62 66 68 67 66 66 67 63 66 70 68
25 28 18 16 41 49 51 45 55 71 80 93 85 86 80 69 66 65 61 64 64 68 75 71 64 66 68 64 65 65 61 60 60 63 72 66 67 70 68 68 68 68 70 66
29 26 23 22 23 43 29 40 40 54 67 87 91 78 64 46 50 68 62 57 63 64 73 79 79 75 72 71 69 66 64 64 63 68 71 69 70 71 72 70 68 66 70 70
28 38 38 27 22 22 19 30 36 42 34 68 69 61 64 57 56 71 72 62 63 59 67 78 86 93 87 80 80 74 77 74 71 67 71 74 74 75 76 74 71 66 68 71
25 35 45 39 34 32 30 32 22 29 35 50 54 49 68 61 65 72 76 76 71 70 84 92 94 94 90 88 87 81 81 81 71 74 69 69 67 75 83 80 70 72 73 71
37 37 38 54 40 36 47 52 45 23 28 26 38 24 54 67 79 74 77 76 74 81 79 86 92 92 89 86 75 65 55 68 84 72 68 71 74 83 81 83 66 68 68 71
35 34 32 35 48 47 55 63 65 59 63 26 20 24 59 83 89 88 85 82 81 84 85 87 92 92 85 88 82 82 73 60 67 74 69 72 70 85 80 82 75 77 84 82
45 50 52 52 47 46 56 57 63 68 78 72 83 82 99 97 97 97 90 85 81 81 73 75 78 84 93 90 87 79 83 78 75 71 79 76 77 79 85 85 80 83 81 80
58 54 58 58 59 40 53 61 64 64 77 90 93 96 75 82 93 97 99 98 98 89 93 96 96 94 93 86 84 90 82 84 87 83 81 78 91 89 85 79 76 72 75 80
57 65 74 61 63 62 47 59 59 57 69 88 89 82 80 96 98 98 98 96 98 98 99 100 100 100 100 95 90 92 91 92 97 96 98 92 89 80 84 87 89 88 88 84
60 75 81 68 77 67 56 54 53 56 58 85 94 87 90 91 87 97 96 97 98 99 99 100 100 100 99 100 100 99 97 96 97 100 95 95 90 91 94 94 90 89 91 92
66 74 74 82 66 77 63 50 54 57 75 80 89 92 91 89 97 100 97 96 98 100 100 100 100 100 100 100 98 99 100 98 84 89 100 92 94 93 91 86 85 88 96 90
73 82 80 88 80 71 59 54 50 61 64 77 85 94 93 96 96 98 92 95 97 99 97 98 99 100 100 100 100 100 100 100 100 100 100 100 100 98 95 93 91 96 96 94
65 80 86 87 74 56 50 51 52 58 74 73 82 88 83 95 97 94 95 94 94 94 90 91 95 97 99 100 99 100 100 100 100 100 100 99 97 93 90 89 89 97 100 96
72 70 81 79 75 60 63 57 51 65 81 79 85 79 82 85 93 91 94 92 88 88 86 88 88 87 89 93 95 94 94 95 95 96 95 92 89 84 82 82 85 99 100 93
51 63 71 58 60 51 58 60 55 49 58 72 80 78 77 93 93 93 89 87 88 86 84 83 81 81 82 80 77 74 70 68 70 70 67 68 68 64 61 62 62 78 82 85
55 53 63 62 54 58 48 40 45 53 59 64 77 81 86 91 92 88 88 87 82 79 74 66 63 64 65 65 67 65 62 57 52 50 50 51 53 53 54 53 54 53 54 58
50 45 63 64 54 52 47 38 45 53 55 59 63 69 80 84 88 82 89 83 78 76 76 79 76 73 71 59 48 44 43 49 50 48 48 52 49 49 48 47 46 45 43 42

GFSCGP_925_rhum_114.txt.gz
RH
20 24 29 27 25 36 70 79 90 85 86 85 91 93 95 83 79 65 53 53 58 61 59 62 64 63 64 65 67 70 70 69 66 67 65 65 65 66 62 68 66 65 67 60
26 28 22 22 24 31 78 88 93 86 85 80 93 92 92 86 88 78 61 54 57 64 68 65 63 65 65 67 69 70 65 66 61 59 59 61 61 63 65 66 68 66 65 63
27 20 20 20 45 61 80 78 92 80 88 86 89 91 93 90 90 82 76 58 56 63 71 68 68 66 69 68 68 67 64 60 59 58 60 62 64 65 70 70 67 68 66 63
19 15 16 19 20 56 73 69 72 90 88 91 87 92 97 87 92 91 79 67 55 56 64 67 69 69 69 67 63 66 65 63 61 59 58 59 64 68 63 62 61 66 68 67
19 18 18 17 18 50 52 69 81 79 87 90 95 94 86 93 93 85 81 76 52 53 61 67 66 66 66 66 62 61 62 62 63 63 59 58 61 62 60 64 65 67 69 63
20 17 17 20 44 46 66 76 82 82 90 94 88 88 93 95 84 77 71 75 66 50 59 64 62 65 67 66 64 59 60 65 63 64 62 60 60 61 64 65 63 66 67 68
22 21 53 59 73 63 74 77 92 85 94 88 87 89 79 77 86 78 79 75 69 54 60 65 61 65 67 70 67 64 62 66 66 67 66 63 60 61 62 62 63 65 66 67
29 27 66 58 68 78 77 60 82 65 87 83 86 91 76 57 60 63 57 65 68 64 58 62 59 64 67 69 71 68 65 66 66 68 66 66 64 64 63 63 63 65 66 67
28 25 20 54 56 56 72 72 60 82 82 83 87 77 63 64 74 78 74 74 74 72 66 63 60 62 70 72 71 68 64 66 64 67 70 70 70 70 64 65 69 67 67 72
25 33 21 20 49 51 58 57 65 83 81 79 81 82 80 76 73 81 79 74 73 74 72 65 63 65 68 71 61 65 63 59 60 63 65 65 69 70 67 71 69 68 69 72
28 27 25 23 34 61 39 55 50 65 77 82 76 67 64 62 62 79 66 63 58 65 73 70 64 67 68 70 73 65 70 62 64 63 65 67 72 70 74 71 68 69 72 71
29 36 38 30 25 27 32 45 45 57 42 78 72 65 71 56 53 56 57 57 60 57 63 73 70 77 77 72 74 72 69 67 63 62 65 70 71 72 75 74 77 75 68 70
29 37 44 33 33 37 36 45 30 37 49 69 56 47 64 63 66 69 73 71 68 64 71 85 84 80 84 85 83 79 74 68 66 64 68 78 73 74 77 77 78 80 80 76
31 42 37 45 44 43 54 61 63 27 33 36 46 32 77 70 70 82 85 82 78 81 86 89 89 87 88 87 88 87 83 74 69 70 69 70 72 79 74 62 65 75 80 81
38 37 44 36 48 56 65 66 71 56 74 27 54 78 95 95 94 81 84 86 86 85 88 92 94 94 92 91 90 89 92 92 78 70 73 72 69 72 70 70 79 78 86 80
55 42 51 55 47 48 55 60 66 75 87 83 89 87 87 90 93 97 92 84 86 86 81 79 89 89 94 94 92 92 86 74 80 85 73 76 71 67 78 81 91 82 84 93
57 63 53 56 60 47 61 55 65 67 73 83 93 83 76 96 95 97 97 89 92 96 98 99 96 93 93 92 88 86 80 75 77 80 78 77 78 84 81 90 90 95 93 95
53 68 73 65 54 69 53 61 56 59 69 88 87 79 92 95 98 97 92 97 99 99 100 100 99 100 100 99 94 87 87 89 87 80 79 84 83 83 89 95 95 92 88 90
61 74 78 68 73 61 61 61 58 56 59 77 88 81 91 91 92 98 96 97 98 99 99 100 100 100 100 100 100 98 96 93 94 94 92 97 93 90 93 93 91 97 95 95
72 74 67 79 64 71 60 54 54 55 75 70 90 81 90 94 95 100 97 96 96 99 100 100 100 100 100 100 100 100 99 100 98 100 100 100 98 96 100 100 100 100 93 93
67 81 71 85 73 68 55 52 54 67 63 82 85 88 93 92 90 93 96 98 100 97 97 99 99 100 100 100 100 100 100 100 100 100 98 100 100 100 100 99 98 98 97 90
66 76 81 84 68 51 53 52 59 55 77 82 90 92 95 95 95 98 97 98 94 90 92 95 97 99 100 100 99 100 99 100 100 100 96 96 95 100 100 97 98 100 99 95
73 66 75 73 74 59 58 57 55 73 79 77 84 85 92 91 92 93 97 95 92 90 91 88 88 90 94 97 96 98 100 100 99 100 100 98 100 98 93 90 94 99 100 98
58 72 75 60 56 55 60 58 57 63 70 79 78 80 82 93 95 96 95 93 92 88 88 83 82 84 81 77 78 78 80 80 77 77 81 83 86 85 87 81 92 99 99 99
60 61 70 65 57 62 53 49 46 60 72 84 77 75 87 92 92 91 91 90 88 84 75 66 65 67 76 70 65 61 56 52 51 50 54 55 54 54 56 56 59 66 73 72
56 58 66 65 61 57 48 39 46 64 72 82 77 88 90 91 89 88 90 83 78 74 73 73 73 67 63 56 50 46 46 42 37 39 44 44 43 45 47 46 46 46 47 47

GFSCGP_925_rhum_117.txt.gz
RH
18 21 28 21 20 28 38 55 62 75 78 79 75 83 83 80 64 58 62 62 51 50 48 54 57 60 64 69 72 76 78 76 80 85 84 82 69 81 73 64 65 63 65 63
19 24 18 19 20 36 42 50 67 78 80 74 80 74 86 93 72 59 64 70 50 49 49 55 57 57 62 67 72 76 74 75 70 80 75 72 76 78 75 69 66 65 63 61
21 18 18 19 32 39 46 36 64 63 80 72 73 73 82 92 85 69 71 51 43 46 48 52 56 56 60 66 72 76 77 75 71 73 72 65 69 64 74 75 73 65 63 65
19 15 16 17 17 25 32 43 56 77 74 72 74 70 81 83 89 70 62 56 48 43 47 48 53 56 58 62 71 74 78 79 68 67 73 63 66 68 70 65 69 73 67 61
18 15 16 17 15 20 23 51 58 68 72 72 80 84 66 74 87 72 63 51 49 43 43 47 51 53 55 61 68 73 78 77 79 66 68 62 61 66 65 72 64 72 66 67
16 15 15 16 41 24 54 61 63 68 70 76 57 69 58 79 74 61 56 48 44 45 41 46 48 53 56 61 67 70 79 73 70 66 61 61 59 60 72 62 77 75 78 75
19 17 33 44 49 49 54 50 53 61 74 56 72 78 58 55 55 50 52 51 50 46 42 46 51 56 57 61 65 70 77 80 82 78 74 63 62 62 61 61 65 69 68 69
23 20 44 45 39 42 48 33 26 39 48 58 73 78 48 46 43 51 51 53 55 47 41 46 50 55 58 61 65 69 72 75 82 82 79 67 65 74 74 71 69 76 78 77
23 22 23 47 47 42 54 51 33 49 64 65 62 57 44 47 49 61 66 58 61 57 45 46 50 59 59 61 64 67 70 73 78 78 83 78 72 68 76 66 66 78 71 83
24 29 20 27 44 46 45 40 54 60 50 47 49 60 52 58 61 61 64 66 57 59 56 48 51 53 59 62 66 68 70 72 73 76 81 80 80 70 70 68 68 70 68 67
23 25 23 22 36 33 44 45 46 50 52 40 44 33 45 51 53 67 65 60 56 62 64 62 62 62 64 64 68 74 75 76 77 80 82 83 82 80 73 75 78 72 73 76
25 25 27 23 20 22 34 34 33 36 44 46 50 32 57 54 46 59 63 63 61 69 65 63 65 69 66 66 68 74 79 79 79 79 85 68 68 80 83 78 82 72 73 76
26 26 28 24 27 30 32 42 34 27 32 37 34 25 47 53 51 55 61 58 56 59 75 75 79 84 76 67 69 75 79 80 82 84 85 78 68 77 90 89 80 81 78 75
29 27 31 26 32 39 48 47 51 39 27 26 26 26 37 69 71 64 63 55 55 57 66 82 76 83 80 76 75 81 81 77 80 86 84 85 85 89 90 86 80 73 72 76
29 32 32 30 39 41 46 48 55 46 55 29 29 55 71 80 84 76 69 69 68 71 64 73 74 74 84 90 87 82 87 78 89 81 84 86 71 77 82 82 72 68 68 82
40 35 42 43 38 35 48 46 53 64 67 64 62 64 76 83 80 75 69 71 72 78 73 76 81 87 90 84 88 93 94 97 90 93 91 74 75 76 86 74 71 72 77 80
46 47 44 39 37 42 53 50 45 56 59 66 60 69 74 88 88 88 73 70 72 75 73 76 82 94 94 91 86 92 97 90 91 92 98 94 80 81 76 76 81 87 84 90
44 53 61 45 46 59 40 48 43 43 48 57 72 70 88 96 97 96 91 86 93 95 98 95 92 99 100 99 96 90 92 85 85 82 89 96 88 86 87 87 94 89 81 93
46 50 57 54 56 47 53 50 52 45 35 49 70 78 88 94 87 98 95 95 97 97 98 99 100 100 99 100 100 92 98 99 98 93 96 95 95 91 97 94 99 100 92 94
51 55 43 61 54 50 45 46 44 45 48 44 68 75 80 77 78 92 90 92 93 96 100 100 100 100 99 99 99 100 100 99 100 98 95 98 99 100 96 99 100 95 97 100
49 55 50 61 56 46 43 43 48 58 48 57 63 69 78 78 76 90 94 95 90 92 98 100 99 100 100 99 100 100 100 100 100 100 99 97 95 100 100 99 100 100 100 100
52 62 70 60 62 52 46 47 56 50 59 65 74 81 86 96 95 90 88 89 88 90 92 94 98 100 100 100 100 100 100 100 100 100 100 98 98 99 98 99 100 100 99 99
65 47 60 56 48 50 52 51 48 57 63 68 76 86 90 86 77 76 87 81 82 84 84 87 90 94 99 100 99 99 100 100 100 100 100 100 100 96 96 94 99 100 100 99
54 56 53 56 51 53 53 52 55 61 57 65 71 72 68 73 71 78 79 76 77 79 80 81 80 83 84 84 87 89 90 92 92 94 98 97 96 95 95 95 100 100 100 99
44 57 56 52 51 50 47 55 48 57 63 63 62 64 67 66 68 68 73 73 75 75 71 69 75 78 79 80 76 67 63 62 64 66 59 60 62 74 80 81 84 87 92 97
44 49 42 30 46 48 43 42 53 62 64 60 61 66 67 66 67 64 66 69 68 69 71 70 69 71 71 69 69 56 49 56 60 59 57 55 52 48 48 48 46 48 49 49

GFSCGP_925_rhum_123.txt.gz
RH
6 9 13 12 14 13 17 21 22 32 45 46 44 45 50 50 56 48 49 38 24 26 26 31 31 33 36 43 49 52 52 61 61 57 52 53 50 49 50 54 63 66 61 65
8 8 7 9 12 14 16 18 21 34 41 46 37 42 37 51 49 38 76 39 27 26 26 30 30 31 35 42 48 53 54 64 63 56 54 53 49 53 51 53 60 61 61 67
8 7 8 13 14 14 14 17 18 24 41 39 40 40 39 38 47 42 46 48 27 26 29 28 30 30 34 40 47 54 57 67 71 62 58 63 63 61 50 52 56 59 62 64
8 8 12 13 12 11 14 12 15 20 35 37 43 36 38 37 45 47 41 43 33 28 24 25 28 30 31 39 45 52 58 65 67 69 59 55 61 48 45 50 57 57 61 62
10 11 11 11 11 10 12 12 15 17 25 27 28 40 24 28 46 48 42 37 40 31 27 25 26 30 31 36 44 48 57 64 63 67 69 65 59 53 54 51 62 61 65 63
10 9 9 9 8 9 8 13 16 20 24 32 22 27 23 34 37 39 41 40 40 29 29 24 26 30 33 34 42 46 55 65 70 70 69 67 57 59 56 53 61 54 54 60
10 10 8 8 11 11 10 15 22 26 24 24 22 24 20 28 30 28 35 39 41 37 28 26 26 28 34 35 40 43 54 62 67 73 66 66 62 60 62 68 55 50 52 56
12 14 9 8 10 14 13 13 17 26 20 41 26 26 28 41 22 20 25 32 37 37 30 28 28 28 37 37 39 44 52 60 63 65 66 65 65 61 58 62 51 54 52 49
13 13 10 11 10 11 15 18 12 15 13 15 26 27 19 27 21 22 25 30 38 37 34 35 28 25 36 38 39 46 50 58 59 61 63 66 68 65 58 56 65 64 62 60
14 18 11 10 12 15 15 31 26 15 24 26 18 21 26 31 22 24 27 32 35 36 35 36 30 27 30 34 40 44 50 57 57 55 57 61 61 66 67 66 71 65 61 74
13 14 15 14 16 17 18 18 27 24 28 34 27 34 76 25 27 30 31 28 30 32 32 30 56 30 31 36 39 46 49 54 57 55 54 56 58 60 64 62 67 72 73 78
13 14 16 14 12 11 15 25 22 20 28 38 35 48 48 25 20 32 40 32 36 34 38 44 35 35 35 38 40 46 48 51 55 53 56 58 58 57 56 61 60 75 77 78
14 16 15 14 10 12 14 12 12 21 24 33 34 33 43 41 19 26 34 44 54 43 50 53 52 62 40 39 42 42 49 50 52 54 56 57 59 63 61 61 64 65 74 78
17 12 13 12 12 16 22 20 33 40 21 24 24 26 43 42 35 28 31 42 55 64 68 78 76 75 46 43 45 44 48 51 53 55 54 55 57 58 60 64 67 64 65 71
14 18 14 11 9 9 11 29 56 64 39 20 21 32 29 59 42 56 42 44 58 73 85 90 84 84 71 60 61 62 52 52 55 56 58 59 59 60 62 65 67 64 69 68
15 22 19 18 13 12 12 16 47 40 24 32 22 25 38 44 56 61 44 48 52 51 53 62 67 74 80 72 63 64 61 64 61 63 63 63 66 70 74 79 80 82 79 77
19 20 22 24 15 20 22 15 22 22 17 40 37 26 69 53 69 79 78 51 74 48 47 47 70 86 83 85 79 71 74 78 79 78 72 77 74 77 76 74 79 88 90 87
17 24 23 22 19 32 21 32 41 35 17 36 46 21 43 62 85 91 91 89 89 90 82 91 82 76 88 89 85 79 79 84 84 83 80 84 86 84 86 82 86 93 97 91
12 19 23 28 28 29 20 29 31 32 22 18 20 24 46 71 81 95 87 91 96 97 98 100 100 95 99 100 95 90 90 89 91 89 89 90 91 92 88 89 86 95 99 98
13 18 24 25 36 69 35 60 55 71 31 22 19 22 30 52 56 93 87 80 87 96 100 98 99 100 100 100 98 98 99 98 99 96 95 96 96 96 96 97 98 99 100 100
26 26 26 25 29 37 23 38 26 43 48 46 23 24 45 84 84 84 78 84 87 91 98 99 100 100 100 99 98 98 99 97 91 98 99 94 94 89 82 96 100 100 100 100
28 29 31 32 44 52 26 28 31 45 37 54 57 65 72 61 66 77 76 79 78 83 89 94 100 100 100 100 100 100 100 100 100 100 99 100 98 100 94 99 94 95 95 100
32 28 59 31 43 36 31 29 31 33 36 37 56 63 54 52 59 64 70 72 77 82 84 87 92 97 100 100 98 99 100 100 100 100 100 100 100 100 100 99 99 100 96 100
27 27 26 31 40 29 30 30 29 35 40 47 47 52 44 51 54 58 60 65 69 72 73 76 78 80 86 97 99 100 100 100 99 99 99 100 100 100 99 99 99 99 99 98
52 30 26 25 22 29 32 34 37 40 46 44 44 43 44 49 54 59 65 64 65 69 70 68 67 67 68 70 73 70 74 84 89 89 88 89 91 91 91 96 99 99 98 98
24 22 22 33 25 50 40 38 38 43 40 37 39 44 44 46 50 53 58 56 56 59 57 54 50 52 54 57 58 58 56 52 50 42 44 58 58 59 65 70 76 75 72 70

GFSCGP_925_rhum_129.txt.gz
RH
8 10 16 16 16 20 21 33 52 57 48 57 59 65 71 66 75 72 59 54 52 39 32 31 32 47 48 48 54 56 57 59 55 64 62 59 57 51 58 56 62 54 63 62
10 11 10 10 11 16 16 17 47 48 41 36 56 56 60 61 64 67 62 43 51 48 41 32 37 50 52 48 56 59 63 60 53 63 61 56 60 59 59 57 64 60 58 66
12 10 6 6 8 11 16 17 22 47 38 32 35 40 53 59 50 56 50 44 57 57 53 40 36 49 52 50 47 61 62 61 57 66 64 60 62 63 64 64 64 58 63 63
10 7 7 7 11 13 18 14 13 39 47 41 40 68 42 56 64 53 56 49 54 50 54 37 35 46 52 53 48 59 61 58 59 63 63 61 62 58 49 63 60 61 59 60
13 10 10 11 13 12 15 11 14 17 22 22 38 54 49 54 68 63 52 51 61 46 53 48 37 42 51 54 53 54 63 61 61 66 68 61 59 60 57 58 65 56 54 60
11 9 10 10 10 10 10 11 11 14 24 41 31 50 48 58 64 59 54 54 53 43 45 43 35 39 50 54 56 58 61 60 56 62 65 65 61 59 58 60 62 61 58 59
12 12 9 9 11 10 10 14 27 34 34 45 28 37 50 39 51 52 55 52 46 45 43 59 50 37 49 54 58 67 65 67 60 61 62 64 69 63 57 58 58 62 63 60
19 18 12 8 10 13 14 15 26 31 37 37 26 50 55 41 43 54 55 49 44 40 48 48 42 40 47 52 59 64 75 73 64 57 62 59 63 71 61 57 58 60 60 60
23 19 9 9 8 9 12 20 16 19 18 25 35 44 38 29 36 45 52 51 49 44 50 44 43 44 44 46 57 64 75 73 68 64 63 66 63 68 66 64 59 63 59 56
17 22 11 9 10 11 12 14 30 39 31 39 52 59 64 43 48 51 65 70 51 45 51 41 50 43 45 47 52 63 72 71 68 66 65 74 70 65 67 69 66 59 61 60
15 20 22 14 15 18 18 22 21 28 33 47 48 63 44 47 38 61 68 75 64 56 66 80 64 48 43 48 52 64 72 75 75 66 65 74 72 67 65 66 67 63 65 65
15 17 28 20 14 12 16 20 25 41 36 44 48 55 31 37 39 56 66 66 63 60 75 81 80 56 64 62 56 69 72 74 78 75 67 66 64 63 62 64 64 63 62 60
17 28 32 21 14 13 16 16 21 26 31 48 52 55 33 35 35 49 68 69 62 59 57 71 78 81 58 62 68 62 72 72 71 72 72 68 66 63 63 64 61 56 64 66
18 19 26 30 21 16 16 13 13 23 36 35 38 37 42 39 66 62 62 65 52 60 55 61 72 80 72 77 58 70 73 75 69 67 68 76 72 66 68 66 62 68 68 69
14 22 18 18 14 14 15 14 13 14 24 33 29 32 68 64 48 57 76 86 71 57 83 88 78 84 81 78 86 70 62 94 84 68 66 64 64 63 61 63 64 69 68 68
16 25 24 30 19 16 15 13 13 13 20 30 31 48 68 58 54 63 85 90 94 94 92 94 94 86 78 82 89 90 88 93 98 87 70 64 63 64 65 67 67 65 71 70
28 30 38 38 27 24 27 30 28 25 26 28 35 41 81 60 53 86 89 90 89 85 95 91 91 94 97 84 91 94 89 74 94 87 92 63 66 62 64 66 67 67 67 68
24 24 32 42 36 46 26 25 25 28 26 28 31 73 68 65 84 92 91 88 92 90 87 88 90 85 88 99 97 95 93 93 94 87 88 66 64 67 68 69 70 71 74 70
18 36 36 42 42 32 24 34 33 37 40 38 33 64 73 88 91 93 90 90 88 90 95 99 100 75 71 78 94 94 92 94 92 98 98 82 75 78 80 78 78 80 85 88
18 30 37 34 44 48 31 34 37 36 54 51 61 65 73 85 80 90 88 90 87 87 100 99 99 100 92 94 92 100 100 100 100 100 99 99 97 98 98 100 88 87 88 98
30 34 35 39 43 35 35 36 37 51 59 58 68 87 82 82 95 95 91 93 91 97 99 100 100 99 100 91 97 92 97 100 100 100 99 98 89 85 88 93 100 100 100 99
35 48 50 48 48 55 42 36 45 56 65 67 78 83 96 92 96 93 90 93 91 94 97 100 99 100 98 100 97 92 97 100 98 95 100 100 99 94 94 87 97 94 98 97
36 40 55 46 59 62 52 49 43 58 75 82 80 84 84 86 89 85 90 88 89 90 94 98 99 100 100 98 100 98 100 100 99 100 100 100 100 96 95 90 95 98 96 96
53 53 51 50 55 52 45 41 39 64 79 82 75 80 82 86 90 81 82 85 86 83 84 84 88 98 100 99 99 100 99 100 100 99 100 99 100 100 97 96 99 100 98 100
65 44 48 47 49 45 44 64 66 83 80 74 95 91 96 75 76 77 80 76 80 79 75 75 79 76 81 99 99 100 100 100 99 100 100 100 100 100 100 100 100 98 100 99
58 49 57 56 53 56 52 73 74 81 78 75 79 89 69 67 73 76 83 77 74 73 68 69 68 71 72 64 69 83 93 96 96 96 97 96 97 99 98 96 98 97 96 99

GFSCGP_925_rhum_132.txt.gz
RH
9 11 13 13 17 20 24 35 52 53 50 63 66 63 72 63 68 65 76 55 50 39 39 40 50 61 68 65 59 61 62 63 67 65 59 64 61 60 58 59 58 61 67 61
13 12 10 10 12 14 16 40 59 60 56 60 66 65 62 68 61 56 70 57 54 50 43 42 58 62 63 58 56 56 52 54 61 62 60 60 59 55 60 59 60 62 63 64
15 11 8 8 9 10 12 35 61 65 59 55 63 65 70 61 62 54 64 53 52 49 40 46 57 59 62 68 60 56 54 51 58 58 62 62 64 63 62 62 64 61 61 66
14 10 9 9 9 11 20 15 40 49 59 65 43 61 54 70 68 62 58 60 55 52 49 45 54 56 59 63 60 57 56 53 56 64 62 61 62 62 60 59 61 62 65 66
18 13 11 13 14 13 17 11 27 44 37 31 43 55 53 62 78 65 60 57 55 49 51 47 51 54 56 58 60 56 58 58 60 65 64 65 61 59 59 60 61 60 67 63
16 11 11 12 10 10 11 13 19 24 32 34 30 51 52 82 70 62 60 57 50 48 53 46 44 52 55 56 64 58 60 60 63 63 64 64 58 59 61 59 58 59 61 59
16 13 10 10 11 11 13 20 29 26 34 37 28 48 38 46 59 60 60 56 48 54 52 56 56 50 55 58 63 65 65 63 60 64 65 65 63 62 63 60 58 63 59 60
21 21 13 10 12 14 13 18 27 27 45 29 31 52 56 44 55 53 52 52 49 55 46 52 49 48 53 58 61 69 72 68 61 64 66 64 66 67 63 60 62 60 62 59
25 23 12 9 9 11 11 18 17 20 25 32 42 43 36 48 57 61 58 59 59 55 59 47 46 45 58 57 60 66 70 68 62 61 64 60 63 69 67 58 60 56 59 62
19 23 14 10 9 10 12 14 25 42 34 39 63 60 60 43 61 57 60 63 60 54 64 62 64 55 51 55 58 63 68 65 59 63 66 59 59 63 66 60 58 60 66 64
17 23 21 14 16 18 19 20 26 34 44 51 55 57 49 43 42 54 63 66 63 64 68 71 75 56 52 53 56 64 71 74 73 70 65 65 59 58 65 62 65 66 64 66
17 26 24 19 16 14 17 19 27 36 32 49 54 50 44 39 52 50 53 57 65 72 71 72 74 70 58 55 54 65 71 77 72 70 74 68 66 64 64 67 70 68 70 68
16 30 34 24 19 14 15 18 25 35 44 50 49 54 44 56 61 57 64 75 74 69 72 84 87 76 75 74 66 67 72 78 78 78 74 75 74 74 69 67 68 65 64 63
29 28 30 32 23 17 15 15 14 31 40 40 48 46 45 55 69 79 78 82 84 86 90 85 76 82 76 81 66 80 78 75 78 79 78 76 76 72 70 64 64 64 63 64
18 21 22 21 18 15 18 18 18 15 20 35 32 41 50 62 67 81 86 90 91 92 93 94 92 88 86 76 70 77 86 93 75 86 91 92 83 71 64 62 62 63 65 64
17 18 19 20 21 23 22 28 23 28 30 33 34 43 63 61 63 88 93 95 95 94 91 94 96 94 94 92 92 86 91 91 91 82 84 85 81 96 72 64 62 64 66 67
24 25 43 35 32 27 28 28 27 29 32 30 38 33 77 71 68 94 96 92 93 93 91 90 90 98 96 98 85 97 98 89 85 94 78 79 98 74 93 66 65 69 68 71
39 35 44 39 33 42 31 30 28 30 39 46 39 62 74 66 87 96 89 85 92 92 89 91 93 91 91 90 94 97 97 92 96 93 72 65 94 82 80 70 65 66 70 66
23 36 34 34 44 33 30 34 31 29 35 60 61 61 85 95 87 88 93 87 87 85 88 92 95 98 97 95 95 97 100 98 94 96 90 84 84 94 97 74 68 70 70 78
31 36 34 52 41 44 37 37 32 36 51 54 59 70 86 88 73 82 94 92 91 94 96 95 99 97 99 100 98 97 94 100 100 97 95 82 87 100 98 93 97 96 87 91
35 42 36 45 40 40 37 41 40 45 48 58 67 71 88 89 81 86 96 96 93 94 99 98 99 97 97 99 97 99 100 99 100 100 100 96 98 98 98 99 98 99 100 100
35 44 44 57 52 52 41 42 46 57 68 69 82 87 92 92 98 95 95 95 92 94 99 100 99 100 99 100 99 100 100 96 94 100 100 100 100 100 100 98 99 100 99 98
36 45 54 50 57 55 53 40 60 68 78 76 74 74 84 94 95 92 96 92 91 94 98 100 99 99 100 100 100 99 100 100 98 99 100 97 98 96 98 96 100 100 100 99
47 51 59 47 45 51 82 73 71 71 80 83 80 85 84 89 93 94 95 95 87 85 81 84 97 100 100 100 100 98 100 100 85 93 100 100 100 100 100 98 98 96 100 100
62 47 58 54 75 80 77 83 84 82 79 84 88 89 87 85 83 90 91 89 81 76 76 76 82 88 100 100 100 100 99 100 95 95 99 100 100 99 100 100 99 98 98 94
53 40 45 52 55 69 81 80 78 74 69 68 82 89 87 78 86 82 88 81 81 80 73 71 73 71 89 100 100 100 100 99 99 100 100 99 99 100 100 99 100 100 100 99

GFSCGP_925_rhum_135.txt.gz
RH
11 10 11 12 19 22 24 26 42 60 58 72 78 68 64 70 67 71 71 64 45 45 44 57 58 60 62 65 66 62 59 59 64 65 64 63 62 59 65 62 64 64 65 65
15 15 12 9 11 15 16 20 42 58 60 70 71 71 60 66 59 62 66 67 55 49 45 49 57 64 66 65 67 64 53 66 62 59 60 60 60 59 58 60 63 63 66 66
19 13 10 9 9 9 11 16 54 58 67 66 67 74 67 64 65 58 58 66 55 50 49 49 56 66 69 69 68 67 59 68 62 62 63 61 65 60 58 57 62 64 67 65
18 14 12 11 10 10 12 13 30 64 78 82 59 77 51 68 72 64 55 65 60 56 43 51 57 66 68 66 68 67 69 68 68 65 61 58 61 62 56 60 60 64 63 66
18 16 14 12 11 11 14 15 50 61 74 41 52 59 51 71 80 69 60 58 63 48 46 54 60 62 63 67 66 61 63 60 61 63 64 60 63 60 60 60 61 59 66 68
16 13 12 14 13 14 13 15 23 32 38 38 30 55 41 76 72 65 60 52 60 52 57 51 57 58 60 65 68 64 60 60 59 65 64 64 60 58 60 59 61 65 63 64
16 14 12 11 12 12 16 21 29 27 33 35 33 52 42 36 51 60 65 57 53 53 53 59 59 60 60 64 69 70 66 64 59 63 61 65 61 61 61 59 57 61 60 66
22 21 14 11 12 15 14 18 29 26 35 31 31 40 53 48 53 62 58 61 57 63 52 60 55 65 63 63 69 71 69 69 61 66 67 66 64 61 58 61 61 58 58 58
26 23 15 12 12 12 15 19 17 26 32 34 39 46 40 50 58 63 65 61 61 63 59 52 55 56 69 63 64 71 70 69 62 66 65 66 64 60 60 61 62 62 59 59
20 23 18 11 10 11 12 19 30 43 34 39 58 60 57 50 54 51 58 62 65 65 68 59 63 59 64 65 53 61 69 68 62 65 65 65 65 64 62 63 61 60 61 62
21 23 19 14 15 15 19 21 37 38 47 51 64 63 56 48 43 46 59 73 76 67 67 73 73 62 62 66 64 64 68 72 67 70 73 70 67 65 66 65 63 57 59 63
20 27 25 18 18 15 18 19 31 32 30 56 51 48 40 43 47 56 68 72 76 85 86 84 80 76 69 65 66 68 68 70 64 63 73 71 68 66 64 67 65 58 61 63
22 30 30 24 20 14 15 17 30 40 50 58 54 49 45 60 58 59 77 74 70 71 83 85 82 82 78 75 65 65 66 71 75 78 79 80 75 70 64 65 66 63 64 68
33 34 27 28 23 18 14 18 19 34 42 47 48 42 48 65 66 66 85 80 70 82 82 82 89 88 78 74 71 63 66 70 78 74 70 82 81 76 69 65 63 68 70 68
18 20 24 23 19 16 18 20 22 20 23 29 30 52 44 56 72 81 87 89 90 86 85 86 87 88 83 80 80 85 79 71 73 74 82 90 81 76 76 74 70 66 71 69
19 22 18 18 18 24 23 26 31 30 36 38 43 37 49 60 59 81 86 93 92 90 89 93 94 94 92 89 85 80 79 75 82 95 97 94 85 84 78 79 78 73 70 70
21 33 34 28 33 26 31 26 29 34 32 35 35 33 72 73 72 72 89 92 93 89 89 93 96 99 99 98 100 97 97 96 98 100 97 90 92 89 86 86 85 79 72 68
33 42 43 41 32 37 31 31 28 34 47 52 36 46 61 71 80 89 92 90 94 92 89 92 95 97 98 95 99 99 99 100 100 100 100 100 93 89 77 78 75 77 74 67
28 39 45 36 38 31 26 35 33 30 36 57 49 53 81 93 94 90 94 90 88 90 90 92 93 95 97 99 99 94 96 99 100 100 100 100 100 91 85 86 72 73 83 74
32 32 35 52 34 38 32 30 35 36 52 54 60 60 83 88 76 77 96 93 95 91 92 90 95 93 95 97 99 97 99 99 100 100 100 99 92 97 92 74 73 94 96 85
36 43 37 54 40 39 36 39 39 51 49 52 62 63 82 88 77 80 98 93 92 94 95 92 93 99 100 99 99 98 97 100 100 99 100 100 100 95 83 97 100 100 99 100
37 46 45 55 53 39 44 46 50 51 64 61 69 69 78 88 98 94 91 93 92 97 96 96 97 99 99 99 98 99 99 100 97 100 100 100 100 99 100 100 100 100 100 100
38 41 50 46 51 50 53 46 46 66 64 70 72 81 88 90 91 93 97 94 93 94 96 98 100 100 99 99 100 98 87 97 97 100 99 100 100 100 100 99 100 99 100 100
52 52 56 49 48 51 58 63 65 71 67 74 69 83 89 95 95 97 96 94 93 89 89 91 100 100 100 100 100 100 90 95 100 100 100 99 98 98 100 100 99 100 100 100
58 46 62 87 87 76 76 79 72 72 78 87 87 83 90 93 95 94 95 93 83 80 80 86 91 99 100 100 100 99 96 83 98 100 100 100 100 98 99 99 100 100 100 98
57 48 52 56 72 64 71 76 80 80 76 93 95 96 85 80 94 88 90 79 81 78 72 74 84 97 100 100 100 100 100 86 89 98 99 100 99 99 98 99 100 100 97 94

GFSCGP_925_rhum_138.txt.gz
RH
12 12 13 12 22 27 33 43 56 46 63 66 79 70 67 70 70 72 73 64 55 50 49 55 61 62 63 62 64 65 66 67 68 67 52 60 61 60 59 56 63 63 65 68
15 16 12 9 14 15 16 18 22 47 62 62 75 80 68 74 65 64 69 69 59 53 57 62 63 63 63 58 60 64 64 67 69 57 55 59 58 61 59 60 63 66 66 69
19 13 12 11 10 12 13 17 23 32 72 68 64 67 72 70 62 60 63 65 64 57 54 63 63 65 66 66 60 60 63 62 63 64 58 63 64 65 62 64 64 63 64 70
19 17 15 14 11 10 10 12 12 61 73 74 60 72 52 62 77 64 56 65 63 68 54 63 59 66 68 65 62 63 64 60 59 63 71 63 60 65 60 60 56 60 64 68
18 16 16 14 13 10 11 15 33 70 60 58 59 73 63 69 72 72 67 57 65 57 56 61 55 63 66 66 63 65 62 61 57 71 66 63 61 57 57 55 57 60 65 65
17 14 14 14 12 10 14 26 30 49 65 67 42 70 62 42 55 60 63 58 59 59 54 60 52 57 62 64 70 67 67 63 62 71 68 66 62 58 60 61 61 62 62 66
18 16 13 12 14 13 16 25 50 66 79 80 39 62 58 36 47 57 61 64 55 60 57 55 64 62 63 63 68 68 67 70 65 69 69 69 64 59 58 59 60 61 63 67
24 22 15 12 14 16 16 20 31 29 36 33 38 43 33 45 58 66 63 62 59 62 61 56 61 68 64 65 68 70 70 69 68 68 67 66 67 65 61 59 58 58 57 59
26 21 17 13 13 13 16 19 19 32 36 33 37 52 43 46 52 63 68 66 68 66 66 65 63 63 70 67 66 72 74 71 70 63 65 63 65 67 64 61 58 60 56 57
20 24 18 13 11 16 14 21 26 36 30 29 50 62 59 48 49 49 67 73 66 70 71 70 66 65 69 67 67 68 58 72 72 72 70 64 63 66 64 64 59 60 59 58
25 22 19 14 15 17 19 24 38 41 48 54 65 66 58 50 44 46 70 71 79 74 75 73 75 65 66 73 69 57 48 70 73 69 65 66 64 66 68 66 61 62 58 60
21 28 26 19 20 16 18 21 33 31 31 62 53 44 37 48 46 51 69 69 79 73 78 81 78 73 72 73 71 59 67 71 61 73 76 71 76 73 69 70 66 64 64 60
23 29 31 24 18 13 15 19 40 43 52 59 52 44 47 56 54 55 62 67 76 80 81 82 86 86 80 80 79 73 75 72 74 71 76 62 64 77 77 71 68 67 66 64
35 33 27 31 24 18 17 19 29 37 47 52 52 36 47 59 66 66 74 76 71 77 76 83 83 85 83 79 76 74 70 74 72 72 71 65 69 74 76 77 72 68 66 68
18 24 24 23 19 15 18 21 24 23 26 24 23 46 51 57 71 79 81 86 81 81 84 91 92 93 88 85 83 90 84 83 79 72 86 68 69 61 78 80 75 71 68 65
20 27 19 20 19 22 24 27 29 26 32 38 47 44 41 50 60 83 88 89 87 85 89 95 98 98 99 99 100 95 92 91 99 100 95 83 89 84 76 84 82 81 71 69
23 29 28 23 34 28 32 28 33 36 36 39 38 32 54 56 65 65 78 91 92 91 91 97 95 99 100 99 100 100 99 97 100 98 96 94 91 82 70 72 81 94 78 74
32 40 44 47 32 38 30 33 32 34 40 44 33 36 48 60 65 72 83 85 90 93 94 94 96 98 99 99 96 98 94 91 90 89 96 99 99 100 99 94 90 92 93 76
33 41 45 43 42 32 30 36 38 33 36 53 47 44 61 87 89 82 90 90 84 91 92 93 90 92 94 93 98 99 92 94 98 99 99 97 100 99 100 100 88 91 90 81
29 35 40 49 31 34 32 29 32 35 46 48 58 54 81 95 76 70 79 92 92 95 92 93 87 91 96 94 95 100 96 96 98 99 100 95 100 100 100 100 95 88 91 82
36 38 40 55 38 36 30 37 38 42 43 40 60 60 88 88 79 92 97 95 94 94 95 93 89 94 98 98 100 95 94 98 100 100 100 100 99 100 100 99 100 97 96 98
37 45 43 51 50 29 45 47 44 46 50 52 61 63 70 95 90 90 86 89 92 93 94 94 91 92 96 96 100 94 98 100 98 98 100 100 100 100 100 100 100 100 100 100
34 39 47 42 43 43 54 41 49 54 56 62 64 77 85 92 92 94 94 93 94 93 94 96 96 98 96 94 100 99 99 90 91 100 100 100 100 100 100 100 100 100 100 100
54 52 60 52 51 56 53 56 64 65 65 71 70 86 91 88 92 96 96 94 93 92 91 91 99 100 99 99 99 94 96 86 85 95 99 100 99 99 100 100 99 100 100 100
59 54 67 72 72 71 64 69 73 82 83 82 81 83 93 84 92 94 94 92 88 84 86 90 96 99 100 99 100 97 97 85 79 95 99 100 100 100 100 100 100 99 100 100
59 59 56 58 59 52 51 72 81 82 86 87 90 92 90 91 94 92 94 82 80 78 80 92 98 100 100 100 99 100 97 94 85 96 99 100 99 100 99 100 100 100 100 100

GFSCGP_925_rhum_144.txt.gz
RH
11 11 13 12 14 17 26 30 32 29 28 35 38 40 36 39 41 44 37 42 31 30 29 34 39 41 46 51 56 60 63 69 72 69 62 58 53 54 56 58 69 75 66 69
10 11 9 10 12 17 22 26 27 20 29 30 35 41 33 35 40 37 38 32 30 27 27 31 36 38 43 49 54 62 64 70 75 67 63 57 54 52 52 58 67 69 71 75
8 7 7 9 12 17 19 22 22 24 31 30 33 39 31 34 36 38 34 33 30 26 27 29 33 35 38 45 54 58 67 69 73 65 71 73 68 69 65 61 63 68 71 70
8 6 8 8 12 14 20 16 17 21 28 23 37 34 26 27 38 39 36 36 33 32 29 31 31 36 38 43 50 56 68 71 75 73 64 63 54 52 50 52 55 59 69 68
11 11 10 9 8 10 16 13 14 18 21 25 33 27 28 27 30 33 36 33 30 30 30 30 31 34 38 42 46 54 67 73 67 73 64 68 64 52 54 55 57 64 68 70
11 9 9 6 8 8 10 16 21 23 21 30 23 25 19 23 26 26 26 29 30 29 30 30 32 34 39 41 46 50 63 74 75 75 77 70 59 61 54 60 58 56 56 61
12 12 9 10 11 10 8 13 27 26 28 26 24 25 21 16 24 26 29 30 29 29 29 32 34 42 41 41 45 48 60 71 72 73 71 73 73 71 69 72 57 51 51 53
13 13 10 9 11 11 10 12 19 29 23 20 21 19 16 18 25 31 35 32 33 29 27 31 32 38 46 41 46 48 54 68 71 70 73 73 74 70 66 64 55 57 54 52
12 12 7 8 9 10 11 15 12 14 15 18 17 17 13 18 28 30 34 34 34 33 29 30 31 35 46 42 47 51 53 62 67 67 71 74 74 75 60 60 61 62 62 56
11 15 9 9 10 10 11 10 16 14 20 22 15 18 18 25 27 30 32 34 34 35 34 31 32 32 37 44 44 50 54 58 62 63 66 68 70 75 73 68 69 66 60 64
10 12 11 11 12 11 12 13 12 11 12 16 17 15 12 18 23 26 28 31 32 37 38 37 35 35 36 43 46 52 51 57 61 63 63 64 66 69 73 70 70 72 72 71
11 11 16 12 9 9 9 10 10 14 18 15 14 15 12 13 20 22 28 32 35 39 41 42 41 41 41 43 48 48 54 58 61 59 65 68 67 69 66 69 68 71 74 73
11 14 18 17 12 12 12 10 10 10 10 16 18 15 15 22 26 26 26 34 39 42 45 45 45 50 51 51 54 54 54 58 57 69 67 68 68 70 68 66 70 70 73 75
15 12 15 16 14 11 14 12 11 11 14 14 13 13 16 20 27 27 31 36 38 45 48 48 48 51 56 58 61 63 61 59 65 62 65 73 80 68 65 69 71 72 72 74
14 17 14 13 13 11 12 12 13 14 13 16 14 15 13 13 16 23 30 41 43 45 48 54 55 60 65 68 68 70 68 69 70 72 68 66 76 73 74 72 72 74 74 72
14 19 16 17 13 12 12 12 12 13 12 13 13 14 11 18 19 25 34 39 42 45 48 53 59 65 72 77 80 74 76 75 81 76 74 72 74 77 75 79 79 77 78 77
24 16 23 21 14 14 17 14 12 12 12 13 14 13 17 28 36 35 32 36 40 45 48 53 59 64 68 79 83 78 79 80 82 87 88 84 82 81 80 84 85 82 81 80
34 27 21 20 20 27 15 14 12 12 12 13 14 17 23 23 30 31 30 33 40 41 49 57 61 65 73 74 75 83 73 76 77 77 80 80 80 82 84 88 88 87 85 84
28 29 22 28 24 17 16 17 18 17 16 16 17 19 25 34 31 40 36 35 37 41 49 58 62 69 76 76 91 93 84 77 78 75 80 83 84 84 83 82 78 80 86 88
33 34 32 22 24 26 16 13 14 14 23 16 17 19 23 28 22 29 40 41 45 49 57 62 62 68 72 85 86 89 82 78 73 79 85 90 95 97 98 91 84 82 78 84
34 32 26 27 23 17 14 18 16 25 19 12 16 18 22 26 31 50 47 48 49 55 62 65 66 73 84 87 88 90 83 75 89 93 95 97 99 99 99 99 99 90 84 86
29 28 25 24 24 24 15 21 21 17 18 17 17 21 30 32 51 50 48 53 53 57 61 64 64 73 87 90 88 88 75 86 89 93 94 99 100 99 100 100 99 99 95 93
32 25 24 22 21 30 20 16 17 18 22 25 27 32 32 41 43 46 49 52 54 58 59 61 67 75 83 91 92 83 79 85 85 88 94 99 100 99 100 100 99 100 99 100
31 38 29 32 30 28 23 29 26 23 24 29 26 33 34 41 47 48 50 54 60 67 68 67 71 78 84 90 92 87 84 88 84 94 94 97 100 100 100 100 100 99 100 100
31 41 30 30 48 38 27 30 30 33 35 37 40 40 41 40 46 50 56 62 63 71 77 79 82 83 87 90 98 84 90 82 79 96 80 91 98 100 100 100 100 100 100 98
32 31 34 21 46 39 32 32 36 41 41 43 46 47 44 45 50 51 56 62 66 75 81 86 90 92 97 99 99 87 87 81 80 93 81 85 98 100 100 100 100 100 100 100